GFSCGP_925_spd_000.txt.gz
Wind_Speed
4 6 2 4 2 3 1 2 3 4 3 7 6 8 13 4 5 8 8 9 7 7 1 14 22 25 22 16 10 5 5 7 10 11 14 15 18 20 20 20 18 23 21 20
7 3 2 4 5 3 6 3 4 6 6 3 8 10 7 6 3 7 10 9 8 6 6 12 15 13 10 11 8 7 6 8 12 15 19 20 23 25 24 24 24 26 27 27
5 3 2 5 6 7 3 2 3 6 7 3 5 6 6 4 3 5 4 6 6 8 8 6 8 10 9 10 8 8 9 12 14 18 21 24 25 25 28 29 27 29 30 31
2 3 4 6 3 2 4 3 4 6 4 2 4 3 3 3 2 2 4 6 6 7 4 1 5 9 13 12 12 13 13 15 18 20 24 28 32 28 36 38 36 32 26 34
4 2 4 4 3 3 7 7 8 4 4 3 9 3 6 4 4 6 4 6 5 4 5 3 2 2 9 10 11 15 15 19 18 21 24 26 30 37 41 40 36 35 31 32
2 2 3 1 4 2 6 6 5 4 3 3 3 2 4 5 5 5 3 3 6 4 3 5 6 5 6 8 5 7 10 13 16 20 23 28 32 38 37 39 40 35 28 24
6 5 4 2 5 7 8 6 4 5 5 4 5 4 3 1 8 9 8 5 3 6 4 4 3 8 11 12 13 13 15 18 22 24 27 31 34 30 32 35 33 26 21 16
5 6 7 6 2 2 4 4 4 1 0 5 7 1 2 4 2 5 6 9 5 2 2 2 8 11 12 13 14 15 16 23 28 27 29 30 25 22 21 22 24 21 18 19
5 4 5 4 4 2 4 4 1 5 2 3 5 5 7 4 9 5 3 1 6 8 8 8 7 10 12 14 18 23 25 31 31 26 23 20 23 23 18 11 7 17 26 22
3 4 2 6 4 4 3 1 5 4 2 3 5 6 5 7 11 10 5 3 8 6 8 6 7 8 7 12 16 23 29 30 25 25 19 18 16 10 6 9 19 22 17 9
2 3 7 4 3 2 5 4 4 1 4 3 2 6 4 9 8 9 6 6 4 4 5 5 8 12 17 16 13 19 22 21 21 25 18 15 11 10 16 20 16 11 6 1
3 4 3 5 8 2 2 3 5 3 5 3 3 11 11 6 14 8 5 3 4 3 3 4 4 10 16 17 15 28 22 19 24 31 23 19 14 15 17 16 12 9 9 7
1 2 3 7 6 8 4 7 4 3 2 6 3 5 11 17 5 6 7 6 6 1 2 3 6 12 18 24 22 24 16 17 23 26 25 18 16 18 17 14 10 8 3 5
6 3 6 5 5 3 9 15 11 4 2 5 13 15 18 9 6 5 4 6 3 3 4 6 7 12 16 20 22 22 14 20 22 24 16 13 11 14 9 9 7 3 6 7
3 5 4 7 7 5 15 17 16 9 14 5 8 9 10 3 4 6 6 6 7 6 7 7 7 8 16 20 22 12 17 20 23 17 6 7 9 6 5 5 5 16 11 12
3 4 4 10 6 8 17 14 12 13 13 9 9 14 2 6 6 7 6 11 9 7 9 11 9 13 16 19 15 16 21 22 18 13 4 5 4 4 2 11 9 14 15 10
2 3 2 5 4 4 10 8 6 5 7 7 6 6 4 6 9 11 16 13 10 8 12 12 11 15 16 11 13 19 18 15 6 3 3 6 7 7 8 9 12 14 9 9
5 3 2 3 1 4 9 6 7 6 7 6 3 5 7 7 7 9 10 10 7 12 14 13 15 16 13 15 19 15 10 8 8 9 8 8 7 8 10 8 8 9 12 15
4 5 1 1 3 6 10 10 2 2 8 5 5 7 7 8 9 6 5 4 12 16 18 15 12 11 14 17 15 11 14 12 8 14 13 14 15 14 11 13 12 14 15 15
6 5 3 2 3 6 8 5 4 2 6 7 4 7 7 5 10 11 1 13 17 19 7 8 13 15 13 9 10 12 15 14 13 10 9 8 8 9 10 12 13 13 16 15
3 2 3 2 6 8 10 7 1 4 7 5 6 12 11 6 6 9 7 12 11 0 6 11 13 12 8 9 10 7 9 10 11 11 10 10 11 13 13 12 14 15 16 9
5 3 5 2 3 8 1 4 3 7 4 11 15 9 6 5 5 6 10 9 4 7 13 15 9 5 8 6 4 4 2 10 7 10 10 12 13 13 11 14 15 14 9 13
3 7 5 8 7 4 4 10 6 7 15 8 4 3 3 6 8 11 5 4 4 10 15 11 7 7 5 4 7 5 1 6 10 11 12 13 12 12 14 14 13 8 14 16
4 4 6 7 7 10 11 18 18 9 4 3 3 5 4 4 8 8 5 5 5 10 10 10 12 9 8 7 4 0 3 8 10 13 13 12 13 12 12 12 10 11 17 16
6 6 5 13 16 19 15 12 5 4 3 3 4 7 5 4 11 5 5 5 7 10 10 10 9 10 16 6 6 5 6 8 12 12 13 13 9 10 12 13 9 14 15 13
6 14 7 14 16 12 15 4 5 7 9 11 6 10 15 14 7 7 6 10 8 7 7 11 12 9 7 9 6 6 8 8 13 14 14 11 10 12 13 12 14 12 10 13

GFSCGP_925_spd_003.txt.gz
Wind_Speed
5 6 2 3 1 3 1 2 2 4 3 7 4 8 12 8 5 6 6 8 7 7 3 10 9 12 17 16 14 11 8 6 9 8 10 13 17 20 20 21 23 24 26 27
6 2 1 4 5 3 2 2 4 5 5 3 7 9 8 8 4 4 8 7 8 6 5 8 15 15 13 12 11 10 9 8 10 10 11 15 18 22 25 26 27 28 29 29
5 1 4 4 5 6 4 2 3 5 7 1 6 6 5 5 4 5 4 5 4 7 8 5 7 9 8 12 12 11 10 11 13 14 16 20 23 26 28 32 34 36 34 35
2 3 3 6 3 2 4 2 2 6 4 2 5 3 5 3 2 3 6 4 5 6 4 4 6 8 10 10 8 12 14 15 16 16 17 22 27 26 35 37 37 40 39 38
1 3 6 6 4 2 7 7 4 2 3 2 8 4 6 5 2 1 2 3 4 4 4 3 3 3 4 7 8 9 10 11 13 16 19 22 24 28 31 34 37 38 37 37
4 2 3 2 3 4 8 4 6 4 2 2 1 2 6 4 4 1 3 1 1 5 3 5 9 7 12 12 13 12 10 11 15 19 23 27 31 35 33 31 31 33 32 31
7 4 5 4 5 6 8 6 3 5 5 4 1 2 6 4 4 1 3 5 5 4 3 2 4 9 10 10 8 8 12 19 26 30 30 30 31 31 28 27 27 27 26 18
4 5 5 6 1 3 3 3 4 3 1 5 6 2 4 1 4 3 5 4 3 6 6 5 7 7 5 6 11 15 20 26 29 28 26 26 27 29 29 30 24 19 9 13
4 4 4 1 3 1 4 4 2 6 2 3 4 5 5 4 6 4 3 2 7 7 5 3 2 4 6 14 17 17 22 27 24 21 26 29 31 31 31 29 16 7 13 19
3 4 2 6 3 5 6 2 4 4 2 3 5 5 5 4 5 5 3 6 4 4 4 4 3 5 15 17 20 18 23 22 19 22 25 32 33 31 26 22 11 15 17 10
2 2 6 3 4 1 5 4 5 3 3 3 2 6 5 5 7 5 6 2 4 3 1 4 5 11 19 19 19 16 19 19 17 20 28 31 35 28 16 15 14 17 8 3
2 3 3 3 7 4 4 6 4 3 5 3 3 6 3 5 4 6 3 6 7 6 5 5 10 16 18 20 20 21 19 17 19 26 30 33 36 23 14 15 12 9 6 5
2 2 3 7 6 3 3 3 3 3 3 6 3 5 3 13 5 4 5 6 6 7 8 7 10 13 19 20 23 21 23 17 23 29 34 32 30 14 14 10 9 5 1 3
5 2 5 5 5 4 7 5 3 5 3 4 10 16 15 6 4 7 8 8 8 9 11 7 7 15 19 21 21 21 15 18 25 27 25 24 15 7 7 5 5 7 9 10
3 2 3 5 7 5 13 12 16 7 10 6 8 8 10 6 5 7 7 7 10 13 9 7 10 13 20 19 20 16 16 23 22 23 18 12 5 4 6 8 8 13 15 10
2 3 3 5 6 8 14 14 10 13 10 8 9 10 6 3 5 6 8 10 11 10 7 9 9 14 16 18 19 16 21 19 15 11 7 6 4 6 9 10 14 11 14 19
2 4 2 5 4 8 7 7 4 4 5 5 5 7 1 6 8 8 10 9 10 10 7 11 11 14 20 18 15 21 19 12 7 7 7 10 12 10 13 15 17 17 15 12
6 4 2 3 1 3 10 3 7 10 10 7 6 6 6 8 10 8 10 9 8 8 12 14 17 17 15 17 20 16 13 11 6 11 10 11 11 11 14 14 13 12 11 12
5 5 3 3 3 6 9 9 2 5 7 4 6 4 6 14 7 7 6 1 4 9 15 21 17 15 18 15 8 10 14 12 12 15 16 16 16 14 13 13 15 13 14 13
5 5 3 2 4 6 8 4 1 1 7 3 2 7 16 7 10 9 6 7 9 16 21 14 17 20 18 10 4 4 1 1 4 10 13 12 13 13 14 14 13 14 14 11
2 1 4 4 6 9 10 6 0 3 4 6 5 12 13 8 7 2 4 8 17 19 14 14 20 16 10 6 3 3 5 4 8 9 11 13 14 14 12 13 15 14 10 11
5 3 5 2 4 8 4 1 5 8 3 6 7 7 7 4 6 7 9 11 17 11 16 22 17 12 11 8 7 8 8 5 8 11 12 13 13 12 14 14 13 10 12 18
3 8 4 8 6 5 4 6 8 6 8 4 4 4 4 5 7 11 12 13 7 13 17 15 10 13 11 8 12 10 8 6 9 11 13 13 12 13 12 12 13 11 16 18
4 5 3 5 8 13 9 14 18 6 1 3 5 8 12 9 11 13 14 8 9 13 12 10 10 11 12 8 11 12 5 6 9 11 12 14 13 12 10 15 13 13 16 18
7 2 5 14 13 16 16 7 3 4 9 10 7 5 8 11 14 14 10 7 14 15 11 9 12 10 15 18 13 8 7 8 9 11 13 13 11 10 13 14 13 14 15 14
6 10 5 8 15 12 12 7 6 5 2 1 6 8 14 13 10 12 6 16 16 17 12 12 14 15 18 14 11 8 9 10 10 12 14 14 14 13 12 14 15 10 14 14

GFSCGP_925_spd_006.txt.gz
Wind_Speed
6 8 3 3 1 0 0 1 2 3 1 5 4 6 9 9 7 8 5 6 7 5 3 7 10 9 10 12 14 13 11 10 7 7 10 13 14 15 16 18 21 24 27 29
6 4 1 5 5 3 3 2 4 5 3 0 6 7 6 7 5 5 6 7 6 5 4 9 13 13 13 15 13 11 10 8 10 12 12 12 15 19 24 27 29 30 30 33
5 1 4 4 6 6 4 2 2 5 6 1 5 4 6 4 5 7 7 3 3 5 6 2 5 9 8 9 8 8 9 10 10 12 15 18 20 23 26 30 29 29 35 36
4 4 5 6 4 2 4 2 2 4 2 2 4 2 5 6 3 5 4 0 3 3 4 4 5 5 5 4 5 8 9 7 9 12 15 17 20 24 28 30 32 31 29 31
2 3 6 7 2 1 6 4 2 1 2 3 8 4 6 5 3 1 3 4 3 6 5 0 1 5 6 5 9 13 13 14 17 20 22 22 23 24 28 30 29 27 30 29
2 3 3 2 3 2 6 3 5 4 2 3 3 3 5 3 3 2 2 2 6 3 7 6 7 10 13 14 15 17 18 20 22 22 22 21 23 27 31 33 33 34 33 29
6 4 5 3 5 6 9 6 3 5 5 4 3 1 6 5 3 3 4 4 5 7 6 3 8 11 15 17 17 17 17 21 22 19 18 21 25 29 34 36 38 37 33 26
4 5 5 6 1 2 3 4 4 2 1 5 5 3 2 4 5 6 6 6 7 8 6 6 8 9 11 15 17 18 17 24 24 21 21 22 25 29 34 37 38 36 24 11
3 3 5 2 2 1 2 4 2 5 2 3 3 4 5 4 8 9 8 8 7 7 7 6 5 6 12 18 19 18 16 19 22 19 20 26 32 36 38 39 35 29 14 10
1 2 1 4 2 5 6 4 4 4 2 3 5 6 3 7 10 8 5 6 8 8 8 7 7 7 12 15 16 17 19 20 22 19 22 28 34 36 37 38 28 16 11 10
2 2 5 2 4 1 4 3 4 3 3 3 2 6 4 4 2 5 3 6 7 8 7 7 13 14 14 16 18 18 20 20 23 19 25 32 35 34 35 23 14 12 7 0
2 4 3 4 1 1 2 3 3 4 4 2 3 6 2 5 4 5 2 5 6 6 8 10 18 18 18 25 25 22 22 23 18 22 29 31 30 30 22 7 4 3 3 5
1 2 3 8 5 4 3 2 4 5 3 6 2 5 5 4 5 1 4 6 7 8 9 8 12 13 20 28 28 23 22 18 19 24 24 24 26 21 11 7 7 7 8 6
5 2 5 5 6 4 5 4 4 5 3 3 10 16 18 14 7 6 7 7 8 8 8 7 8 14 23 26 25 21 19 17 22 21 18 18 17 10 9 10 10 14 13 12
3 2 4 5 8 7 11 11 7 8 8 6 15 9 11 9 7 6 7 7 8 9 8 8 7 12 17 18 21 17 18 23 19 13 13 12 10 11 11 15 17 20 23 22
3 3 0 4 3 4 8 12 10 9 7 11 14 15 10 4 2 6 9 11 10 8 8 8 8 12 14 18 17 20 22 19 12 11 12 13 14 13 12 15 15 16 19 21
0 3 2 5 3 8 8 6 5 4 5 6 6 11 2 2 6 9 11 8 7 5 6 8 10 16 19 19 19 19 15 12 8 10 13 17 18 17 17 16 15 15 15 14
5 4 2 3 4 2 8 2 6 7 8 10 7 6 4 6 7 8 7 5 4 6 7 9 15 18 20 23 20 10 6 6 7 6 7 12 15 16 14 14 15 15 13 15
4 5 2 3 3 5 9 8 1 4 7 3 2 4 4 7 6 5 9 8 7 8 19 21 15 18 25 24 8 1 1 1 3 10 11 13 12 13 15 16 14 13 14 15
5 5 3 1 4 5 7 3 1 2 6 0 1 12 18 8 9 8 7 5 7 18 20 19 16 22 24 16 8 11 9 8 8 11 11 11 13 14 14 13 14 15 13 9
1 1 6 7 5 8 8 5 1 2 3 4 4 13 8 5 3 5 6 8 14 18 17 15 18 19 17 13 13 12 10 11 10 11 11 13 14 13 12 14 13 13 11 15
4 3 4 2 3 8 3 1 1 7 1 8 10 1 0 6 4 5 9 11 17 16 18 17 17 16 14 15 11 11 14 17 12 9 11 12 13 13 12 11 12 14 13 18
4 7 3 7 6 5 4 7 10 5 7 5 2 7 6 2 5 10 10 10 17 18 18 17 14 14 16 13 12 14 18 15 10 9 10 11 13 12 10 10 14 15 16 19
4 3 4 3 6 7 12 13 6 6 6 9 7 3 2 7 10 12 11 9 13 18 18 16 13 15 16 15 14 17 16 10 10 10 10 11 12 11 10 12 13 14 17 19
6 3 4 6 14 10 8 5 6 6 5 1 5 7 8 7 10 8 8 9 17 19 22 18 14 17 16 18 19 19 13 12 13 12 10 10 12 13 14 14 13 15 13 15
5 6 4 13 9 6 8 3 3 4 4 3 9 7 9 7 8 10 10 16 19 21 25 18 14 16 20 17 16 17 11 12 14 13 11 11 14 14 12 12 16 13 14 15

GFSCGP_925_spd_009.txt.gz
Wind_Speed
6 8 4 2 1 3 3 2 2 3 2 5 3 6 9 10 9 8 6 6 7 6 3 3 4 4 8 10 12 13 12 8 9 7 8 8 9 13 18 19 22 23 24 24
6 4 0 5 4 2 2 3 2 3 1 1 5 4 4 9 6 5 7 8 7 6 4 3 5 6 6 8 6 3 1 4 7 9 10 11 14 14 17 19 23 25 27 28
5 0 2 2 4 4 1 2 2 3 6 2 4 2 6 4 5 5 6 4 4 6 6 4 5 7 9 8 6 6 6 7 9 10 11 11 12 13 14 19 23 25 23 22
5 3 3 3 3 1 2 2 4 3 1 1 4 3 4 5 3 2 2 3 3 4 5 8 8 10 8 9 11 16 16 14 14 14 14 15 10 12 14 18 21 28 28 29
0 2 4 5 2 1 2 1 1 1 3 2 5 0 2 3 2 2 3 3 4 6 7 8 10 12 15 16 17 15 14 16 17 18 17 15 13 12 16 20 26 29 29 30
2 2 3 2 2 1 4 2 3 2 2 2 1 2 2 3 5 4 2 5 8 8 6 8 10 10 12 13 13 13 13 14 17 17 16 16 17 19 21 27 31 33 33 31
5 3 4 3 4 3 8 3 1 2 3 1 1 1 2 7 7 5 6 7 8 8 9 8 8 8 9 11 13 15 17 16 19 19 18 19 21 23 27 30 30 32 31 28
3 1 4 5 2 2 4 2 2 1 2 4 2 0 3 5 6 6 9 7 8 8 6 5 2 1 4 8 13 15 16 18 21 22 21 20 23 27 28 27 30 31 27 19
2 2 3 4 2 2 1 5 1 5 1 2 3 1 5 5 11 10 8 8 8 8 6 3 2 5 7 12 20 21 19 18 18 20 18 19 23 27 26 29 29 25 19 6
1 2 2 3 1 6 4 4 1 3 2 3 4 4 3 2 4 2 4 6 6 6 9 10 13 15 12 13 16 16 14 14 15 16 15 18 23 24 26 28 25 18 7 3
1 1 2 1 4 1 2 2 5 3 1 2 3 5 5 5 3 1 3 0 3 6 8 9 14 16 13 11 14 14 13 14 15 14 20 23 23 23 23 18 15 7 2 4
1 2 1 2 1 1 1 3 3 2 2 1 0 7 3 6 3 2 5 3 4 6 8 11 13 12 8 12 15 16 14 15 14 19 19 16 17 19 15 11 8 7 7 6
2 2 2 2 2 2 1 2 4 4 2 7 3 6 2 6 5 6 4 6 8 11 11 10 13 11 14 16 16 15 15 13 18 17 14 13 16 14 9 9 10 11 11 9
4 2 4 4 3 2 4 4 5 4 4 4 12 18 21 18 15 8 7 6 11 12 10 8 8 13 14 13 13 14 14 16 16 11 8 8 10 9 10 11 12 12 14 13
2 3 3 4 8 5 10 12 11 12 12 7 13 15 19 15 11 7 6 11 13 13 10 9 9 10 12 14 14 13 15 16 12 8 8 9 9 8 12 11 13 13 13 14
2 2 1 3 5 4 8 14 12 13 13 13 18 20 17 11 3 5 11 12 12 9 6 7 9 11 11 14 15 16 15 10 9 6 5 5 7 10 13 14 15 14 14 14
0 3 1 3 5 8 7 4 4 3 5 4 6 8 5 4 4 13 15 11 5 4 5 9 11 12 13 15 16 18 14 10 6 3 6 8 11 12 11 12 14 15 14 13
4 3 1 2 4 1 3 2 5 7 13 8 8 6 5 8 14 11 8 5 5 7 9 11 14 16 15 16 18 15 7 7 6 6 8 10 11 11 12 14 14 13 13 14
3 4 2 2 3 6 11 6 2 4 7 3 4 8 12 16 12 2 5 4 2 10 17 15 16 15 14 16 14 8 9 8 9 9 10 10 10 12 12 12 13 13 13 12
4 3 1 2 3 5 4 1 2 3 6 3 8 15 21 13 12 6 3 8 15 17 17 19 17 13 13 14 12 11 14 11 12 9 10 10 11 11 11 12 12 11 11 11
1 1 4 6 5 8 6 4 2 2 3 4 9 14 9 5 2 4 7 15 17 20 22 21 15 13 13 14 13 12 9 10 11 12 11 11 10 11 10 11 10 11 13 11
3 3 4 2 4 7 2 2 1 3 6 9 9 5 7 6 6 7 11 13 19 21 22 20 14 16 16 14 12 11 12 12 12 13 11 9 10 11 11 11 11 12 12 13
4 5 2 7 6 2 3 8 3 2 2 4 3 1 4 1 7 11 10 14 18 19 20 17 16 18 17 14 11 13 16 15 14 11 9 8 10 11 11 11 12 13 13 13
3 4 4 1 7 12 9 3 4 2 3 3 2 2 5 8 10 13 12 12 16 19 19 20 18 18 18 14 14 14 16 15 12 10 8 7 8 11 12 11 11 11 13 14
5 4 4 6 15 10 2 2 3 4 4 3 6 7 8 10 12 12 10 14 16 17 20 20 19 18 16 15 16 14 14 14 10 10 8 7 7 9 11 9 9 10 9 11
5 7 4 6 8 4 5 4 2 5 3 1 5 8 12 12 11 13 15 16 15 18 20 22 21 17 15 14 13 12 10 9 9 9 6 5 7 7 8 10 11 9 10 12

GFSCGP_925_spd_012.txt.gz
Wind_Speed
4 3 6 7 6 4 1 1 3 3 4 9 1 2 8 8 6 6 4 5 8 9 6 5 7 7 5 5 4 4 4 3 1 2 4 5 5 8 9 9 10 13 13 15
4 7 5 4 4 1 2 3 2 1 1 5 2 3 7 9 9 8 9 10 10 11 11 12 12 13 13 11 8 6 5 5 4 3 4 5 8 7 10 8 13 13 16 16
3 6 2 1 5 4 2 2 4 5 6 3 3 6 6 6 8 9 10 11 11 10 10 9 11 11 10 9 8 8 9 9 9 7 6 6 7 9 9 14 15 17 18 18
7 3 2 2 4 7 2 2 8 7 6 3 3 4 4 4 7 7 8 9 8 8 8 8 7 8 10 12 12 11 10 9 9 10 8 8 8 10 11 13 15 20 20 21
4 4 4 4 4 5 5 8 5 3 6 4 3 6 8 4 6 5 6 6 8 8 7 8 9 11 12 11 10 8 8 9 8 7 9 10 10 11 13 16 19 21 21 22
7 2 4 5 2 2 5 3 2 1 2 4 2 5 6 2 4 5 7 7 7 7 6 8 8 8 8 8 6 5 7 6 8 9 8 7 10 14 17 21 24 24 27 26
4 5 2 6 4 4 8 3 2 2 3 1 1 6 7 5 7 7 6 7 8 8 7 5 4 4 5 6 8 9 10 10 10 8 8 10 13 16 19 23 25 29 29 27
2 4 8 9 5 5 6 6 3 3 2 3 4 3 7 6 6 7 7 7 7 7 6 5 5 5 6 7 8 9 10 12 11 11 13 13 15 18 22 24 28 28 27 24
2 3 3 6 5 4 3 4 1 2 1 3 1 4 8 6 6 6 6 5 5 4 3 5 6 7 9 9 8 10 13 16 15 13 13 14 16 19 22 24 24 23 21 18
2 2 1 1 3 7 4 3 1 2 2 4 3 7 6 10 4 3 3 1 1 2 4 7 10 10 11 10 10 13 14 14 11 12 11 13 16 17 18 20 20 18 14 9
3 3 2 3 2 2 3 2 2 1 2 3 4 6 4 3 2 2 5 5 4 5 8 10 12 12 10 8 12 15 13 11 11 10 13 15 15 14 15 15 14 13 11 9
4 1 1 1 2 3 2 1 0 2 2 2 4 7 3 2 3 3 10 3 5 7 10 9 10 10 9 11 13 12 13 13 14 15 17 15 13 14 15 14 13 12 11 9
1 0 2 3 4 3 5 2 1 1 1 9 4 4 3 2 8 11 9 8 6 10 12 11 12 10 11 14 13 13 13 13 15 17 17 14 14 15 14 14 14 14 13 13
1 2 4 4 6 4 6 7 7 9 5 8 13 18 17 14 14 12 9 5 11 12 11 10 10 11 12 11 12 13 14 15 18 16 16 17 15 12 13 13 13 14 14 15
2 3 3 7 10 13 12 13 12 15 16 11 16 16 16 15 14 11 4 11 15 12 10 10 10 13 14 12 14 14 18 18 15 14 16 14 9 10 12 15 16 16 16 16
2 1 3 3 7 11 13 16 15 13 14 14 16 16 7 9 7 5 12 14 12 8 8 9 14 13 12 15 14 17 20 19 13 15 12 8 10 12 14 14 16 17 17 16
1 2 1 3 8 13 6 3 2 4 4 8 11 10 7 6 9 12 14 10 5 6 10 12 12 14 16 16 15 19 19 15 14 14 10 9 12 13 14 16 17 16 16 15
4 3 1 2 4 3 3 6 9 13 14 9 10 4 6 8 15 14 4 4 2 9 12 13 16 18 19 16 18 18 19 16 15 15 12 11 12 12 15 16 15 16 16 16
2 3 3 2 4 14 12 4 3 3 13 4 4 9 15 19 16 7 4 3 9 12 17 18 20 22 21 17 19 19 19 18 17 15 13 12 11 12 14 14 15 16 16 16
4 4 2 3 3 4 4 4 4 3 9 2 9 16 19 18 8 2 7 12 12 16 18 20 22 23 20 19 21 20 21 19 16 14 13 12 11 11 13 14 15 15 16 17
3 2 4 6 6 7 5 3 2 4 4 11 9 10 6 1 5 10 11 12 14 17 19 20 22 22 22 22 23 21 21 17 15 12 11 12 11 11 12 14 15 16 17 17
3 4 4 2 4 6 2 3 4 7 9 3 3 1 2 6 6 7 10 13 17 18 20 22 23 24 25 24 22 22 21 18 14 15 15 12 10 10 12 14 16 17 18 16
5 5 3 7 6 4 10 14 8 5 4 3 4 5 4 6 9 11 12 14 18 19 21 23 23 25 25 25 22 21 22 17 15 14 14 12 10 11 12 14 17 17 16 14
4 6 4 5 11 13 10 13 3 1 3 3 2 2 4 9 11 13 13 17 19 21 22 21 23 24 25 24 20 18 16 16 14 16 13 12 11 11 14 14 14 14 13 11
6 4 10 13 15 14 6 6 5 3 3 4 4 4 7 10 13 15 15 19 20 21 20 20 21 24 25 22 19 19 12 12 15 13 12 10 9 10 12 12 11 11 10 9
10 14 6 5 7 5 5 2 3 5 4 1 5 7 9 13 14 19 18 21 21 21 20 21 24 25 25 21 18 11 11 11 11 10 8 7 8 8 9 11 12 8 7 9

GFSCGP_925_spd_015.txt.gz
Wind_Speed
6 11 4 10 7 8 5 4 5 5 5 6 5 7 3 4 4 5 6 5 5 7 12 10 6 8 9 6 5 5 6 3 1 2 4 5 6 9 11 10 9 11 11 13
9 5 5 2 2 3 4 5 1 1 2 6 5 5 5 6 6 6 7 8 10 11 12 12 14 15 13 10 8 7 5 4 3 3 4 4 7 9 10 10 10 13 12 16
9 9 2 4 1 7 3 7 6 10 8 10 9 9 10 8 10 10 11 12 12 13 11 10 12 12 11 10 8 8 7 6 7 6 5 7 10 11 15 14 18 16 18 19
5 4 0 2 2 8 8 4 8 10 8 6 11 3 9 12 10 10 11 10 9 9 8 8 9 10 10 10 9 8 6 5 6 7 5 6 9 13 15 16 17 19 21 21
5 3 0 1 5 6 6 8 8 8 9 9 10 8 10 10 11 10 8 8 8 7 7 8 9 9 9 8 7 5 4 5 6 7 7 9 11 13 15 16 18 21 20 21
8 2 4 6 4 4 7 8 6 6 4 5 3 7 9 7 9 5 8 6 5 6 6 7 6 5 6 5 5 5 7 8 8 9 9 10 12 14 17 18 20 20 22 24
7 4 4 6 9 6 8 7 4 3 4 1 4 7 9 8 7 7 6 6 6 6 5 3 2 3 3 5 6 8 10 13 12 10 13 14 14 16 17 20 21 25 25 24
4 7 5 6 5 6 5 7 3 4 3 5 8 5 8 10 9 6 6 5 5 5 4 4 4 6 8 8 10 10 13 16 17 17 16 16 16 16 18 19 22 22 24 25
3 4 5 5 5 6 3 4 3 1 1 3 5 6 9 10 9 6 4 1 3 3 3 4 7 7 10 11 10 10 13 17 19 17 17 16 17 18 19 20 21 22 22 22
3 2 1 3 4 4 7 3 3 1 3 4 3 10 7 10 8 6 4 2 5 6 7 7 10 12 11 11 10 12 16 17 16 14 15 16 19 19 20 20 21 22 21 21
6 3 5 3 2 8 2 1 3 5 3 4 5 5 8 5 4 4 6 8 8 8 8 9 11 11 11 11 12 16 16 16 16 15 17 18 18 17 17 19 19 18 19 18
6 2 2 4 4 3 3 4 4 2 3 3 4 8 7 5 2 5 9 10 5 8 10 9 11 12 14 15 17 20 16 14 15 17 19 21 19 18 20 17 16 16 18 19
5 1 3 5 6 4 4 1 2 1 2 10 7 6 3 3 9 8 10 8 6 9 13 13 14 18 16 15 16 13 14 15 18 20 21 20 20 18 17 15 14 15 17 19
2 1 3 5 8 6 8 9 9 10 7 11 12 17 14 11 11 13 13 9 10 11 8 9 12 17 14 17 14 13 16 16 19 20 19 20 18 15 13 14 15 17 19 21
3 2 4 9 11 11 12 13 14 15 15 14 16 17 16 12 11 11 7 10 12 13 13 12 13 15 14 13 15 17 16 19 21 20 20 20 16 14 15 16 17 18 19 20
2 1 3 4 7 11 15 17 18 16 11 13 14 13 9 9 8 9 14 15 13 10 10 14 13 15 16 16 19 16 18 19 19 20 21 19 14 13 15 16 17 18 19 19
1 0 2 4 10 13 6 3 3 7 8 8 10 12 7 10 13 13 11 9 8 5 11 13 14 16 18 19 20 19 19 21 22 22 21 17 14 14 16 17 17 18 18 19
4 1 2 3 5 3 6 11 14 10 9 10 9 9 10 12 12 9 5 8 6 11 12 14 17 19 21 24 25 22 23 24 26 25 20 16 15 16 17 17 17 17 19 19
2 3 2 2 5 14 12 4 6 9 13 11 6 9 14 17 13 0 3 6 11 10 16 17 19 21 25 26 28 27 25 27 28 25 21 14 16 18 16 16 16 18 19 19
4 2 3 3 3 4 3 2 4 6 11 5 7 14 15 13 10 7 13 13 13 16 18 20 22 25 25 27 28 30 30 30 28 25 19 16 17 16 14 14 17 17 20 20
3 2 5 6 5 8 8 3 4 5 3 10 10 10 6 7 5 11 12 12 16 17 21 22 24 24 26 27 29 29 31 29 28 24 16 16 15 15 13 14 17 19 21 19
7 6 4 4 4 6 3 6 3 7 15 8 3 3 9 8 10 9 10 13 17 20 23 25 25 25 26 27 28 30 31 31 28 21 15 13 12 11 14 15 18 18 20 16
4 7 4 8 5 9 6 10 6 5 6 3 1 6 9 8 9 11 12 14 20 24 26 26 25 25 25 27 28 29 29 25 24 22 15 13 11 12 14 15 17 18 16 13
6 9 6 8 7 12 12 9 5 5 1 4 3 11 6 9 10 13 14 17 22 25 26 25 24 24 26 27 30 27 23 20 17 18 17 14 13 9 14 14 16 13 13 12
7 7 9 13 17 13 8 6 8 4 2 5 8 6 8 10 13 16 16 21 23 25 24 25 24 24 25 28 27 24 17 14 18 16 16 14 12 11 12 14 11 12 9 6
10 15 10 10 10 2 5 4 6 4 6 2 5 8 10 15 16 22 20 23 24 24 27 26 26 26 26 26 22 17 12 14 14 15 13 12 10 10 9 11 12 11 10 11

GFSCGP_925_spd_021.txt.gz
Wind_Speed
6 5 4 4 3 4 5 4 9 5 6 2 3 4 5 5 3 4 10 19 16 17 18 30 34 32 31 27 26 22 19 15 15 12 10 9 11 8 9 10 11 10 10 12
3 4 4 1 2 3 5 7 6 4 4 3 3 5 4 7 4 12 17 15 14 14 15 22 29 28 27 26 23 19 15 15 15 13 13 11 13 13 12 16 16 15 16 14
6 3 2 4 7 9 9 6 5 3 6 3 3 2 6 6 12 18 14 14 13 15 14 13 22 24 23 22 20 17 14 12 10 10 7 8 10 11 17 19 19 19 15 16
7 3 4 5 8 7 5 6 5 6 5 2 4 1 2 8 12 15 14 11 11 13 12 15 20 19 17 18 16 12 8 6 7 7 8 7 7 9 10 13 12 13 17 23
2 5 7 9 4 4 2 2 3 3 4 3 7 3 3 8 11 12 11 13 11 10 11 9 19 17 14 12 10 8 11 7 2 6 6 5 5 8 10 11 12 17 22 24
5 5 4 4 4 2 5 4 6 4 2 2 7 4 2 5 11 7 8 9 10 10 9 14 22 18 13 9 7 6 8 13 17 9 9 9 9 10 11 12 16 20 22 19
3 4 3 2 4 1 3 6 4 4 4 3 4 6 2 6 10 16 13 10 9 9 8 7 14 15 14 7 7 8 9 10 10 10 10 10 9 9 10 12 15 18 16 15
5 2 5 6 5 2 4 4 4 1 1 4 3 3 1 10 14 14 12 10 8 8 7 7 9 8 12 13 9 5 3 5 7 9 9 10 12 11 8 10 16 14 8 11
4 3 4 6 3 3 5 5 1 5 2 3 1 3 5 8 8 9 7 7 8 7 6 7 13 15 14 11 10 8 7 7 10 10 10 10 11 11 12 15 9 5 12 20
5 4 2 3 1 3 5 2 5 4 2 2 3 4 3 5 4 3 3 6 7 8 11 8 15 18 15 13 10 9 7 5 6 7 9 11 14 16 14 6 4 10 17 17
4 4 3 2 4 4 4 2 4 2 4 4 1 3 3 5 4 3 6 7 9 9 8 7 13 13 14 14 12 13 5 6 8 8 10 13 13 11 8 7 8 10 12 12
3 4 3 3 2 2 0 3 4 4 3 1 4 5 3 9 11 8 8 9 6 7 7 9 12 14 15 14 15 15 7 11 6 8 14 13 12 13 10 12 10 8 8 11
3 2 3 4 4 4 1 4 4 5 3 5 5 5 2 5 8 4 8 8 6 7 8 8 15 15 16 16 16 8 14 15 11 15 16 13 18 20 15 12 6 5 8 10
2 2 5 5 3 1 2 5 4 6 3 3 6 7 9 5 4 8 7 7 6 7 7 7 10 15 15 14 14 15 17 18 21 18 13 13 19 23 14 10 7 10 8 10
3 3 4 4 5 4 3 5 7 5 5 4 7 4 8 7 8 7 6 6 9 9 9 8 6 14 16 13 16 17 22 25 27 11 23 25 24 20 12 17 21 15 9 9
4 1 2 1 6 7 4 7 8 8 2 3 5 4 7 6 7 8 5 7 8 7 5 5 8 13 15 15 15 21 20 22 21 25 27 29 26 15 23 22 11 11 9 2
3 4 3 2 4 5 4 4 5 4 3 3 3 1 7 10 9 7 7 6 5 5 5 6 10 16 18 15 17 17 19 22 23 27 20 25 25 19 15 14 14 14 5 6
4 3 3 2 4 2 5 2 5 6 4 6 8 9 11 6 6 7 6 5 6 6 6 9 16 17 17 12 16 18 18 20 23 18 21 22 22 21 17 12 10 3 8 11
4 4 3 3 1 6 5 3 4 4 3 6 6 6 7 4 5 4 4 3 3 6 12 10 16 15 13 15 18 17 18 19 19 16 17 19 20 19 16 9 8 5 9 6
7 6 4 2 4 6 6 5 5 1 3 4 6 6 4 5 2 4 6 6 8 7 14 14 16 18 17 20 20 18 17 16 15 17 17 16 18 16 15 8 4 8 6 5
3 1 5 3 3 7 8 5 4 5 6 2 6 5 3 1 4 5 7 7 7 13 13 16 19 15 18 24 27 20 12 14 15 15 17 19 19 19 11 13 15 12 3 6
7 7 4 3 3 7 7 4 8 6 4 6 6 4 3 2 5 5 3 6 10 10 14 16 15 19 24 27 19 13 14 14 16 15 17 19 19 20 16 13 10 6 6 8
2 7 6 8 6 7 4 6 4 4 6 4 6 5 4 5 4 3 4 6 8 10 14 11 18 21 22 17 13 12 12 15 12 14 16 17 19 17 13 15 10 8 9 11
3 6 3 4 6 6 6 6 6 7 7 7 5 5 4 3 3 4 4 7 12 15 15 19 20 16 16 14 12 13 14 11 10 12 15 16 15 14 13 13 10 11 14 14
5 3 1 3 3 4 8 9 8 8 7 5 5 4 3 4 4 5 5 9 12 15 18 19 20 19 15 16 19 18 17 13 8 12 13 13 15 14 12 9 9 14 14 14
3 5 3 5 4 4 4 6 8 7 5 6 4 5 5 11 6 10 7 12 16 17 20 20 21 19 14 19 22 21 13 9 9 9 11 13 14 13 9 10 11 13 14 14

GFSCGP_925_spd_024.txt.gz
Wind_Speed
6 5 3 6 5 4 5 5 7 2 1 4 5 3 3 3 9 11 15 14 16 15 16 26 34 36 36 34 31 25 22 16 13 11 15 15 19 23 19 16 12 11 10 12
6 3 5 5 6 7 5 8 4 5 7 4 6 5 5 7 7 16 19 15 15 13 13 20 29 31 32 27 25 22 20 18 17 16 15 13 10 14 15 10 10 11 12 14
6 4 2 6 6 7 5 5 3 2 3 3 8 5 6 7 14 11 9 10 13 14 13 11 21 27 25 22 19 19 17 15 12 10 9 8 7 7 8 10 11 14 15 17
4 5 7 6 5 1 2 3 3 2 4 2 3 1 5 6 9 7 8 8 10 12 10 13 19 22 21 17 16 13 11 10 10 8 7 7 7 6 6 6 8 12 17 20
2 5 7 6 0 1 3 2 1 1 3 4 6 6 4 6 10 9 7 9 8 9 11 9 17 19 15 13 12 12 12 9 6 6 7 7 9 8 4 4 9 14 17 18
4 3 3 2 3 0 1 2 7 4 3 3 5 5 4 4 7 8 5 7 9 7 7 12 19 17 14 10 10 10 12 11 7 6 6 5 6 5 5 8 12 14 14 12
5 3 4 3 4 6 8 5 3 4 4 3 5 5 1 6 8 9 9 7 7 7 8 8 11 12 9 6 7 8 9 13 10 9 7 5 4 3 5 8 9 9 7 4
4 3 4 6 2 1 3 5 5 4 2 3 5 3 1 5 14 10 9 7 6 7 6 5 6 9 10 9 7 8 9 9 7 6 7 5 4 4 5 4 5 5 4 4
4 1 1 1 1 2 3 4 4 6 3 3 1 3 2 6 9 9 8 7 4 7 7 9 17 17 14 13 10 7 4 3 4 5 4 2 4 6 5 8 10 10 8 8
3 4 2 2 4 6 5 2 4 4 2 1 3 2 4 5 6 6 7 8 9 9 9 8 14 14 12 10 9 7 3 6 5 3 3 9 11 11 13 13 14 13 12 9
2 4 4 4 2 1 4 3 5 4 3 4 2 4 4 7 5 8 8 9 7 7 7 6 12 13 12 9 9 7 6 3 3 9 10 11 14 12 14 17 19 18 15 11
2 5 3 1 3 2 2 3 4 4 2 2 3 4 4 10 9 9 11 9 7 7 6 10 10 10 11 9 10 7 4 8 11 12 14 16 10 12 15 17 22 19 14 13
2 2 3 6 6 5 3 1 5 6 3 5 5 5 7 2 6 6 8 7 7 7 6 5 10 10 12 12 9 4 9 13 14 17 18 13 18 21 23 24 22 17 15 10
2 3 5 6 4 3 3 2 4 5 3 3 6 6 4 5 11 7 7 7 7 6 5 4 7 9 10 7 8 8 13 13 14 15 17 18 21 22 22 19 13 18 18 19
3 3 1 2 4 2 1 2 2 4 5 5 6 6 4 5 7 5 7 7 6 5 5 5 5 7 9 9 9 9 10 13 14 15 12 14 18 19 18 18 21 20 18 13
3 1 2 1 5 6 3 5 5 4 3 4 6 3 4 5 4 4 6 6 5 4 4 4 5 7 11 13 7 9 12 12 12 12 10 12 15 17 18 19 22 17 13 6
3 4 3 3 4 5 5 6 3 1 3 4 5 5 5 3 5 5 5 5 4 1 4 5 7 11 9 9 9 9 9 10 10 3 8 15 21 24 23 21 18 12 5 2
4 4 3 2 3 1 5 5 5 6 3 8 9 7 6 5 4 5 4 4 4 4 4 6 9 9 8 8 10 9 10 7 3 7 12 16 19 21 19 19 13 5 2 4
4 5 3 3 3 5 2 4 5 6 5 6 9 8 5 7 5 2 3 2 2 3 6 7 9 6 6 9 13 13 9 4 6 10 13 15 15 17 18 14 9 4 8 1
6 6 4 3 4 6 5 3 6 5 4 7 8 8 6 6 2 3 5 2 4 3 6 7 6 5 10 15 17 12 4 6 8 10 12 13 13 14 13 12 11 11 4 3
2 3 5 2 2 7 7 4 4 5 7 7 8 7 7 5 5 3 1 1 0 6 7 6 7 11 15 12 8 6 5 7 10 10 10 12 12 14 14 9 8 6 4 4
7 7 4 3 2 8 7 4 7 6 4 6 6 6 6 5 4 3 5 3 7 8 9 8 12 14 11 8 9 3 7 11 11 8 9 12 13 10 10 4 4 8 4 4
2 7 5 9 6 5 6 5 4 7 6 7 7 5 6 6 4 5 4 7 9 10 9 10 12 11 12 5 6 9 13 11 8 7 8 9 8 9 11 5 4 5 5 7
4 5 3 3 5 8 6 2 3 3 5 6 5 6 6 3 4 6 5 6 8 8 9 11 11 13 11 6 9 13 15 13 9 7 9 8 9 10 7 2 5 7 8 9
5 4 5 4 3 3 3 2 6 6 7 7 7 6 5 8 6 6 4 6 6 6 9 12 12 14 11 12 14 17 16 10 8 8 8 10 7 8 5 1 3 8 10 10
4 7 4 6 6 4 5 7 7 7 6 6 6 8 9 11 6 7 6 4 5 9 13 13 16 18 15 17 21 16 11 12 12 12 8 8 6 7 5 3 7 9 9 9

GFSCGP_925_spd_027.txt.gz
Wind_Speed
4 6 0 3 1 3 2 2 3 3 1 5 3 6 8 3 9 9 8 11 10 11 7 17 24 27 26 20 16 10 11 12 15 18 16 16 20 16 15 13 10 10 10 12
7 2 0 7 5 5 5 6 3 1 5 6 6 8 11 8 5 6 12 12 11 8 9 17 29 31 27 23 22 19 18 16 14 13 14 11 11 11 9 7 6 7 8 11
4 3 5 6 6 8 4 4 3 3 4 6 5 5 7 6 10 10 8 8 8 11 11 9 18 24 23 23 21 20 18 14 11 9 8 10 9 5 4 4 6 8 10 14
5 5 5 6 6 4 2 1 3 3 4 3 3 2 4 4 7 7 6 6 8 9 9 13 14 21 22 22 20 18 16 13 10 7 5 5 5 7 6 5 5 6 11 15
2 3 5 6 1 3 3 2 3 3 3 3 4 5 2 5 2 4 5 5 7 8 11 9 16 23 20 17 16 14 14 12 10 8 4 5 7 6 5 2 4 10 12 13
3 1 3 2 2 1 1 4 6 4 3 3 3 4 4 6 6 6 4 4 5 6 6 9 13 16 15 13 14 13 11 9 7 6 6 7 8 8 4 1 8 14 15 14
5 4 5 2 2 3 5 5 2 3 3 4 5 3 5 5 5 6 7 7 7 6 5 4 7 11 11 13 13 9 8 9 7 6 6 5 4 3 3 8 12 14 15 16
4 4 3 5 2 3 3 4 4 5 3 3 5 2 4 1 10 11 8 9 6 6 5 3 7 12 14 13 8 7 9 7 7 7 7 5 2 6 9 12 14 15 16 17
4 1 2 0 1 3 1 3 3 6 3 3 2 2 6 2 11 10 12 9 7 6 7 7 13 13 14 10 5 2 2 6 8 6 3 4 9 11 14 14 15 17 18 17
5 3 1 3 3 3 4 4 3 4 2 1 3 3 4 8 7 8 5 8 7 7 7 6 12 11 8 6 4 3 3 4 2 4 10 11 12 14 16 17 19 20 20 21
3 4 4 2 3 1 4 2 6 5 3 4 1 5 5 10 8 8 6 7 10 9 7 6 10 9 6 5 4 1 5 3 5 8 11 14 16 18 16 18 21 22 23 17
2 5 3 1 5 3 1 3 4 4 2 1 3 5 3 6 9 10 11 8 6 7 6 6 7 7 5 3 1 7 1 4 7 10 12 13 11 14 18 21 22 24 20 16
2 2 3 6 6 5 1 2 5 6 3 4 4 5 2 6 5 4 8 7 7 6 6 4 3 2 2 3 4 1 4 4 5 5 8 12 14 15 17 19 21 21 21 20
4 3 5 6 4 3 3 3 4 5 3 3 6 4 5 4 7 6 6 7 7 6 5 3 2 1 2 3 7 4 5 6 8 9 12 11 13 14 16 17 17 20 24 24
4 3 2 3 4 2 1 4 6 6 5 6 5 7 5 9 8 6 6 6 6 5 3 1 1 2 6 8 3 5 5 7 7 9 7 8 11 14 18 22 22 23 21 14
4 1 1 1 5 6 3 5 6 5 4 7 3 5 5 5 5 6 7 7 6 4 2 2 3 7 5 4 4 3 5 6 7 7 6 8 13 17 21 20 18 16 10 10
3 4 3 3 4 4 6 9 9 5 4 7 6 8 8 6 7 7 7 7 6 5 4 4 4 1 7 5 1 4 7 9 9 5 7 12 13 17 18 17 15 10 7 3
5 4 2 2 3 2 6 3 4 5 3 3 2 7 11 6 4 6 6 7 7 6 5 2 5 8 6 1 4 8 11 12 5 5 9 11 14 17 17 15 9 6 5 6
3 5 3 3 3 5 4 4 6 7 7 7 7 6 4 4 3 3 5 5 6 6 5 7 6 6 2 5 9 10 10 4 4 7 11 14 16 16 16 12 11 7 9 7
5 6 4 3 4 6 5 3 5 4 5 9 8 8 7 7 3 5 8 5 7 6 10 7 5 2 6 8 8 5 3 4 7 11 14 13 14 15 16 13 9 8 5 5
2 3 5 2 3 8 7 4 3 5 7 7 10 9 9 7 5 3 6 5 7 10 6 5 2 4 5 2 3 4 5 8 12 15 12 12 14 14 12 10 7 7 5 5
7 7 4 3 1 8 7 2 8 6 1 7 7 8 11 6 6 5 5 6 10 7 8 3 4 6 4 6 5 6 9 15 16 13 11 10 9 7 8 5 3 5 3 1
2 7 5 9 6 4 6 4 4 6 6 6 7 5 7 7 6 7 6 7 9 7 4 3 4 5 8 6 5 9 14 16 19 15 11 9 9 8 8 6 3 2 0 2
4 4 3 2 4 8 8 4 2 5 4 5 5 7 7 7 8 8 6 7 7 5 2 3 5 7 11 8 10 13 17 16 16 12 10 10 10 9 7 4 2 1 2 3
5 5 5 5 7 4 5 6 5 5 7 7 7 6 7 8 6 6 5 7 6 3 3 5 6 10 12 10 13 17 17 11 11 11 13 12 9 7 6 5 4 4 5 6
5 7 4 6 7 5 5 6 7 8 7 8 8 5 8 10 8 9 8 6 3 2 5 6 11 12 11 16 16 18 14 12 10 14 17 12 10 8 7 6 6 5 8 8

GFSCGP_925_spd_030.txt.gz
Wind_Speed
5 7 3 5 5 4 4 3 3 2 2 7 6 5 8 4 7 6 6 7 7 7 6 11 14 19 23 22 25 20 16 16 20 22 20 18 17 14 11 8 6 5 5 8
6 4 3 4 4 6 6 5 2 2 6 6 6 8 8 8 3 4 7 7 7 7 6 14 22 24 26 25 24 21 21 21 19 17 14 10 12 9 6 5 3 4 8 12
6 1 3 4 5 8 4 4 1 2 3 7 4 4 5 5 6 8 7 5 5 8 8 6 16 23 23 25 27 27 25 22 16 10 9 9 9 8 6 4 2 6 11 13
5 3 5 6 5 3 3 0 2 4 3 3 3 3 2 3 4 4 5 5 6 6 4 5 8 14 20 18 17 16 14 12 11 9 7 7 5 7 4 3 2 6 10 13
1 2 5 7 1 2 1 5 4 3 5 4 4 4 3 6 3 5 5 5 5 7 6 7 5 12 13 12 10 11 8 8 6 5 3 2 2 3 5 1 4 7 9 13
3 2 3 2 2 3 4 5 8 5 3 2 1 4 3 5 6 6 4 5 7 5 2 7 10 10 9 11 11 10 9 7 5 4 2 2 2 3 1 4 7 10 11 14
6 4 5 2 3 3 6 5 3 3 3 4 3 3 6 5 5 9 9 8 7 6 7 7 13 17 15 9 11 12 10 6 4 3 3 3 1 2 6 9 13 14 15 18
4 4 3 5 2 4 3 5 5 5 3 3 3 3 4 4 7 9 9 8 6 6 4 5 9 10 14 13 10 8 6 5 5 3 3 1 5 8 10 14 14 16 19 21
4 0 2 2 2 3 2 3 3 6 2 3 2 3 4 5 4 7 9 7 7 6 6 6 10 12 14 12 8 7 4 6 5 3 3 6 9 13 15 16 18 20 22 25
5 4 2 2 3 5 2 5 3 3 2 3 4 4 5 5 7 8 8 8 7 5 6 6 12 12 10 9 5 2 5 6 4 4 7 9 11 14 15 16 18 20 24 25
3 4 4 1 3 3 2 2 6 4 3 4 1 5 5 12 12 12 8 7 8 8 7 6 9 8 7 6 3 5 6 3 3 7 9 10 12 11 14 15 15 16 17 19
1 5 2 2 2 2 2 3 5 4 3 1 3 5 2 6 9 7 7 7 5 6 6 6 7 7 5 3 5 7 1 3 5 6 6 6 9 10 10 12 13 16 20 22
5 1 3 6 5 4 2 3 4 5 3 5 5 5 1 3 6 4 8 8 7 7 6 4 5 4 3 6 6 2 2 1 4 5 7 8 7 8 10 14 18 23 24 24
6 3 5 7 4 2 4 4 4 5 3 4 6 4 4 4 6 6 8 7 8 7 6 4 3 3 4 2 1 3 3 2 3 5 5 5 6 9 14 19 23 24 23 19
3 4 2 1 3 1 2 5 6 7 5 6 5 7 7 9 10 7 7 8 7 7 5 4 2 3 2 2 3 4 2 3 5 8 7 5 8 13 19 23 22 22 18 12
3 2 1 2 4 5 3 5 6 5 3 7 3 9 7 2 7 7 8 8 7 6 6 6 5 2 4 4 5 2 4 7 9 10 6 6 11 17 20 20 20 18 13 11
3 5 3 4 4 5 6 9 11 6 5 7 7 9 6 4 7 8 8 8 8 7 6 6 5 4 6 6 1 3 8 11 11 7 5 10 15 18 17 17 16 11 7 6
5 4 3 2 3 2 6 2 4 9 5 8 2 4 7 4 3 5 5 8 7 7 6 5 5 6 7 4 3 7 10 11 8 4 9 13 15 16 16 16 13 12 8 8
3 5 3 4 3 6 5 5 7 8 7 8 7 4 5 4 4 3 6 6 7 6 8 6 7 8 5 4 7 9 9 7 5 10 12 14 13 16 18 20 17 14 12 10
5 6 4 3 3 6 6 3 3 3 5 7 8 8 8 6 3 6 9 6 8 9 9 11 9 6 3 6 6 5 5 7 9 11 14 13 13 16 19 19 17 13 9 8
3 3 5 2 3 8 7 3 1 5 7 5 8 7 8 6 6 3 7 6 10 13 13 10 8 3 3 3 4 5 7 8 12 16 17 15 13 15 13 15 12 11 8 6
7 6 4 3 2 7 6 4 7 6 1 6 7 8 13 5 7 6 7 8 13 14 13 7 4 1 1 6 7 6 8 11 15 18 19 15 12 14 13 13 8 3 4 4
2 6 5 9 6 4 6 4 3 2 3 5 6 6 8 8 6 7 7 7 10 12 9 5 2 1 4 6 5 8 11 15 17 16 15 11 12 14 14 14 11 7 4 5
4 4 3 2 4 7 9 6 6 5 6 4 4 5 8 8 9 8 7 7 10 8 6 2 1 3 6 7 7 9 14 17 14 12 10 12 15 12 12 10 7 6 6 7
4 4 4 5 9 5 9 8 6 5 4 4 4 5 6 11 9 9 6 8 9 6 2 1 2 5 8 7 11 13 15 15 11 11 11 16 19 13 10 9 9 9 8 10
5 7 4 6 8 4 6 4 4 7 7 7 7 6 6 9 10 12 8 10 8 4 1 1 4 7 9 12 15 15 13 13 12 13 14 17 17 12 11 9 10 11 10 11

GFSCGP_925_spd_033.txt.gz
Wind_Speed
0 3 3 3 3 3 4 3 3 2 2 6 4 4 6 3 6 8 7 7 6 5 4 5 9 12 18 19 20 20 22 11 13 13 23 19 15 13 11 10 8 7 9 11
4 3 1 4 3 5 4 7 3 3 3 4 4 6 7 5 2 2 7 8 7 7 8 11 12 14 15 24 25 19 16 12 17 22 19 13 14 10 10 8 6 7 9 12
4 1 3 3 4 7 4 5 2 3 4 6 3 3 2 4 5 4 4 6 8 12 13 13 15 14 14 17 16 16 18 21 22 17 14 15 9 10 6 5 5 6 11 14
4 3 3 4 3 2 4 1 4 4 2 2 3 3 2 1 3 4 7 9 12 13 12 14 15 15 16 19 20 20 20 19 18 14 9 6 2 3 3 3 4 8 8 10
1 2 4 4 1 2 3 3 4 3 4 2 2 2 1 0 4 8 10 11 10 9 9 11 16 18 16 22 22 21 19 16 13 8 6 3 2 4 5 3 5 9 10 10
2 1 3 2 3 4 8 4 5 3 2 1 1 3 3 5 5 11 11 10 9 8 8 11 13 15 14 12 16 17 13 10 7 4 3 3 5 5 3 4 8 10 11 13
4 3 2 2 4 3 4 4 2 1 1 3 1 2 5 4 6 15 16 13 11 10 10 10 10 8 9 11 10 12 10 7 5 4 4 5 4 3 5 7 9 12 12 14
3 0 2 3 1 4 2 3 4 4 3 1 1 4 1 2 4 14 14 14 12 11 10 9 10 10 9 8 7 9 8 6 5 4 5 3 3 5 8 12 15 16 17 19
3 1 2 3 1 1 3 2 2 6 1 1 2 3 5 1 5 11 15 12 14 12 10 10 10 8 8 8 6 7 6 5 5 6 3 1 5 8 11 11 11 12 15 17
5 3 1 0 1 5 1 7 3 2 3 3 2 4 5 4 8 12 15 16 14 11 10 9 9 9 9 7 6 5 5 7 7 3 2 4 6 5 5 9 10 12 16 19
3 3 2 1 1 5 2 2 5 4 1 2 1 4 4 8 11 16 17 16 13 11 9 9 11 10 9 7 5 7 9 7 4 1 2 2 3 5 8 8 11 14 18 22
1 4 3 2 0 1 1 3 4 3 4 1 0 5 2 5 8 9 12 8 8 9 10 11 11 10 9 7 10 12 7 4 2 3 5 3 5 6 8 10 13 18 21 21
5 1 3 2 2 1 3 3 4 5 2 5 4 4 1 3 5 10 11 8 9 12 11 9 10 9 7 8 10 6 3 3 4 2 3 6 6 6 7 11 17 20 19 19
5 3 4 6 3 1 4 4 5 4 3 4 6 4 4 6 7 7 9 11 13 12 11 9 8 8 8 8 6 4 5 4 1 4 6 6 5 6 9 14 18 20 20 14
2 4 2 1 1 2 2 4 8 8 4 6 4 9 6 9 11 10 9 12 14 12 10 9 8 10 10 8 7 8 6 3 3 7 8 7 5 8 12 17 19 19 15 10
2 3 2 3 1 3 3 5 7 8 3 10 4 13 9 1 4 10 13 15 14 13 12 10 10 10 8 8 9 9 4 2 6 9 8 6 7 10 16 17 16 14 9 7
2 5 3 3 3 3 5 9 12 6 6 8 10 10 5 5 8 12 14 16 15 14 12 10 11 10 9 11 11 6 2 5 8 8 5 5 8 14 15 14 13 12 9 8
5 4 2 1 2 1 4 2 2 12 10 13 5 4 7 2 2 5 9 15 13 12 11 10 12 11 13 12 7 2 5 6 7 4 5 7 13 13 12 13 15 13 11 10
3 4 3 3 2 6 5 3 6 6 6 12 14 6 4 4 3 4 9 11 13 12 12 13 13 14 12 9 4 4 3 4 3 5 7 12 12 10 11 14 15 13 10 8
5 5 3 3 3 5 5 2 2 3 4 1 7 7 8 8 3 5 13 12 11 11 12 13 14 13 10 5 3 2 2 3 5 7 11 13 12 10 10 12 14 13 9 8
2 3 3 2 3 7 6 2 1 2 5 2 7 7 11 6 4 1 8 9 11 13 14 15 13 8 5 3 3 4 4 4 6 10 13 14 12 10 11 13 11 12 9 6
5 6 3 3 1 6 5 3 4 3 2 2 5 8 12 5 6 7 10 12 16 17 15 12 9 7 4 1 5 5 5 7 10 13 13 12 9 9 11 11 12 10 7 5
3 4 4 8 4 3 5 4 1 2 2 2 3 3 3 6 6 10 11 13 17 16 13 8 6 4 1 2 3 4 6 10 14 14 10 9 9 11 11 10 11 10 8 6
4 4 2 1 2 7 10 7 7 5 7 5 5 6 9 9 11 11 12 12 12 12 8 7 5 2 2 4 3 5 10 12 14 12 9 8 9 13 12 10 9 8 8 8
3 5 4 4 8 4 7 7 10 7 6 5 3 4 8 12 12 14 10 11 14 12 8 5 4 3 3 4 6 9 11 12 11 10 9 10 11 12 12 10 10 10 11 10
5 5 4 5 3 3 5 5 3 3 4 4 5 6 7 13 12 13 9 13 11 7 6 5 3 2 4 6 9 11 12 10 10 10 10 12 12 12 11 11 12 12 13 13

GFSCGP_925_spd_036.txt.gz
Wind_Speed
6 6 9 14 3 4 3 4 10 8 5 7 4 7 5 7 12 13 12 12 11 10 7 7 8 11 15 19 22 22 23 19 4 12 13 10 11 10 8 7 7 6 6 5
6 6 4 5 4 4 5 8 6 5 4 5 8 6 4 5 10 10 11 11 11 10 9 9 11 14 16 19 19 19 18 17 14 12 13 11 9 6 7 7 6 5 4 5
5 5 5 6 7 7 4 3 7 5 7 2 9 8 8 4 6 7 7 7 8 10 10 10 12 13 15 18 19 17 17 16 16 16 11 10 9 8 7 6 5 2 2 1
3 3 4 7 6 5 6 3 6 10 10 7 8 8 11 8 8 8 9 10 10 10 10 12 14 16 19 20 20 20 19 18 16 12 11 11 5 6 5 6 5 2 2 3
4 6 7 5 3 2 4 4 4 4 6 5 9 7 8 8 10 11 11 11 12 13 13 13 16 20 19 16 16 16 16 14 13 13 9 6 4 5 6 5 3 4 6 7
5 2 1 3 6 1 10 7 6 3 3 7 4 7 9 5 4 11 12 14 15 14 13 15 17 17 16 14 14 14 15 13 11 9 8 7 6 5 4 2 5 8 10 11
6 4 4 3 8 6 6 6 3 3 4 6 2 6 11 3 3 9 17 18 16 14 14 15 17 16 15 14 14 13 12 11 10 9 8 7 5 3 1 3 7 10 13 15
9 6 5 2 3 1 3 4 3 4 3 1 3 5 2 1 1 6 16 17 16 14 14 15 17 15 15 14 13 12 11 10 9 9 8 5 3 0 3 5 8 11 12 13
7 4 5 3 2 3 5 4 3 2 1 3 4 4 8 3 5 10 15 17 17 16 15 15 16 15 14 12 12 11 9 9 9 9 5 3 1 2 4 5 5 7 9 13
4 4 2 4 2 6 4 9 3 3 3 4 4 5 2 6 9 12 16 17 17 16 14 13 15 14 12 12 11 10 8 10 9 6 3 2 1 1 2 4 5 8 12 16
5 3 5 3 7 6 4 4 0 1 2 2 3 1 3 2 5 13 16 17 18 16 14 13 13 13 13 12 11 11 10 9 8 6 4 3 2 1 2 4 6 10 15 19
2 1 4 6 3 1 3 6 9 4 4 1 2 3 3 1 3 8 13 15 16 13 13 12 15 15 15 14 12 13 11 9 7 6 7 4 1 3 3 5 8 13 17 18
6 3 4 5 5 5 7 9 5 4 1 6 3 2 3 3 5 8 10 12 12 13 13 13 16 17 16 14 14 13 12 10 10 8 5 3 4 4 5 7 10 14 16 16
3 3 7 10 2 0 6 11 12 11 4 5 9 10 7 8 8 8 11 13 15 15 15 14 15 17 16 16 17 14 12 11 9 6 4 5 5 5 5 8 12 14 14 13
3 6 4 2 0 3 5 8 13 16 14 8 12 11 11 7 9 10 10 12 14 15 16 15 14 15 17 17 15 11 11 10 6 5 6 6 6 6 6 10 13 13 12 11
2 3 3 3 3 3 7 10 11 15 16 15 19 20 16 9 7 8 11 13 16 15 16 16 14 16 16 15 13 13 11 8 5 6 7 6 6 6 8 12 13 13 12 12
4 6 4 2 2 3 6 16 18 13 13 15 14 16 3 7 10 11 12 14 15 16 17 16 15 16 15 14 14 12 10 6 5 6 6 6 6 8 11 12 13 14 14 13
5 5 2 1 1 3 1 1 3 13 17 15 17 13 8 5 3 4 8 12 14 14 16 14 15 15 14 14 13 10 7 5 4 6 6 6 8 11 12 12 13 13 13 12
1 4 3 2 4 6 12 3 3 4 6 5 11 11 5 3 2 8 9 10 12 13 15 15 14 14 16 14 11 7 4 4 5 6 7 9 11 12 12 12 12 13 13 13
4 3 1 3 3 3 3 3 1 2 5 6 3 4 8 7 4 3 8 10 9 13 13 14 15 15 14 11 6 5 6 6 7 6 8 10 11 13 13 12 13 14 13 13
2 1 4 3 4 6 1 2 2 3 3 6 4 6 9 7 4 3 5 9 12 14 16 18 18 15 11 7 6 6 6 7 6 7 10 11 12 12 12 13 13 14 13 12
5 6 3 3 3 4 5 6 3 4 4 5 4 5 9 5 1 1 7 11 15 18 19 17 17 13 6 5 5 6 7 5 6 9 12 12 10 10 10 13 15 14 13 11
3 3 1 6 1 3 6 5 3 4 8 7 6 5 7 7 6 6 8 11 13 16 16 15 13 12 9 5 4 6 5 6 8 11 12 12 11 10 12 15 15 14 12 11
4 4 3 1 2 6 8 8 9 9 11 11 11 10 7 10 7 8 10 11 14 14 14 10 8 7 7 5 3 4 7 8 9 12 12 11 11 11 15 14 14 13 12 11
2 7 4 4 9 6 2 3 6 10 9 9 7 6 8 7 7 10 11 12 13 13 8 5 6 5 3 1 3 6 8 9 10 11 11 10 11 13 15 14 14 13 13 12
1 3 2 2 6 4 7 10 10 10 10 9 6 3 3 3 9 13 11 15 14 7 4 4 2 1 3 4 7 8 8 8 9 10 9 10 12 15 15 16 14 14 15 15

GFSCGP_925_spd_039.txt.gz
Wind_Speed
12 7 12 15 15 9 4 7 11 14 11 13 12 10 13 14 13 14 14 15 15 15 15 12 12 12 14 19 20 20 19 17 15 7 10 10 9 11 9 7 8 7 5 2
7 9 7 10 3 7 6 6 7 10 11 9 10 12 12 14 16 16 15 15 16 15 12 13 13 14 16 18 20 22 19 17 11 8 9 8 13 10 9 8 9 7 5 2
1 6 5 6 7 6 7 2 8 7 11 14 9 14 15 12 12 11 14 16 15 15 14 13 15 16 16 19 21 21 18 16 13 13 14 13 11 9 9 9 8 7 3 1
20 17 6 8 7 6 10 2 1 4 12 13 17 13 19 18 16 14 14 13 14 14 14 13 16 16 18 20 20 19 18 17 16 16 14 13 13 11 9 8 7 5 3 4
3 9 9 8 4 5 8 3 4 6 12 7 13 8 18 15 15 15 15 15 14 14 13 14 15 20 21 21 20 20 18 18 18 13 11 11 6 3 4 4 4 6 7 7
2 7 3 5 3 4 4 4 6 7 10 8 15 13 5 12 14 17 13 13 14 13 14 15 19 23 22 19 17 17 18 16 15 13 9 7 4 4 5 7 5 7 7 11
12 10 4 5 6 3 8 9 8 5 4 8 4 5 12 7 4 5 13 14 15 15 15 16 18 21 20 19 17 17 17 15 14 12 10 7 6 3 1 4 6 7 11 12
12 8 12 7 9 5 9 11 5 6 7 7 8 7 3 9 2 3 12 15 15 15 14 16 19 20 19 18 18 17 17 15 13 12 10 8 7 3 6 4 6 8 9 10
15 5 7 2 3 5 6 7 5 4 1 5 10 9 9 5 6 6 13 15 16 16 16 17 19 18 19 19 18 17 17 15 14 12 11 9 7 6 4 4 4 6 7 10
4 3 4 5 5 6 8 3 3 4 3 7 4 6 5 7 7 8 13 15 16 16 17 16 18 18 18 17 15 16 15 15 14 12 9 8 6 6 4 4 4 5 8 11
7 9 7 5 10 11 7 8 6 4 3 4 4 2 8 3 6 9 12 15 16 16 17 15 17 19 17 17 16 17 17 18 14 11 9 6 7 6 5 4 4 7 9 13
4 4 7 10 5 5 10 8 9 5 6 4 4 5 4 5 3 7 10 13 14 15 17 15 18 18 18 19 20 19 18 16 12 11 7 8 9 6 5 5 6 8 12 14
6 7 9 7 6 7 8 9 8 8 2 9 4 3 6 7 3 5 8 12 14 16 17 15 16 17 19 20 19 19 18 13 12 7 8 11 9 7 7 8 8 10 13 14
1 11 9 10 9 5 12 12 11 12 8 10 12 13 6 9 8 7 8 10 14 15 14 15 14 17 19 19 18 18 15 13 12 9 12 8 7 8 8 8 9 12 14 14
4 10 12 14 5 7 9 9 10 16 17 15 12 15 12 9 6 8 8 10 12 13 14 15 15 15 19 18 19 18 13 13 12 11 9 6 7 7 8 8 11 13 14 14
5 6 3 6 9 9 12 14 14 15 16 17 19 18 16 11 9 6 10 9 12 14 14 15 15 18 18 18 19 16 14 13 11 9 7 7 6 8 9 10 12 13 14 15
6 4 4 5 3 5 6 15 18 18 17 14 16 16 11 8 6 9 10 7 10 11 13 14 15 17 17 19 17 14 13 10 7 8 7 6 7 9 10 12 13 13 14 15
5 7 2 1 1 1 3 1 4 7 12 14 13 14 13 9 8 6 5 7 8 9 11 11 14 15 16 15 15 14 10 9 9 6 6 7 8 11 12 13 13 14 14 15
4 5 2 3 6 9 12 5 1 1 5 10 8 10 8 5 5 12 7 3 5 7 8 11 13 14 14 14 15 12 10 7 5 5 6 7 10 12 13 14 15 14 15 15
3 1 4 3 3 4 4 4 1 1 4 8 9 8 5 2 4 4 4 3 4 6 9 11 12 13 15 17 14 13 6 5 6 5 7 9 11 13 14 15 15 15 15 16
3 1 6 5 3 6 5 2 2 4 4 9 9 9 6 6 6 7 6 4 7 9 10 10 12 14 15 12 9 5 3 5 5 7 8 10 12 13 13 14 14 15 17 15
6 7 3 3 3 5 5 6 1 5 6 7 9 8 7 8 6 6 5 4 4 6 9 11 11 12 9 6 2 1 5 3 4 7 10 12 13 13 13 14 14 16 16 16
4 4 1 6 1 5 3 4 3 6 8 8 10 9 10 9 11 7 6 3 3 7 9 11 12 10 8 5 2 4 4 4 6 9 12 13 14 14 14 16 16 15 17 15
3 2 2 1 4 0 3 3 3 9 9 11 10 10 11 10 10 6 0 3 5 8 10 13 10 9 4 2 3 2 3 6 9 11 13 14 14 14 15 17 16 14 14 14
3 5 4 5 6 5 6 7 10 11 9 9 10 7 9 10 7 4 5 6 10 13 12 9 7 2 0 1 3 4 6 8 10 12 13 13 13 14 16 16 17 14 13 14
1 2 2 1 5 4 7 11 10 9 10 10 9 9 12 10 9 12 12 16 14 11 8 5 4 6 5 5 6 7 8 9 10 11 11 11 12 15 15 17 17 17 18 17

GFSCGP_925_spd_042.txt.gz
Wind_Speed
11 6 8 6 5 13 11 15 15 11 13 8 8 10 12 14 12 15 13 13 12 13 12 19 14 15 23 31 28 30 27 20 18 14 11 7 10 11 12 9 11 9 8 6
10 5 6 14 17 19 16 1 10 13 9 10 13 11 14 15 14 14 13 14 14 14 15 16 14 14 22 28 25 26 26 21 16 12 10 13 12 10 11 12 12 11 8 6
15 3 13 12 16 12 8 12 7 9 7 11 11 13 15 15 14 15 16 17 17 18 16 13 16 16 15 27 25 24 23 16 19 13 13 14 14 12 15 15 14 12 9 5
4 10 16 17 11 5 2 11 8 16 15 7 9 9 17 13 13 15 16 15 15 17 18 14 17 16 14 20 20 23 23 21 18 17 18 19 16 16 16 18 16 15 9 5
4 14 18 20 7 5 3 9 16 16 6 4 7 6 12 12 18 16 11 10 11 14 14 15 18 22 19 20 22 27 25 22 20 19 17 16 11 14 13 11 16 10 8 9
10 16 20 2 2 2 13 10 15 9 9 7 16 11 14 13 11 19 10 13 12 9 11 13 21 22 21 24 25 22 24 23 22 16 15 15 8 10 10 7 8 5 6 2
8 16 4 4 6 6 8 10 3 7 7 4 9 5 5 19 19 17 19 12 11 10 10 11 14 19 22 23 23 21 21 22 20 15 12 11 8 7 8 7 5 8 3 4
11 9 13 8 7 4 15 7 3 2 5 7 5 5 5 12 9 6 12 10 10 10 9 11 14 19 21 19 18 17 17 19 18 16 13 12 11 9 6 7 4 1 4 4
6 3 13 10 3 10 9 4 4 7 3 2 6 17 7 8 8 7 11 12 12 12 12 13 17 19 19 18 18 20 20 20 21 17 16 14 11 7 6 5 4 5 2 3
6 3 14 16 6 4 5 6 4 2 2 4 8 10 9 6 8 6 10 11 12 12 13 12 16 20 22 22 23 21 20 22 21 19 16 12 11 9 6 4 7 4 3 4
7 11 8 6 8 8 6 7 5 6 4 1 4 3 7 6 8 6 8 12 13 14 14 13 15 20 21 22 22 20 20 22 19 17 15 14 14 9 9 9 5 5 4 5
13 5 4 12 3 5 9 11 9 3 6 2 1 6 4 5 6 5 7 10 13 14 13 14 17 20 19 19 19 17 16 19 19 15 15 15 11 13 12 8 7 5 5 7
4 4 5 9 6 8 8 12 9 8 2 4 3 3 5 4 2 4 4 8 10 11 13 14 14 16 19 18 19 19 18 17 16 16 13 15 16 13 8 7 5 5 6 8
3 5 9 6 11 5 6 11 11 10 3 4 9 14 9 10 10 7 8 4 5 10 11 12 12 14 19 18 18 19 18 16 15 14 18 17 13 10 5 5 5 6 8 10
3 8 12 14 14 7 9 12 8 11 10 10 11 15 12 11 7 5 2 6 7 7 9 9 7 8 15 16 17 19 18 15 13 16 14 11 5 2 4 5 6 8 9 11
5 6 4 8 9 13 11 15 15 15 15 14 14 14 11 8 8 8 7 7 6 5 6 4 4 6 12 15 17 16 17 15 16 13 8 1 0 3 4 5 7 10 11 12
7 3 2 2 6 7 5 10 16 16 15 13 11 10 8 12 8 5 3 6 4 5 6 6 6 8 10 15 17 16 17 15 12 6 1 3 4 5 5 8 9 10 10 12
6 5 3 1 1 1 8 4 5 5 8 9 9 12 12 12 11 8 5 5 6 1 4 3 4 8 8 14 17 13 13 13 7 5 4 3 4 5 6 8 12 12 12 10
4 4 2 3 4 7 12 1 3 2 5 11 10 10 10 10 8 12 5 9 7 7 4 3 1 5 8 11 15 13 11 7 7 4 5 3 4 6 7 10 13 13 13 12
1 5 3 3 2 4 1 5 3 2 2 8 9 9 8 9 3 6 6 3 5 4 6 2 3 8 14 13 13 11 10 7 7 6 7 10 8 9 11 14 13 12 13 14
2 0 4 3 1 5 6 5 1 2 3 5 6 8 8 7 3 5 9 9 6 10 9 14 17 18 17 13 13 14 13 12 5 3 7 9 10 12 12 12 14 14 15 18
6 6 3 2 2 5 6 5 2 4 5 7 7 8 6 5 9 6 4 7 9 12 18 17 22 26 25 21 20 15 10 4 7 7 7 10 14 14 16 15 14 15 18 13
4 4 4 7 3 6 4 5 5 6 5 7 8 8 8 8 8 8 4 7 10 16 14 20 23 21 19 17 15 10 1 3 5 7 10 12 14 16 16 14 15 16 19 12
4 4 2 2 4 7 4 9 12 10 8 8 8 10 10 10 10 8 9 10 19 24 22 22 19 16 12 8 3 5 5 8 8 10 12 14 15 14 14 16 18 18 15 9
3 6 4 4 3 3 13 13 10 8 10 10 9 14 11 7 11 14 15 16 20 19 17 16 13 8 5 2 3 9 10 7 9 11 13 13 13 15 15 16 16 15 14 12
3 1 3 1 7 4 12 10 10 11 11 11 11 14 17 20 17 21 15 18 17 15 12 9 5 4 5 7 8 7 8 10 12 12 12 12 13 13 14 14 18 20 19 19

GFSCGP_925_spd_045.txt.gz
Wind_Speed
5 4 5 8 6 4 5 6 8 9 8 6 9 9 11 10 10 11 13 12 9 10 14 27 32 36 33 41 40 37 33 29 27 24 18 12 12 12 12 10 13 13 14 10
6 7 8 7 8 7 6 11 10 13 5 4 7 8 11 11 10 14 11 10 10 7 12 16 26 31 36 40 38 36 31 29 25 20 16 13 16 14 12 13 13 14 11 9
6 11 16 3 9 13 3 6 2 2 5 5 3 5 6 7 6 10 14 13 13 15 15 12 18 31 31 30 34 33 31 28 23 17 14 13 13 17 16 15 14 16 14 9
5 6 10 8 13 6 4 5 5 3 5 2 2 3 1 5 10 12 13 13 14 11 13 13 16 26 31 29 33 31 30 27 22 20 22 21 23 23 21 19 19 19 13 11
6 1 2 5 6 6 6 7 10 8 7 10 4 5 6 2 5 6 3 10 14 16 18 16 16 26 31 36 33 31 28 22 23 25 25 24 23 22 25 23 22 19 15 11
6 6 1 2 8 11 3 2 4 4 1 1 5 5 4 6 8 5 3 9 6 10 15 15 24 29 34 36 34 30 27 24 24 29 27 25 20 20 22 25 24 18 14 12
4 5 9 8 6 3 7 3 3 5 6 5 8 3 8 11 12 8 15 21 7 11 9 11 14 19 23 28 31 29 29 27 31 27 26 19 21 21 22 24 21 16 15 11
5 1 5 3 3 4 3 3 4 4 2 6 8 6 5 14 7 11 13 9 7 8 11 14 15 19 22 27 27 27 28 31 32 25 22 19 19 19 17 13 14 12 6 2
5 3 8 10 11 3 2 4 4 6 2 2 4 4 5 7 4 6 8 8 8 9 8 11 14 21 24 28 28 26 29 33 30 24 21 21 19 16 13 13 12 10 5 5
2 5 2 3 7 7 7 7 1 3 3 3 4 3 3 6 3 8 8 8 8 8 8 8 12 22 26 26 23 18 19 28 26 24 25 24 20 14 14 11 4 4 9 9
6 4 2 11 4 8 1 3 2 3 5 4 1 4 1 7 8 9 10 11 11 10 9 8 11 24 29 26 23 20 16 25 25 26 22 19 15 15 12 5 5 11 7 6
8 4 4 9 18 15 6 6 6 5 4 3 5 5 2 7 9 9 9 12 13 14 11 10 16 23 27 31 30 28 22 27 26 24 19 17 16 11 7 8 10 10 13 8
3 2 4 1 9 8 4 6 4 3 4 4 5 5 2 5 5 6 7 8 11 13 11 11 13 20 24 27 29 29 26 28 25 23 19 13 12 8 10 10 11 14 9 6
5 0 5 6 6 3 3 4 5 4 4 4 5 5 10 7 8 7 7 5 9 12 14 14 13 18 24 25 27 31 30 30 25 20 15 11 12 13 5 10 11 8 5 5
4 3 1 4 5 5 2 1 4 6 6 6 9 8 9 5 5 2 5 1 2 6 7 9 10 8 19 22 22 24 30 29 26 19 12 11 14 8 10 1 9 6 7 9
2 2 3 1 5 7 4 7 6 7 6 3 2 4 5 3 6 8 7 7 7 8 7 7 10 13 17 22 25 28 30 28 20 14 10 17 16 6 9 12 5 6 12 12
6 4 3 2 4 6 6 7 6 6 4 3 2 4 8 10 9 6 8 8 7 8 8 6 7 11 19 24 29 29 29 22 17 19 18 12 5 5 2 2 6 10 14 14
6 6 3 3 3 2 9 2 5 7 7 8 8 7 7 7 10 11 8 9 10 8 8 7 6 9 20 26 27 28 26 27 23 19 15 10 9 2 2 3 11 12 12 13
4 5 2 4 4 4 7 2 2 4 4 6 8 8 7 5 8 8 8 7 7 7 7 12 19 22 24 26 29 31 27 25 22 17 17 15 11 10 8 9 9 13 16 14
7 5 5 2 4 6 6 3 4 3 1 5 8 8 8 8 5 3 7 8 10 22 24 25 27 29 31 28 30 30 24 27 23 20 13 11 10 7 11 16 15 15 16 21
3 3 5 3 2 7 5 5 0 6 5 4 6 6 7 4 4 4 6 12 22 25 26 30 33 30 27 29 32 28 26 22 19 14 10 1 8 15 16 14 15 19 18 17
6 6 3 3 2 5 6 4 6 5 4 7 6 5 6 6 6 4 10 13 18 21 25 27 29 27 27 27 29 23 21 15 9 1 6 10 12 14 16 17 20 20 17 20
2 6 6 7 6 6 7 12 6 8 7 6 7 8 7 7 7 14 14 16 20 23 24 24 25 22 21 23 19 15 8 4 3 4 9 13 14 13 15 19 17 15 18 20
2 3 4 5 1 8 11 10 9 10 10 13 12 9 7 8 15 14 13 13 17 18 18 20 20 16 13 9 9 8 3 5 6 8 10 13 15 16 13 17 16 18 18 11
4 4 6 4 11 14 11 7 10 12 13 15 16 16 13 16 14 13 12 12 16 16 15 14 13 11 12 9 6 7 7 8 10 12 14 15 14 16 16 15 15 14 14 15
0 4 4 4 5 10 6 8 13 15 13 12 14 14 15 15 12 13 10 12 12 12 13 14 11 7 4 5 6 6 9 11 15 15 15 18 19 18 19 21 23 18 18 18

GFSCGP_925_spd_048.txt.gz
Wind_Speed
0 4 3 7 7 7 9 1 4 6 6 5 11 6 6 15 13 13 12 10 11 17 24 32 34 35 32 35 40 38 37 35 33 30 25 20 18 16 13 12 16 17 16 14
4 3 5 7 4 3 3 2 9 9 8 9 6 9 6 16 16 17 15 13 17 14 16 24 28 31 33 40 39 40 38 36 33 30 26 20 17 15 14 16 19 19 16 12
5 6 4 1 5 7 4 3 5 6 4 4 5 3 4 5 5 12 14 17 16 20 20 17 27 30 30 32 40 41 40 37 32 27 22 15 16 13 17 20 21 20 16 12
4 2 2 5 2 2 7 7 7 1 4 1 3 3 3 7 8 12 15 13 14 14 17 18 27 28 32 35 37 38 39 34 30 26 22 21 25 24 23 26 23 20 18 13
9 3 3 4 6 4 9 4 6 1 3 3 1 2 7 4 7 9 16 15 16 18 20 19 26 36 34 35 40 40 35 31 28 28 25 25 24 27 24 24 23 24 21 15
5 3 4 4 1 3 8 2 7 7 4 1 5 5 6 5 11 12 13 12 10 9 12 11 22 27 28 32 36 37 33 33 29 30 28 28 27 26 22 25 25 25 20 15
2 3 2 0 8 8 2 4 3 3 3 6 2 3 8 6 7 8 14 9 9 13 11 10 16 23 26 31 35 35 36 34 31 33 31 29 27 26 26 30 29 26 18 16
4 2 1 1 3 4 4 4 5 4 3 4 5 4 6 7 3 2 7 6 7 11 13 15 17 24 28 29 30 30 33 31 31 32 31 31 27 27 28 32 28 21 20 14
4 3 3 4 4 3 1 2 5 5 2 3 4 4 6 5 4 6 2 8 7 8 12 13 16 21 25 27 31 33 31 31 32 30 30 27 26 26 25 21 22 20 15 15
7 2 1 4 2 2 6 4 2 3 2 3 3 3 4 3 3 1 3 6 7 7 8 7 10 19 24 28 32 33 31 30 30 31 31 29 26 24 25 24 24 19 18 8
5 5 4 4 7 8 3 3 2 4 4 4 1 5 6 7 8 10 8 8 9 9 10 10 10 21 28 32 31 30 31 31 32 28 29 28 25 23 21 17 14 12 4 8
7 5 4 8 3 6 6 5 4 5 4 1 4 5 4 9 10 8 9 8 9 11 13 14 18 24 28 32 33 31 31 33 33 31 30 28 27 20 14 10 9 5 6 5
7 1 2 7 6 4 3 6 6 4 4 6 5 5 2 3 5 8 9 9 10 11 9 11 11 19 27 30 33 34 33 36 35 36 34 29 22 14 10 15 14 4 5 13
9 5 7 7 7 3 3 6 5 6 3 4 6 6 6 9 8 8 9 8 9 10 11 11 12 16 24 23 21 25 28 33 33 31 28 25 18 17 21 15 7 8 9 8
5 6 5 5 4 3 1 1 2 3 4 5 7 7 8 4 5 5 4 2 4 6 6 7 7 7 15 19 20 22 26 29 32 29 25 20 21 21 15 12 12 0 5 3
2 3 3 3 2 3 3 2 3 4 3 4 4 2 6 4 6 9 7 8 7 6 4 6 7 7 15 22 24 26 29 30 28 26 21 20 20 21 15 8 5 6 1 10
6 6 3 4 3 3 5 6 6 3 2 5 5 5 4 8 9 6 7 9 8 7 6 6 7 12 18 21 26 23 26 27 24 20 22 24 17 14 14 12 10 6 10 14
7 5 3 3 2 1 7 4 4 11 5 7 8 5 6 10 6 7 6 6 7 6 7 6 6 12 14 20 23 26 30 26 28 27 24 20 18 16 13 8 2 8 13 18
5 5 3 4 4 4 5 6 6 6 0 0 6 5 6 6 6 7 7 8 7 8 10 15 19 22 25 27 30 31 29 28 27 24 23 20 17 13 3 9 12 15 12 10
7 6 4 2 4 7 7 3 5 5 1 5 7 5 4 4 3 2 4 8 11 17 17 20 23 28 30 25 32 33 25 24 23 22 19 13 3 10 13 11 13 9 12 15
3 3 5 2 3 7 7 6 3 6 6 6 7 6 4 4 4 7 9 13 17 18 20 23 27 27 24 26 29 26 23 22 18 10 8 12 9 5 8 9 14 16 18 19
7 6 3 3 3 6 6 4 7 6 4 7 6 5 8 7 13 13 11 12 14 17 20 21 25 23 25 24 25 20 15 9 1 5 4 3 6 8 13 15 13 16 18 17
2 7 6 8 5 3 2 5 5 6 7 4 7 5 9 12 11 11 11 11 14 16 17 18 21 21 18 14 12 9 8 5 3 1 3 7 10 11 12 14 15 14 16 18
1 4 4 5 4 4 7 8 7 7 10 7 6 7 12 14 11 13 11 10 12 13 13 14 16 16 15 13 12 8 4 4 5 7 10 12 12 13 14 14 18 17 16 15
5 6 6 5 2 8 8 6 10 12 11 14 13 12 13 16 12 12 9 10 13 13 16 17 15 13 10 9 9 8 8 9 11 13 14 15 15 17 20 21 20 21 22 22
3 6 5 5 12 4 4 5 7 12 10 11 15 13 12 14 12 14 10 14 15 14 15 15 13 11 10 10 12 14 14 14 15 17 19 21 21 23 24 25 29 29 29 28

GFSCGP_925_spd_051.txt.gz
Wind_Speed
2 3 2 5 5 6 3 5 4 3 4 3 7 6 8 9 6 7 8 12 15 17 22 27 26 26 25 26 30 34 34 35 34 31 29 26 24 22 19 17 16 17 18 18
4 3 6 5 2 4 0 4 6 6 5 5 4 10 4 7 7 13 14 10 12 14 14 21 25 28 32 33 36 35 37 37 37 36 33 26 24 21 18 18 19 20 20 19
5 4 2 3 4 1 1 2 5 6 5 2 4 5 3 5 5 8 10 14 12 18 19 18 24 30 32 37 42 42 42 41 40 36 31 21 22 16 19 21 22 22 20 17
4 2 3 2 2 4 3 3 8 3 2 4 1 3 4 6 14 11 14 12 15 15 17 18 23 29 35 42 39 41 42 41 40 36 32 29 29 20 23 24 24 23 20 17
8 5 5 4 5 4 6 3 3 3 2 2 2 3 6 4 9 15 17 15 17 17 18 19 24 36 33 29 32 37 37 40 40 36 34 30 23 21 17 22 24 24 22 20
5 1 2 5 1 4 2 1 4 3 1 2 2 5 5 4 10 17 15 19 16 15 17 16 24 23 25 28 32 36 37 42 41 38 34 28 24 22 20 23 26 25 23 18
2 1 3 2 2 3 6 5 3 4 4 5 3 2 8 7 7 8 14 18 15 14 15 14 16 21 24 28 33 33 35 34 37 35 33 28 25 25 25 27 28 26 21 17
5 4 4 1 3 4 2 5 4 4 2 4 3 4 6 5 9 1 7 8 8 11 14 16 19 25 27 30 32 30 33 30 33 34 33 31 28 26 28 26 29 28 27 24
4 3 3 3 1 4 1 0 2 6 3 3 3 7 10 7 4 6 2 6 8 9 11 17 18 25 25 28 32 32 30 31 33 36 32 34 30 27 27 25 28 28 27 22
7 2 2 4 3 6 4 5 1 2 3 2 4 4 5 6 5 4 6 6 7 4 7 8 12 21 24 27 28 31 34 36 36 34 34 33 30 27 25 25 24 28 23 19
5 5 2 1 6 7 2 1 1 4 4 4 1 5 6 7 6 6 6 7 8 8 8 9 10 20 24 25 28 35 34 35 33 33 32 30 28 28 25 28 29 27 20 6
7 6 4 9 2 2 2 5 5 4 4 1 4 6 4 8 9 5 8 6 6 6 10 11 14 20 23 27 32 35 35 35 36 34 33 33 34 33 31 28 26 21 13 11
8 1 3 6 5 4 4 5 4 4 4 6 5 6 3 5 6 9 9 8 7 8 6 5 6 13 22 27 27 28 32 32 34 32 35 33 31 31 29 29 25 14 15 13
9 5 8 8 8 4 4 5 5 6 3 4 6 6 6 8 5 8 8 9 7 7 7 6 5 7 12 15 22 26 24 27 27 30 31 31 32 29 26 19 18 15 10 13
5 6 5 6 4 5 4 3 7 5 5 6 6 7 7 6 8 7 6 4 2 6 7 7 6 6 11 13 16 18 20 24 28 28 27 28 25 22 18 25 17 15 8 6
1 3 3 2 3 2 4 7 6 6 4 6 5 5 3 2 3 7 7 7 7 5 3 7 7 8 12 14 15 18 22 23 26 25 25 22 18 19 19 20 14 8 9 1
6 6 4 4 2 3 5 8 7 6 4 5 6 8 4 4 6 4 5 6 7 7 7 7 2 2 8 18 23 24 25 24 24 24 20 19 21 21 16 17 14 7 4 15
7 6 3 3 2 2 6 4 5 5 2 4 4 5 5 5 4 5 5 4 7 7 8 8 8 13 12 16 20 23 26 25 24 24 25 24 25 22 14 8 6 14 15 14
2 6 3 5 4 5 1 3 7 6 3 2 6 7 6 6 4 7 8 9 8 7 9 12 16 19 21 22 24 27 27 27 27 25 27 24 18 9 4 8 12 10 10 11
6 6 5 3 5 7 8 4 5 5 2 6 5 7 8 3 3 3 5 6 9 14 14 15 19 23 27 24 27 31 27 28 26 24 18 9 5 9 10 7 7 9 10 14
3 3 5 3 3 7 7 5 5 6 8 8 7 6 6 5 2 6 8 9 14 15 17 21 23 24 24 26 31 30 27 23 15 8 6 10 12 5 4 6 9 14 17 16
7 7 4 3 3 6 5 4 8 6 3 6 6 5 7 10 9 10 9 8 11 14 18 21 23 22 22 22 23 20 18 9 5 3 3 3 4 6 10 13 14 14 16 19
2 6 6 8 6 2 3 4 1 3 9 5 7 6 13 12 8 9 9 8 10 13 17 18 20 22 21 18 16 17 11 6 4 4 5 6 9 11 12 14 16 16 18 22
2 3 4 4 2 1 3 4 5 4 6 6 6 12 9 13 11 11 10 7 10 15 16 18 20 19 18 16 14 11 6 6 6 8 9 11 13 15 16 17 19 21 23 24
4 6 6 2 1 4 5 4 6 9 10 12 11 9 14 16 12 12 10 9 13 15 16 17 17 16 15 14 15 12 10 7 8 11 14 17 19 21 23 25 27 28 29 28
4 7 6 5 12 5 5 7 7 11 9 10 15 12 10 14 14 15 9 14 15 15 17 17 17 17 16 15 16 17 16 14 15 16 18 20 21 23 25 27 32 30 28 29

GFSCGP_925_spd_054.txt.gz
Wind_Speed
3 3 4 8 6 4 3 2 4 5 2 4 7 7 9 12 9 9 11 11 12 14 16 19 22 21 21 22 24 25 26 26 27 27 25 24 25 23 20 19 19 19 21 21
4 5 8 5 4 4 3 2 3 6 3 3 2 7 7 14 16 16 16 14 16 12 10 16 21 24 28 29 29 30 33 32 31 31 30 26 26 23 22 20 20 20 20 21
6 4 4 3 2 1 1 1 3 3 6 1 1 3 4 6 5 7 11 15 12 15 14 13 20 28 31 33 34 33 34 36 34 34 31 24 25 20 20 21 21 22 22 21
5 3 3 3 4 4 2 3 1 4 2 3 3 4 4 4 12 10 12 11 14 12 13 12 17 21 30 34 33 33 33 34 35 36 35 35 32 24 27 27 24 23 22 20
6 4 5 4 6 6 7 4 2 2 2 3 2 2 6 1 5 11 14 13 13 14 14 16 20 31 26 28 34 37 37 36 36 37 37 35 32 30 23 24 23 24 23 21
5 1 3 4 0 3 4 4 5 4 3 2 4 4 5 4 7 6 10 14 15 14 15 14 21 21 24 26 30 34 37 38 37 38 38 37 34 25 19 20 26 26 23 21
2 2 3 2 1 4 4 5 3 4 3 5 1 1 8 6 5 7 11 16 16 15 12 12 13 19 24 30 33 37 36 36 38 40 38 39 37 24 24 24 27 29 26 23
6 4 5 3 4 6 2 6 5 2 2 4 3 4 5 3 7 6 8 9 11 11 14 14 15 21 25 29 34 36 35 32 34 32 36 38 33 27 26 23 25 30 29 27
5 4 1 1 0 3 3 2 4 6 2 2 3 6 10 3 2 5 5 2 8 9 10 14 13 22 25 29 33 38 31 30 29 33 37 38 31 30 27 24 25 30 29 26
7 2 0 1 1 1 2 5 3 3 1 3 4 4 5 7 7 6 5 3 5 6 5 6 8 17 21 27 28 30 31 32 32 32 36 36 34 31 27 25 28 29 29 32
5 4 2 1 4 6 2 0 5 5 4 3 1 5 7 6 5 5 5 5 5 7 8 8 8 16 20 21 25 28 26 29 30 35 37 35 33 29 27 27 26 28 32 29
6 6 5 8 1 3 4 7 6 5 4 1 3 6 5 8 6 4 7 5 4 5 7 7 7 14 19 23 25 29 27 26 32 35 32 30 29 29 29 29 28 31 30 23
7 1 1 7 4 1 4 5 4 5 3 6 4 6 3 6 7 6 7 7 5 5 6 6 6 11 18 21 22 22 24 25 27 27 26 25 25 24 24 26 27 28 25 16
7 4 7 8 8 5 4 6 6 6 4 4 6 6 8 7 6 7 7 8 7 7 7 5 5 5 8 11 13 18 20 23 22 21 22 21 22 24 26 26 26 23 16 13
7 8 6 5 4 5 6 5 8 7 6 7 7 8 8 6 6 7 7 6 4 7 6 6 5 5 7 9 12 13 13 14 17 19 19 19 22 23 26 25 19 16 12 11
3 5 4 3 2 2 3 3 8 6 3 5 4 6 6 0 1 5 6 6 7 7 8 6 4 4 6 9 14 12 10 10 12 16 18 21 22 21 19 16 16 15 12 11
9 7 4 5 2 5 4 8 6 5 5 6 7 10 6 3 4 2 5 6 7 7 7 8 8 8 8 9 10 13 16 18 19 20 19 19 18 18 20 18 15 15 10 7
5 6 3 3 2 1 6 1 5 8 5 4 4 2 4 6 5 6 6 5 7 8 9 8 9 14 17 18 20 20 20 21 22 21 21 21 25 26 20 10 4 8 11 12
3 5 3 5 4 4 3 5 8 8 9 6 6 6 6 7 5 6 6 8 6 5 6 10 16 20 22 22 23 27 26 25 27 27 30 27 18 10 6 5 9 16 13 11
5 6 4 3 5 8 8 5 6 5 6 8 9 9 9 6 3 3 4 4 6 11 14 16 20 23 25 23 25 31 27 29 27 25 17 12 10 10 12 14 9 9 10 12
3 3 5 3 3 7 6 3 5 6 8 8 11 11 9 5 2 7 7 8 11 14 17 22 25 24 24 25 32 29 26 22 16 10 7 7 7 4 4 6 8 12 16 17
7 7 3 3 3 6 8 5 9 7 1 6 6 8 6 9 9 9 8 8 10 13 18 21 23 24 21 23 26 22 19 12 10 8 6 5 3 5 8 11 14 15 17 19
3 6 6 9 7 3 5 4 1 4 5 6 8 6 12 13 6 8 9 9 10 16 18 22 24 26 24 21 20 20 13 11 10 9 8 8 9 10 11 13 16 17 20 24
3 3 4 4 5 5 3 3 1 1 4 6 5 12 11 12 12 12 11 9 11 16 20 22 22 21 20 20 19 16 12 9 9 11 11 11 12 14 14 15 17 19 21 24
4 6 6 3 3 2 5 4 4 5 7 12 9 6 12 16 12 13 11 9 14 17 20 20 21 20 18 20 21 18 17 13 14 14 14 15 17 18 21 21 21 22 23 21
5 7 5 6 7 4 4 9 7 9 7 8 15 10 8 11 14 13 10 14 16 17 19 21 20 22 19 20 19 18 16 15 15 15 16 18 19 21 21 20 21 20 20 22

GFSCGP_925_spd_057.txt.gz
Wind_Speed
1 2 6 10 4 2 3 1 2 1 2 4 6 9 8 14 12 13 12 12 12 14 13 18 23 22 22 23 23 23 23 24 24 25 22 22 24 23 22 22 19 18 21 22
1 5 7 3 3 3 4 1 2 3 2 4 1 8 4 16 19 18 17 15 16 13 11 15 22 24 27 28 31 29 28 28 28 27 25 18 20 23 23 23 21 20 22 24
5 3 4 4 4 5 4 5 4 1 1 1 3 4 2 7 12 14 16 17 15 15 15 14 20 26 26 27 32 31 29 28 28 25 24 22 20 19 21 21 22 22 24 25
5 2 5 5 5 6 3 5 5 2 2 2 3 3 4 4 11 13 17 16 18 18 17 15 21 24 27 28 26 27 27 27 29 28 26 27 20 19 20 22 22 23 25 24
5 5 4 4 5 6 5 2 2 2 3 1 2 3 3 0 7 16 18 19 19 19 19 20 22 25 25 24 25 27 26 27 28 32 31 31 24 18 19 23 21 22 24 24
4 1 3 4 1 4 4 3 5 3 2 1 1 3 3 5 5 3 10 18 19 19 19 20 24 22 23 22 25 28 27 26 27 28 29 28 23 22 20 20 24 24 25 25
1 2 2 3 3 2 2 3 0 1 1 3 3 2 7 3 7 8 9 11 17 18 17 17 18 22 23 25 27 27 27 27 26 28 27 30 34 29 26 24 26 25 22 26
6 3 6 4 4 5 4 3 4 3 3 1 0 4 3 3 8 7 7 9 8 16 17 18 19 24 25 26 26 27 28 27 25 27 29 32 32 32 25 26 26 27 32 29
6 5 1 1 2 2 4 2 1 6 2 0 2 5 8 3 4 3 6 6 4 8 13 16 16 22 23 24 28 30 26 24 25 27 27 34 36 31 29 30 25 25 25 29
7 3 1 2 2 3 1 8 3 1 3 3 2 3 4 4 3 4 3 5 7 3 8 11 12 20 22 22 22 21 23 24 23 23 25 29 32 31 32 29 26 23 25 27
5 3 1 1 5 8 3 2 3 4 1 2 2 3 6 5 2 4 3 4 5 6 5 8 10 15 16 16 18 20 22 22 22 22 22 23 26 25 28 28 27 27 25 27
6 4 4 6 1 1 2 6 5 3 3 0 1 5 3 6 5 6 8 5 4 4 5 4 7 12 14 16 18 19 18 20 20 19 21 22 24 25 24 26 28 30 32 30
8 2 2 1 1 2 3 4 4 5 3 7 4 4 3 3 3 4 8 6 4 4 4 4 6 9 10 10 11 12 12 15 17 19 19 20 21 20 21 22 23 22 24 31
10 4 6 10 7 4 4 6 7 6 3 5 7 8 9 9 7 7 7 8 9 6 4 4 2 1 2 3 5 7 10 13 15 14 13 11 10 12 13 16 18 20 24 24
5 7 6 4 4 5 5 5 12 11 10 8 11 10 10 7 4 4 5 4 7 8 6 1 2 3 4 6 6 6 6 7 8 8 8 9 10 10 12 15 15 21 19 16
2 5 5 3 2 7 5 8 7 7 4 9 8 7 11 3 3 2 3 6 8 8 10 9 8 6 7 8 9 9 9 9 10 12 12 12 15 16 18 21 18 16 14 11
4 5 4 5 2 5 4 7 9 5 5 6 8 11 6 6 6 5 5 6 7 7 8 10 10 11 12 12 12 14 14 14 16 16 16 17 19 21 19 18 17 16 11 9
5 5 2 3 1 4 3 1 3 9 6 8 4 4 4 4 7 6 3 6 6 6 7 9 11 14 15 16 18 19 19 19 20 22 24 23 24 26 22 18 11 6 3 10
3 5 3 5 4 3 2 5 7 7 11 7 11 5 5 11 8 3 3 5 7 7 8 11 13 15 17 18 18 22 22 23 27 27 28 26 22 18 12 9 3 5 11 12
5 4 3 3 5 8 8 4 6 4 8 8 11 11 16 12 7 6 8 7 9 11 11 14 15 18 20 18 21 26 26 27 25 21 18 16 12 7 2 3 1 3 5 8
3 2 7 3 4 5 6 5 6 6 9 5 12 12 16 10 1 10 12 9 11 13 15 16 18 21 20 20 24 27 24 21 17 14 12 9 7 6 5 4 6 8 9 11
6 7 4 3 1 7 7 6 9 7 3 6 10 11 13 11 13 13 12 12 13 16 18 19 23 22 20 20 23 22 19 14 14 15 14 12 9 7 6 7 7 8 9 12
4 6 5 9 6 2 13 4 5 3 4 6 12 12 16 17 11 14 13 13 14 18 20 21 24 24 20 18 18 20 13 13 14 14 12 11 9 8 8 8 9 10 11 12
4 4 3 2 4 5 5 3 3 2 4 4 6 16 16 15 17 16 14 13 15 20 21 22 24 22 20 18 18 16 14 13 13 13 11 9 9 9 9 9 9 10 12 14
3 8 6 4 4 4 10 10 3 3 4 10 11 12 17 20 17 17 16 15 20 21 20 20 21 21 19 18 18 17 15 11 12 10 9 9 9 10 9 9 10 10 10 11
5 6 5 6 8 6 5 8 12 11 9 12 18 14 14 19 20 19 15 21 22 21 21 21 20 20 17 17 17 15 13 11 10 10 9 9 8 9 9 10 11 10 10 11

GFSCGP_925_spd_060.txt.gz
Wind_Speed
9 9 10 5 5 6 4 6 5 3 3 6 9 10 6 10 11 13 14 13 14 14 17 19 19 22 24 27 25 25 24 20 18 17 17 18 18 18 17 17 15 14 14 17
7 12 6 3 5 7 8 9 6 3 4 5 6 11 2 9 14 13 14 13 14 14 15 17 21 22 24 27 28 26 24 23 21 18 18 16 18 19 19 17 14 15 15 16
13 3 2 9 9 9 8 9 3 3 2 8 10 11 6 5 10 11 13 14 16 16 17 17 22 26 26 27 28 27 25 23 22 21 19 17 16 14 17 16 14 15 16 18
11 9 7 9 10 10 10 7 6 6 7 7 3 3 5 7 9 13 15 17 16 17 17 17 22 26 28 27 26 27 26 25 24 23 21 21 20 18 17 17 15 16 18 18
11 10 11 13 13 8 6 4 6 8 8 5 7 6 6 5 8 12 16 17 18 17 18 19 21 26 26 26 26 24 25 26 24 25 24 22 20 17 15 16 17 17 16 18
9 3 5 5 3 8 4 7 4 4 3 7 3 6 4 5 4 2 8 16 18 18 18 18 23 24 26 27 27 27 27 27 26 26 26 25 22 20 16 18 18 18 17 19
14 13 5 5 8 7 10 9 6 5 5 4 4 5 8 2 3 6 7 7 10 17 18 18 19 25 27 28 29 28 29 29 28 28 27 28 26 23 22 19 20 20 20 21
15 14 14 11 11 8 15 11 4 5 4 4 4 5 3 2 5 7 6 6 7 11 16 19 20 24 26 28 28 28 29 28 28 27 26 25 25 25 26 27 23 23 25 28
16 13 5 8 4 7 7 8 1 2 1 2 4 4 11 2 4 3 2 2 2 5 11 17 19 22 24 25 27 28 25 25 26 25 24 24 24 25 27 20 20 18 24 26
8 11 5 7 6 4 6 10 5 4 4 5 4 4 4 2 4 3 2 5 5 2 3 7 11 19 21 21 21 21 22 22 22 22 22 22 22 21 18 17 19 20 24 18
11 7 7 6 11 12 6 6 2 1 3 3 3 4 0 2 1 1 1 3 3 3 1 4 6 11 14 16 16 17 17 18 18 19 19 20 20 19 19 20 20 24 24 24
16 8 8 13 4 3 6 9 11 5 5 3 3 6 8 8 6 5 5 4 4 4 1 1 3 6 8 10 11 12 13 14 15 15 16 17 18 17 16 19 21 21 21 23
14 10 9 9 6 5 8 10 11 6 2 11 6 4 6 5 6 7 7 3 3 4 3 2 4 4 6 6 7 8 8 9 9 9 10 12 13 14 13 13 14 15 17 19
18 13 19 13 12 9 12 14 15 13 7 10 11 15 12 13 12 9 7 5 4 4 5 4 5 6 7 7 7 7 6 6 8 9 9 9 8 9 9 9 10 13 14 17
13 18 16 15 13 13 16 15 15 17 17 15 12 12 10 12 11 6 2 2 3 2 2 4 5 6 8 9 9 10 9 10 12 12 11 11 10 9 10 11 13 15 16 17
6 11 12 16 14 13 16 16 17 17 17 12 16 14 12 11 5 6 3 3 4 6 6 6 6 8 10 11 12 13 14 13 13 15 15 14 14 14 15 16 16 15 16 15
6 8 6 12 6 6 7 15 16 15 14 15 15 14 11 9 10 7 5 5 7 9 9 10 9 11 13 14 14 16 16 16 17 18 17 16 16 17 17 17 17 17 15 12
6 12 6 5 4 7 8 2 14 18 16 16 15 13 10 9 5 6 4 8 9 9 10 10 11 15 16 17 19 19 18 19 19 19 19 19 20 20 18 16 15 12 10 9
12 8 4 5 9 10 5 5 9 11 16 18 19 17 8 6 9 7 7 7 9 9 9 11 13 15 17 18 19 21 22 22 22 21 20 19 18 17 14 11 9 6 6 7
7 8 6 4 6 9 8 14 12 6 13 11 12 13 12 13 9 7 13 11 11 11 12 13 14 16 18 18 20 22 22 22 21 20 18 15 12 10 7 5 5 2 1 1
5 3 11 8 6 5 4 8 11 9 15 2 10 10 15 14 2 17 16 13 14 15 16 16 16 18 18 19 21 22 21 20 17 16 14 11 10 9 7 5 3 1 2 4
8 9 5 6 6 10 10 11 10 12 2 7 10 11 15 10 13 16 16 15 15 17 19 18 19 19 19 19 20 20 18 16 15 14 13 11 9 8 6 4 3 3 4 6
5 5 2 8 5 2 19 12 16 4 6 6 10 11 15 16 16 18 17 16 15 19 20 20 22 22 18 16 17 18 16 14 13 13 12 10 9 7 5 4 4 5 6 7
6 3 4 4 10 10 8 13 5 7 6 3 6 13 17 19 19 18 16 15 15 20 21 22 22 21 19 16 16 16 14 13 12 12 10 8 7 6 6 4 5 5 6 7
10 10 12 16 14 5 11 13 15 11 7 7 9 14 18 20 19 19 17 17 19 21 21 21 21 21 19 17 16 14 13 11 11 9 8 7 6 5 4 4 4 4 5 5
8 11 6 8 10 9 12 4 14 15 14 11 14 16 17 19 21 20 17 21 23 23 23 21 21 21 18 17 15 13 11 9 9 8 6 6 5 4 4 4 2 6 6 5

GFSCGP_925_spd_063.txt.gz
Wind_Speed
18 13 15 17 11 12 11 11 9 8 5 7 8 19 9 12 8 9 11 13 12 13 14 21 22 22 23 25 26 25 24 23 20 18 18 19 19 19 19 19 18 15 15 16
13 16 17 5 4 7 11 13 12 3 3 6 6 18 5 8 9 11 13 13 15 15 15 19 23 26 26 27 27 24 24 23 22 21 20 19 19 20 20 19 17 15 14 15
17 13 10 6 10 9 11 14 2 2 17 13 14 17 9 8 11 12 11 11 12 16 18 18 22 25 27 29 29 27 26 26 24 21 19 18 17 17 19 20 19 17 18 18
19 12 8 12 13 11 13 11 8 10 10 8 15 3 18 13 13 13 14 14 17 17 17 20 22 27 28 28 29 28 27 26 26 24 22 22 21 21 20 21 20 17 18 19
17 17 13 14 13 11 14 5 7 11 12 15 14 7 10 12 10 14 17 18 18 19 20 20 22 28 30 30 29 30 29 28 26 26 25 22 21 20 19 20 20 19 20 20
20 13 16 19 15 7 6 7 10 11 11 11 7 12 6 10 11 7 15 16 18 18 18 20 24 27 28 29 29 28 28 29 28 26 27 25 24 23 22 22 17 17 19 18
20 14 14 7 10 9 11 13 9 8 3 8 10 6 7 13 4 1 2 7 16 18 17 17 19 22 28 31 31 30 29 29 29 29 28 29 27 25 23 20 18 17 18 20
18 20 21 14 16 12 16 16 7 8 6 2 6 6 4 7 3 1 3 5 6 9 16 20 20 24 28 30 32 31 31 30 29 29 29 27 27 27 25 23 28 28 27 23
18 21 22 15 14 14 12 15 9 7 2 3 6 7 6 6 4 3 1 4 5 5 11 17 20 24 26 28 30 31 29 29 29 31 27 27 26 27 23 22 23 26 20 22
10 15 11 14 8 11 8 10 8 7 4 8 6 8 5 7 4 6 5 5 5 4 2 7 13 23 25 25 26 26 26 25 24 24 24 24 23 24 22 18 21 20 16 21
12 14 13 12 16 15 12 10 9 4 7 5 5 4 4 3 6 4 1 2 3 4 5 4 6 13 22 22 22 24 24 24 24 25 27 24 20 21 24 19 19 16 15 16
21 12 12 17 16 20 13 18 17 9 11 7 8 11 4 6 8 6 7 3 3 2 2 5 5 7 10 15 19 19 20 20 21 20 18 20 15 16 17 18 17 15 15 15
19 11 13 16 10 9 12 13 13 14 11 11 8 7 2 2 3 6 7 6 6 7 5 5 7 8 10 12 13 15 15 14 14 14 13 14 13 14 14 14 14 13 15 18
18 15 17 15 16 15 18 17 18 16 9 12 14 16 10 9 15 11 11 6 7 7 7 7 7 8 11 12 12 12 10 10 11 13 13 13 12 11 10 8 8 9 11 13
19 21 19 20 17 13 16 20 20 20 19 17 15 17 13 6 9 8 7 4 5 5 5 7 7 8 11 14 14 15 13 13 14 15 15 15 12 11 11 12 12 13 14 17
19 16 21 19 19 18 13 16 18 19 18 17 19 19 13 8 11 6 5 4 7 4 3 4 6 8 10 11 15 15 15 16 18 19 17 17 16 16 16 17 18 15 16 15
16 14 16 17 19 19 18 18 18 18 17 15 17 16 16 12 10 8 9 7 7 6 6 7 8 9 11 11 14 16 18 18 18 19 18 18 18 18 18 18 16 15 15 18
13 16 11 7 2 12 11 16 19 21 20 16 17 18 16 13 8 5 5 9 8 9 9 10 10 13 14 16 17 19 19 19 19 19 19 18 18 18 17 16 15 14 14 12
10 11 10 8 11 13 15 8 12 15 16 16 17 17 13 2 5 5 5 6 10 11 11 14 17 18 19 18 19 19 19 19 19 19 19 18 17 16 15 14 12 10 8 5
10 11 9 6 14 17 12 16 11 14 13 17 16 8 9 9 6 9 16 14 12 12 13 15 17 18 19 19 20 21 20 20 19 19 18 16 14 13 11 8 7 7 6 4
6 6 13 11 8 8 10 13 11 11 11 9 5 6 9 9 8 11 16 15 17 16 16 17 17 17 18 19 20 20 20 19 19 18 16 13 11 10 9 8 7 5 4 1
10 9 5 8 9 11 6 9 13 14 14 7 9 8 8 9 11 16 17 17 16 15 19 18 18 18 18 18 19 19 19 18 17 16 14 12 10 9 8 7 5 3 1 0
8 10 9 9 5 6 14 11 17 9 8 6 8 7 10 15 15 17 17 17 17 19 20 20 20 20 19 17 17 18 18 17 16 14 13 11 10 8 6 5 3 1 1 1
13 7 4 6 11 12 10 12 13 8 8 8 6 8 12 16 16 18 17 17 16 20 20 21 22 20 19 18 17 18 17 16 15 14 12 10 8 7 5 4 2 2 1 2
11 8 10 17 19 18 10 9 13 13 11 10 8 10 13 16 18 18 18 18 17 21 22 22 20 19 19 19 18 16 16 15 14 13 11 8 7 4 4 4 4 3 4 2
13 13 9 9 9 9 14 13 9 15 16 12 12 12 14 17 18 19 17 19 21 22 25 23 22 22 20 19 17 15 13 13 13 12 9 7 6 4 2 1 4 2 0 4

GFSCGP_925_spd_069.txt.gz
Wind_Speed
6 4 13 13 13 17 16 18 8 5 5 7 6 6 9 9 11 10 12 10 15 15 16 25 25 23 24 26 30 26 29 35 34 27 32 32 28 24 22 25 24 25 23 24
8 18 15 16 16 17 18 12 9 2 7 2 5 5 10 10 6 12 18 16 18 14 17 22 28 27 27 32 30 32 38 36 32 30 32 29 31 30 26 27 26 27 23 25
15 12 18 19 18 18 12 5 7 6 5 7 4 7 5 9 7 13 18 21 18 25 21 20 25 30 31 31 33 34 33 34 31 33 31 27 24 27 29 29 29 29 29 29
14 19 19 19 20 14 5 10 10 4 4 3 5 5 3 6 13 14 20 19 18 24 22 22 26 30 35 37 36 35 33 31 34 35 33 30 26 23 27 33 30 34 31 33
14 16 22 21 19 11 9 5 1 5 5 4 4 2 5 9 10 8 11 20 18 24 24 24 25 34 37 38 38 38 36 38 36 35 34 36 31 33 30 33 36 35 33 34
19 13 15 20 8 7 8 2 3 3 1 4 4 4 7 5 9 13 7 19 18 21 23 24 33 36 36 36 35 37 37 39 41 41 40 33 35 37 36 36 37 40 38 37
18 19 21 12 9 8 6 2 2 4 2 5 5 6 9 10 7 9 14 18 18 18 22 22 23 26 33 38 39 39 38 38 41 44 43 46 40 43 41 36 36 34 35 40
13 14 18 8 13 7 6 8 5 5 3 3 6 5 6 8 7 5 10 19 18 18 18 24 25 32 37 40 42 42 41 39 42 46 49 49 46 40 40 39 40 44 42 41
11 11 2 12 6 9 5 6 7 6 2 4 4 7 6 4 5 6 6 10 14 14 17 20 24 33 37 41 43 45 45 43 40 42 41 46 48 41 41 44 36 43 40 40
4 6 13 21 8 9 7 4 3 3 4 3 8 7 2 4 8 7 6 5 6 8 9 15 18 30 36 40 44 45 45 45 44 38 39 40 42 40 35 37 36 28 32 30
16 7 11 9 13 14 5 9 4 6 6 5 2 4 4 7 6 7 8 8 8 7 5 5 4 23 38 38 39 42 41 39 38 40 42 41 35 36 34 26 19 17 28 34
17 3 12 17 18 18 14 10 8 4 5 4 5 5 6 10 5 9 9 9 9 9 8 3 5 6 22 30 36 37 39 40 41 40 39 39 35 28 21 20 23 31 28 27
8 5 7 11 15 16 17 7 10 8 4 6 6 5 6 9 3 7 8 8 9 9 9 8 6 5 6 9 14 22 19 16 3 7 13 18 21 20 26 23 20 24 24 23
10 9 16 14 10 6 4 7 9 8 4 4 6 6 7 6 5 4 7 8 9 9 9 8 7 7 13 16 24 18 21 26 35 28 14 22 26 25 26 25 21 21 20 20
9 15 17 16 17 18 19 14 15 16 11 7 5 8 8 8 10 8 5 9 8 8 7 8 8 8 11 16 27 24 22 21 21 22 25 27 26 25 25 23 21 20 18 16
8 6 10 16 14 18 14 15 14 12 8 5 16 13 12 10 5 7 9 10 9 9 7 6 10 11 10 14 18 28 25 23 24 24 23 21 22 23 23 21 19 18 18 18
6 5 6 12 14 15 6 18 13 14 11 10 9 9 6 7 6 6 8 10 10 9 8 9 14 8 13 17 20 21 27 30 28 27 24 22 20 20 20 20 19 20 20 20
6 6 2 4 1 15 6 10 13 15 7 5 3 3 5 6 4 4 7 11 13 11 8 12 10 14 16 20 22 23 20 21 23 23 23 23 23 23 21 21 21 21 22 21
1 5 3 9 10 7 8 4 5 6 8 5 5 6 7 7 5 5 5 5 8 9 8 8 18 21 22 22 23 24 22 22 21 21 22 23 25 24 22 23 23 23 24 22
0 5 4 2 5 14 2 6 9 4 5 5 2 5 6 5 4 4 6 8 8 10 16 18 24 24 24 23 24 23 21 21 21 22 24 25 24 24 26 24 25 25 22 17
2 1 5 2 2 6 6 8 5 5 6 6 4 5 4 6 6 7 9 7 9 12 18 23 23 21 23 26 26 21 22 21 24 28 26 23 23 23 23 23 21 19 18 17
5 5 3 3 5 13 6 3 7 6 8 6 3 3 4 8 8 12 11 13 12 13 17 21 19 20 26 29 27 21 19 26 30 28 26 27 24 24 24 21 18 18 23 19
5 6 5 7 4 6 7 5 3 1 1 4 2 3 8 6 7 12 12 12 10 11 14 21 21 22 24 25 25 20 22 29 29 29 27 24 22 24 24 22 21 21 20 19
5 4 4 1 5 2 7 11 13 6 3 4 3 5 9 7 8 7 9 9 8 8 11 17 21 17 17 21 25 27 27 28 28 24 24 22 23 23 22 22 23 22 19 17
5 9 7 3 3 5 3 8 12 12 8 8 8 6 3 9 8 7 7 7 7 10 13 20 18 18 17 24 26 26 27 27 26 24 21 22 20 22 22 19 16 16 13 10
4 6 5 5 9 8 8 14 8 7 15 6 4 6 2 8 10 8 9 8 10 11 21 20 20 23 23 26 23 22 23 26 25 23 20 19 18 19 18 18 16 12 10 8

GFSCGP_925_spd_072.txt.gz
Wind_Speed
3 3 14 13 10 6 5 6 8 13 21 5 7 6 15 8 10 8 8 8 9 11 10 15 21 22 21 23 23 21 25 30 32 31 29 30 26 27 25 28 28 27 26 24
4 18 16 7 7 10 11 12 15 15 14 3 4 5 8 12 12 14 15 9 8 9 12 14 17 20 24 28 28 25 29 32 32 32 33 26 28 30 29 26 28 28 27 24
15 6 17 14 13 13 15 13 13 15 5 5 2 3 3 11 5 8 13 9 6 14 15 15 20 23 24 28 30 30 34 35 36 32 31 27 30 29 31 30 30 29 28 29
9 21 12 10 14 13 12 12 14 6 2 4 3 5 5 5 10 11 16 13 12 15 14 15 19 24 28 33 33 30 36 38 39 31 32 30 28 23 26 31 30 31 33 33
9 10 15 16 19 13 12 13 9 6 4 1 4 2 6 4 8 12 15 17 17 18 18 19 19 28 31 33 37 37 37 37 36 36 32 33 29 30 28 32 33 35 34 34
13 9 10 15 14 14 16 7 1 5 2 3 3 5 5 5 6 5 16 19 20 20 20 18 28 28 29 33 36 34 34 35 36 36 39 36 34 33 32 34 35 38 36 37
9 18 12 7 7 10 14 5 1 3 3 6 1 3 8 9 8 10 20 20 22 22 21 19 19 24 30 34 38 37 37 36 36 36 39 41 40 41 39 40 39 38 40 40
11 6 13 9 18 7 8 8 5 5 4 4 4 6 6 7 14 8 15 23 24 23 21 22 24 30 35 39 40 40 39 38 39 39 42 42 41 39 43 41 41 41 40 41
10 9 6 11 13 12 5 5 8 7 2 2 4 7 9 3 2 5 8 17 22 23 22 23 22 32 35 37 41 43 42 41 41 43 41 41 41 41 38 44 43 46 42 41
3 2 13 9 2 5 8 7 4 1 5 3 5 5 5 1 3 3 6 11 16 20 22 22 21 30 35 39 42 41 42 42 46 44 41 41 40 44 45 35 42 41 39 35
10 2 5 2 7 6 1 3 3 5 6 4 3 5 6 7 7 8 8 9 12 15 14 15 18 29 36 36 35 40 39 40 38 40 39 38 39 42 43 39 31 30 21 23
12 5 6 9 5 5 7 11 9 5 5 5 3 5 3 9 7 7 8 9 9 11 11 14 17 24 29 32 35 36 38 39 27 24 21 20 21 29 30 30 27 24 22 15
8 6 3 4 9 7 8 9 9 6 5 8 8 5 4 7 4 5 9 8 8 9 9 8 8 12 21 26 29 32 33 29 26 25 24 29 31 28 24 31 31 32 30 31
15 6 17 14 7 2 5 9 14 10 5 6 6 5 13 7 8 6 9 9 9 9 10 8 7 6 9 17 25 30 30 33 35 34 32 24 26 32 33 39 35 31 29 31
7 6 8 9 11 9 14 15 8 12 8 9 11 11 14 9 8 10 9 8 7 8 8 8 8 7 8 12 16 24 24 30 38 28 21 21 19 17 20 22 25 26 27 28
4 1 5 9 13 10 17 18 11 10 7 9 8 11 9 11 6 7 8 10 9 12 7 8 9 10 8 13 13 15 17 18 23 23 22 21 22 24 24 26 26 25 24 23
3 1 5 6 13 6 10 17 16 10 8 6 7 10 8 10 10 10 10 10 10 10 9 9 13 13 15 17 19 19 22 22 22 23 24 25 25 24 24 25 25 23 23 22
9 4 2 4 5 8 7 13 17 18 19 11 6 5 9 10 10 7 8 9 9 11 11 9 9 12 18 21 21 23 23 23 25 25 26 27 27 27 26 25 24 24 25 25
6 6 4 5 7 4 7 10 15 12 9 6 8 8 7 3 4 2 4 8 15 10 7 6 16 20 24 25 27 25 21 21 22 21 22 24 26 26 25 26 27 28 27 25
6 6 7 2 6 8 4 19 10 4 6 6 6 7 5 5 4 5 4 6 7 8 10 14 19 24 24 24 27 25 23 22 19 21 22 23 25 24 25 27 25 25 26 27
2 4 4 2 2 5 7 7 7 10 7 8 5 7 5 5 7 5 7 5 7 11 15 19 19 19 23 27 25 19 20 18 21 23 23 22 23 23 22 24 27 27 25 23
10 6 3 1 2 4 5 5 6 4 6 5 5 6 6 7 4 7 8 8 11 13 13 18 17 17 22 25 26 21 19 23 26 26 24 22 21 22 23 27 25 22 21 24
3 6 6 8 6 4 2 4 5 2 3 6 5 6 6 7 7 9 9 11 9 10 12 17 19 19 20 22 24 22 23 28 28 26 25 24 21 20 20 20 21 21 26 27
3 4 3 2 4 5 2 2 1 2 5 9 7 6 4 4 3 7 8 7 6 6 10 19 20 18 17 22 23 27 27 28 26 24 22 20 19 18 17 17 18 21 20 22
6 4 5 3 1 0 0 5 5 4 5 9 7 5 5 5 5 3 5 9 10 8 13 18 17 16 17 23 26 29 30 29 27 23 21 21 21 21 22 21 17 15 11 11
4 5 5 5 8 6 7 10 8 6 5 2 6 5 1 5 7 5 7 6 10 11 17 18 20 22 21 25 23 23 27 30 30 26 25 24 24 22 22 22 20 16 11 7

GFSCGP_925_spd_075.txt.gz
Wind_Speed
5 4 16 15 9 3 4 3 5 8 15 3 10 6 10 5 6 8 8 8 8 10 7 18 19 20 21 24 25 20 27 26 30 26 28 24 24 26 31 29 27 28 26 29
3 12 14 6 8 9 6 5 10 11 18 4 9 9 6 7 9 11 10 9 8 8 12 11 19 21 21 22 24 21 23 29 30 28 26 21 25 26 32 29 26 26 27 26
14 7 10 15 7 8 8 10 8 11 7 5 5 5 4 4 5 6 8 5 7 13 15 11 14 20 20 22 24 23 24 28 28 28 24 21 19 23 26 27 28 27 26 26
8 10 7 6 10 11 11 11 13 9 3 5 3 5 4 6 10 7 10 9 9 11 11 10 12 18 23 25 26 27 26 27 30 30 28 25 22 17 24 27 27 28 29 28
8 9 18 17 14 9 12 7 9 9 6 3 1 1 7 2 6 11 17 14 12 14 15 14 14 20 22 26 30 31 28 28 29 32 29 30 22 22 23 25 26 28 29 31
8 4 9 11 19 13 6 4 4 1 3 3 5 5 5 6 9 9 10 15 13 14 15 14 17 17 19 22 27 32 31 32 33 36 36 32 34 29 29 26 30 33 33 33
4 11 3 3 7 7 5 3 3 2 1 5 3 3 8 8 8 9 10 13 13 12 13 13 15 15 20 23 27 30 31 32 35 38 39 38 38 37 38 37 34 35 35 38
12 5 15 8 16 6 8 9 5 5 4 4 0 5 6 7 6 9 12 13 13 12 13 16 17 20 24 28 30 32 32 34 36 38 38 40 41 41 41 41 38 39 41 41
6 7 5 9 7 17 5 5 10 6 3 2 4 7 8 8 8 6 10 8 9 12 14 17 16 24 27 29 35 38 35 36 38 39 38 39 42 41 37 39 41 41 40 39
3 3 8 4 8 11 10 8 4 1 5 4 3 5 7 8 8 6 6 10 12 12 12 12 14 20 27 32 33 35 38 40 40 37 37 35 34 38 36 31 33 38 35 32
9 2 6 6 6 8 4 4 2 4 4 6 1 6 7 10 9 8 8 9 12 13 13 14 13 22 28 27 29 33 35 38 37 34 28 26 26 29 30 35 35 33 30 25
9 6 10 10 3 3 5 6 6 5 3 1 5 7 4 8 6 3 7 9 10 13 15 15 15 19 22 27 28 35 38 37 34 28 26 30 40 46 40 42 37 34 34 23
6 6 1 5 5 5 5 5 4 4 3 8 6 6 2 5 4 6 7 7 8 12 10 12 12 14 19 25 28 32 33 34 33 35 44 41 38 39 40 37 37 36 31 33
6 5 15 17 3 5 4 1 1 6 6 5 7 10 6 11 6 8 8 8 7 8 15 14 12 13 19 25 28 31 29 34 36 41 35 37 35 38 39 40 40 39 36 38
4 9 5 12 13 5 3 3 1 5 13 13 11 16 12 10 10 8 8 7 7 9 6 11 13 10 9 17 22 26 28 34 36 36 33 32 33 29 33 34 34 35 34 36
7 5 3 8 10 12 16 10 7 5 9 5 4 9 7 12 6 5 9 8 8 10 9 9 6 7 8 14 16 19 22 31 34 34 28 29 25 22 23 25 27 27 30 31
4 5 3 4 5 4 8 9 17 6 6 6 5 7 6 8 10 9 10 9 10 12 13 12 14 14 12 14 15 16 18 23 28 25 22 21 18 19 22 24 23 23 22 22
6 2 0 2 4 5 4 10 18 14 15 14 7 8 8 11 14 8 7 9 11 11 13 12 11 7 15 15 15 17 20 21 20 19 20 22 23 24 24 23 23 21 20 21
10 3 1 3 4 4 1 4 6 7 14 10 11 12 8 8 4 5 5 9 11 12 11 6 11 15 18 16 17 19 19 18 18 18 19 22 25 24 23 22 21 19 18 17
7 5 5 3 4 5 5 13 6 1 5 5 6 6 3 4 2 6 6 5 8 7 5 11 19 19 18 18 21 21 17 17 15 18 19 21 21 21 20 20 19 20 21 22
4 2 6 4 4 7 8 5 6 4 6 10 6 8 6 2 8 6 3 5 6 5 11 19 19 17 19 23 23 17 17 14 17 17 17 16 16 18 18 19 19 21 22 24
4 5 3 3 3 6 4 1 5 4 3 2 6 6 8 8 11 8 7 6 9 11 13 16 17 17 20 24 23 17 14 16 17 19 19 18 17 16 18 19 20 22 24 25
3 6 4 6 5 5 4 2 2 2 2 4 0 3 4 8 5 5 6 6 4 9 10 17 18 18 19 23 24 21 21 24 22 20 19 17 16 16 16 21 21 19 18 20
4 2 2 3 5 9 7 3 6 7 6 5 4 2 6 6 6 2 5 4 5 7 10 17 18 14 13 18 20 24 27 26 25 25 23 21 19 18 17 16 15 17 18 20
5 1 3 4 7 6 6 8 7 10 8 4 4 3 3 8 4 1 2 6 6 7 11 14 15 17 16 19 20 23 27 29 28 26 25 24 22 21 19 17 15 16 13 17
3 6 2 7 9 6 7 8 7 4 3 4 2 5 4 4 2 3 4 5 6 7 15 18 19 21 19 23 22 23 26 31 33 28 23 24 26 24 26 27 26 21 17 13

GFSCGP_925_spd_078.txt.gz
Wind_Speed
6 4 9 17 9 5 4 4 4 5 4 4 8 7 16 3 5 8 8 9 10 12 8 15 16 18 17 19 20 22 24 27 28 26 22 24 25 25 26 34 35 28 29 26
2 11 19 8 10 8 6 4 11 12 11 8 8 12 11 4 6 7 9 8 9 7 8 13 17 18 19 20 20 21 22 28 29 28 24 17 25 27 31 31 32 30 30 27
15 4 11 11 7 10 13 13 10 10 7 4 5 7 7 3 5 4 7 7 8 13 15 12 13 18 19 20 21 21 22 24 27 25 25 18 23 19 27 32 30 27 26 27
9 13 5 12 13 12 7 11 10 7 2 4 2 5 7 6 7 5 7 9 11 13 12 14 13 18 20 22 22 23 24 25 25 27 31 25 25 18 20 31 31 26 27 26
8 6 16 7 8 9 11 9 10 6 6 1 5 2 7 2 6 9 8 11 12 14 16 16 18 22 21 21 26 27 28 25 29 29 32 31 26 28 27 30 29 29 29 30
6 2 8 9 9 13 1 4 4 1 2 4 9 6 5 5 7 6 6 7 11 14 15 13 19 19 19 21 26 29 28 27 29 34 33 34 33 30 28 31 32 33 33 32
3 5 2 3 4 8 6 4 2 1 1 6 6 4 10 7 9 8 10 10 9 14 15 15 16 15 22 27 30 29 30 29 31 34 36 38 38 33 33 35 36 34 33 34
12 7 11 6 8 7 11 10 5 6 5 4 2 6 6 8 7 8 9 10 7 10 13 17 18 21 25 27 31 32 32 30 34 36 36 37 35 36 34 32 32 33 34 34
6 6 6 8 8 12 6 13 8 5 2 2 4 6 8 8 7 7 9 6 8 11 14 17 17 23 26 28 32 35 31 32 33 36 35 32 33 33 31 34 32 33 34 32
4 3 6 4 5 13 8 7 4 1 5 4 4 4 6 8 12 9 8 8 8 8 10 13 14 20 26 27 29 33 31 33 33 33 32 30 30 31 32 31 34 36 36 36
3 1 5 4 6 9 5 14 3 4 5 6 3 6 7 8 8 9 9 8 8 8 10 13 14 21 22 23 29 35 37 34 34 36 32 29 28 30 35 41 44 46 45 43
4 5 5 10 5 4 9 9 10 5 4 2 3 8 5 6 7 3 9 8 6 7 7 9 11 16 22 25 28 32 30 33 30 31 31 40 41 42 49 52 49 40 40 47
9 4 3 6 12 3 5 4 5 4 4 6 6 4 4 3 2 6 6 8 7 5 5 6 8 12 16 24 28 30 32 33 35 34 39 37 38 41 41 39 41 37 39 41
7 5 8 11 5 4 5 6 5 5 4 5 5 4 5 7 8 7 7 8 7 7 6 6 6 9 14 21 25 27 31 36 37 39 38 39 39 46 33 29 34 37 38 40
2 6 9 14 11 16 5 5 7 9 6 9 4 8 10 9 9 9 7 5 6 8 7 9 9 9 9 16 22 26 29 35 37 37 38 42 44 41 37 37 35 34 34 35
3 6 10 10 9 11 12 11 10 7 5 4 2 8 6 10 8 6 8 6 7 9 10 9 8 6 8 14 21 27 28 32 36 35 35 34 33 33 35 31 28 28 29 29
5 1 5 3 5 6 7 13 7 4 6 5 4 4 7 7 9 9 11 8 9 10 12 11 11 13 12 16 16 16 16 21 30 29 29 29 28 26 24 20 20 21 22 23
8 4 1 4 1 3 5 7 13 15 13 9 6 6 14 15 11 9 7 8 9 10 10 12 10 6 12 15 14 14 14 17 21 21 21 22 23 20 17 16 17 17 18 17
15 7 3 2 4 5 4 2 5 6 8 7 9 9 15 11 6 8 9 12 15 13 13 10 15 16 21 19 18 17 17 17 18 18 18 17 17 16 16 17 17 16 16 15
11 10 3 3 3 3 6 6 0 5 5 2 3 2 6 4 0 6 3 2 10 7 4 6 17 22 24 22 23 21 18 18 16 16 16 17 16 17 18 17 15 15 16 18
4 3 10 1 3 5 10 7 2 4 6 3 1 4 1 5 6 7 8 8 4 1 6 16 14 18 22 25 23 18 18 16 18 18 18 16 14 15 15 16 16 19 20 21
5 5 4 3 2 6 3 3 4 5 3 1 4 6 6 7 10 8 8 7 2 5 5 12 14 16 18 20 21 18 17 20 20 19 18 16 15 15 16 19 20 19 22 25
3 5 2 6 5 4 4 5 3 3 5 4 6 2 6 3 8 12 8 6 5 6 5 8 16 19 17 19 21 22 21 22 21 21 20 18 17 17 16 18 20 20 22 24
5 0 2 2 3 4 7 7 4 2 8 7 5 6 5 4 4 5 6 6 6 8 8 8 12 15 16 19 21 26 24 22 22 24 23 22 22 20 18 18 18 19 19 18
5 3 4 5 5 10 8 7 8 9 6 7 7 5 6 2 3 4 5 7 6 9 16 17 12 15 17 21 21 23 24 25 28 27 25 24 24 24 22 18 13 13 10 11
2 5 3 4 3 2 10 14 11 8 8 7 5 4 6 5 7 7 9 10 11 4 21 16 17 17 22 25 22 18 21 24 28 24 22 22 24 23 23 25 29 25 19 15

GFSCGP_925_spd_081.txt.gz
Wind_Speed
6 9 14 27 15 4 7 7 9 6 4 2 9 11 17 9 6 10 12 13 14 15 12 15 15 14 13 15 16 21 23 27 25 26 23 23 23 28 27 26 25 23 27 30
4 15 19 5 10 13 10 7 18 11 8 7 9 15 16 12 7 8 15 15 16 13 11 14 15 17 16 17 17 21 24 28 28 26 22 23 24 24 28 24 19 26 24 23
14 5 14 12 9 12 16 18 16 14 6 9 7 8 7 3 4 5 10 14 14 17 16 14 16 19 18 19 19 22 23 27 28 26 25 22 23 22 26 27 24 30 20 23
12 14 7 16 17 16 17 12 15 14 7 7 2 6 7 12 11 7 10 14 16 17 16 15 16 21 22 21 22 20 24 28 29 32 30 28 31 23 28 34 33 38 30 26
6 6 17 11 12 15 14 6 12 16 12 7 12 6 3 3 7 11 8 15 17 18 19 19 19 23 24 22 24 24 23 22 27 33 33 33 25 25 31 32 36 38 37 34
4 1 7 10 13 16 3 8 1 1 3 7 14 6 7 6 8 6 7 7 14 17 18 17 20 22 23 23 24 25 26 24 25 28 30 30 29 25 28 33 35 32 32 35
10 14 3 3 6 7 7 5 2 3 5 8 8 9 14 6 8 10 13 11 9 16 17 17 18 19 24 26 28 28 28 27 27 28 29 30 26 27 26 31 32 29 28 28
10 7 16 9 9 8 15 11 5 7 5 6 6 7 8 10 9 8 9 11 5 14 17 20 20 23 26 27 29 29 29 28 28 30 30 30 30 27 23 24 24 29 30 31
4 5 4 7 9 16 7 11 15 4 2 3 4 4 7 9 7 6 8 8 9 13 17 20 19 24 26 28 30 31 32 29 29 29 30 30 31 33 30 31 32 35 35 33
3 4 6 4 7 12 9 11 6 8 7 11 4 3 7 2 5 7 9 11 5 10 14 16 17 23 26 26 28 30 31 33 31 30 29 31 32 33 31 33 35 34 34 34
4 1 3 3 5 13 9 10 4 6 7 8 4 5 8 12 7 7 9 8 3 10 11 13 15 21 24 24 26 29 30 30 30 31 30 29 29 30 32 34 38 41 39 38
8 3 6 11 3 2 12 18 18 7 5 5 6 11 2 7 5 5 8 6 0 4 11 13 14 18 22 25 26 29 28 29 30 31 31 32 34 37 40 44 49 41 34 33
7 3 3 3 10 6 7 7 14 17 5 14 8 4 2 4 6 4 7 7 5 4 7 11 14 15 20 25 26 28 29 29 30 31 32 34 37 35 38 48 37 31 31 31
8 4 6 5 8 11 6 8 10 16 10 15 17 9 4 4 5 8 7 7 8 4 10 11 13 15 20 24 27 28 28 29 29 29 32 33 35 38 43 38 23 25 25 27
4 8 10 16 19 20 21 15 14 16 17 12 8 15 10 7 8 7 4 4 7 7 8 12 13 13 14 21 24 26 28 30 30 31 32 37 36 37 38 29 27 26 28 29
5 2 3 10 15 19 21 21 19 15 11 8 5 8 8 9 8 7 12 7 10 10 9 9 11 12 14 20 24 23 25 28 30 31 34 32 33 32 32 27 23 24 27 27
4 2 3 6 10 18 12 21 18 17 14 10 13 10 8 8 7 8 8 6 11 12 11 8 11 13 13 23 26 26 26 25 30 31 29 28 28 28 27 23 22 23 25 26
7 4 3 6 7 4 5 3 10 17 14 12 8 9 14 10 6 7 10 12 15 14 13 12 8 8 11 14 20 21 22 25 26 25 24 23 23 23 25 24 23 24 22 20
16 7 4 2 2 5 12 3 2 5 8 8 14 16 16 11 1 9 5 6 13 12 11 9 8 6 8 15 20 21 19 18 20 20 21 24 24 23 21 22 20 17 15 13
15 14 5 2 3 3 9 3 4 1 4 0 1 8 6 4 2 2 8 17 15 8 8 8 9 7 13 17 21 22 20 18 17 21 22 21 22 23 21 17 15 13 14 16
8 8 12 8 5 6 8 4 5 2 3 1 4 1 3 1 2 4 5 13 12 6 11 6 4 9 11 17 20 21 21 18 21 21 21 20 19 18 17 17 17 19 20 23
5 8 5 6 5 5 4 4 3 3 4 2 1 2 6 9 9 4 7 10 10 10 7 3 11 12 13 12 19 20 19 24 26 26 24 21 19 20 20 20 20 20 24 27
3 4 3 6 5 2 3 6 5 2 6 3 2 6 7 7 7 10 6 10 10 9 6 2 16 17 15 15 15 19 20 28 29 29 27 25 22 19 18 20 21 22 22 24
2 2 2 2 2 7 11 8 7 10 12 13 5 6 3 4 5 4 8 9 7 7 6 13 18 16 16 19 18 20 24 28 29 29 27 26 27 23 20 19 18 20 20 20
3 2 2 2 4 8 5 12 15 20 15 13 15 5 4 3 5 5 11 6 4 9 12 12 18 19 16 22 21 20 19 22 25 28 25 25 26 27 26 23 19 19 14 18
1 2 2 3 5 2 9 14 17 16 18 14 10 5 9 9 12 13 10 8 11 11 15 15 21 22 18 18 19 18 20 25 30 26 22 20 24 24 25 28 33 28 24 22

GFSCGP_925_spd_084.txt.gz
Wind_Speed
20 15 18 22 23 19 15 15 18 17 2 8 12 15 17 17 10 13 10 12 14 13 12 17 17 15 13 13 13 16 16 15 18 19 26 27 28 26 29 27 26 30 28 24
11 20 21 20 18 17 20 19 20 18 5 10 17 18 18 16 17 13 12 13 14 14 15 15 20 19 17 16 16 20 21 22 22 21 21 25 29 27 27 28 30 31 23 25
16 6 19 19 18 18 19 21 20 17 11 14 18 21 23 17 13 9 10 12 13 16 17 17 19 21 20 19 19 21 22 26 23 23 26 25 29 26 28 30 31 30 24 24
13 19 10 21 24 19 20 19 19 18 16 13 2 10 10 9 14 12 11 12 13 15 16 17 18 21 22 21 20 20 22 25 26 26 26 28 35 30 29 30 31 32 25 23
8 8 19 18 20 19 18 14 14 14 14 15 16 10 11 9 16 16 16 13 13 15 17 18 19 22 23 21 23 22 23 24 26 26 30 32 27 30 25 25 27 32 28 21
13 2 6 19 17 15 6 11 10 7 8 10 17 12 12 11 13 10 6 9 12 14 17 17 20 22 22 22 23 25 25 24 29 30 29 31 32 28 25 25 30 34 29 24
19 21 11 7 7 13 16 10 5 8 7 9 4 11 15 4 6 7 9 8 9 12 16 18 20 20 24 26 25 26 26 26 27 31 30 30 27 31 31 32 30 32 32 28
9 8 25 16 22 12 18 17 7 9 9 7 6 7 12 8 13 13 8 5 5 11 16 20 21 20 25 28 28 27 28 26 28 30 30 30 31 29 29 31 32 32 33 32
3 6 4 11 22 23 15 19 16 15 13 8 9 7 12 12 9 9 10 10 10 11 16 20 21 23 25 28 30 31 30 30 30 31 30 31 33 34 31 34 37 35 32 32
2 5 6 8 11 19 20 7 10 11 7 11 9 11 7 5 9 8 5 7 8 10 16 18 20 23 28 28 28 30 31 32 31 31 31 32 33 34 33 32 33 35 33 32
4 4 4 5 9 15 12 14 12 10 14 11 11 7 6 14 11 4 10 7 3 8 14 15 17 23 25 26 28 30 31 31 31 31 31 30 32 34 35 34 34 35 33 32
4 3 8 13 3 1 9 18 19 12 13 10 14 14 5 3 1 3 8 5 5 4 10 13 15 19 25 28 29 30 31 32 32 31 31 32 32 33 35 38 38 37 36 34
5 1 5 8 10 14 11 11 14 18 17 20 12 3 11 16 12 10 7 7 7 2 7 10 14 17 19 27 29 29 31 32 31 31 32 31 33 35 39 39 38 36 36 35
4 5 6 8 7 9 8 14 15 17 15 17 22 20 15 10 10 8 6 7 8 5 4 9 12 15 18 25 28 29 28 29 29 30 32 33 34 34 33 31 29 30 30 30
6 11 12 14 17 17 17 18 18 22 23 21 16 20 20 20 18 14 7 9 9 9 5 9 11 13 15 21 25 28 28 29 30 30 32 33 31 30 30 29 27 26 25 27
2 3 6 11 15 16 17 22 23 25 24 23 22 22 13 9 12 12 14 11 10 11 6 8 12 14 16 21 25 28 31 33 32 32 32 29 29 29 28 26 24 25 25 25
4 2 3 6 3 11 17 11 19 25 25 23 19 16 13 13 13 14 15 11 10 11 10 8 11 14 15 23 26 27 28 28 31 31 29 28 27 27 27 24 23 23 21 20
9 10 4 6 10 13 5 18 26 22 21 21 21 19 15 16 14 12 8 8 6 9 11 8 8 10 20 21 23 21 23 25 26 26 26 26 25 24 23 23 23 17 13 14
18 12 5 5 10 10 2 6 11 15 11 15 19 15 16 13 11 14 3 4 7 10 13 9 16 15 11 19 21 23 23 24 24 25 24 23 22 21 18 17 15 14 15 14
19 16 10 6 7 4 3 4 5 18 5 8 5 5 6 4 7 2 5 8 9 9 10 12 17 13 9 16 17 20 21 23 23 24 22 18 18 18 17 17 16 14 14 14
13 12 15 12 5 6 5 8 6 4 2 14 13 8 4 4 5 6 6 8 10 11 12 12 9 6 6 10 14 17 17 15 14 17 20 19 20 21 21 19 19 19 20 21
7 9 8 10 6 8 13 2 6 1 15 8 5 4 3 3 4 7 4 5 11 12 12 11 5 5 4 6 11 14 15 16 16 17 22 23 23 23 23 24 23 22 25 27
6 6 3 5 5 5 10 8 8 11 11 11 12 13 12 12 11 7 5 5 10 11 11 11 7 15 13 9 13 15 16 24 27 26 23 26 27 24 22 26 26 26 26 26
3 4 4 3 8 5 8 8 11 13 14 14 13 12 12 11 11 4 3 5 8 9 11 13 11 16 16 16 19 19 19 25 29 28 24 24 26 25 24 22 21 21 20 20
4 1 3 5 6 11 4 13 16 17 17 17 16 10 9 10 5 1 5 6 8 9 17 15 14 13 16 16 18 25 27 29 29 28 25 23 26 27 28 27 23 22 17 19
4 5 4 3 4 6 10 17 16 16 17 16 14 8 13 10 8 8 8 8 11 11 15 19 15 14 16 17 21 18 21 24 25 25 22 22 24 26 26 29 37 34 28 25

GFSCGP_925_spd_087.txt.gz
Wind_Speed
19 17 23 24 23 24 21 24 23 18 12 5 11 18 18 16 16 15 15 16 13 14 13 16 17 15 13 13 15 15 16 17 15 23 23 26 28 28 30 39 40 34 27 31
13 24 28 23 22 19 24 26 24 20 22 11 14 20 20 20 19 18 18 16 13 14 13 15 19 17 15 16 16 17 17 20 20 23 25 25 28 28 29 30 29 28 29 28
21 10 24 20 20 21 25 24 21 24 22 16 14 21 23 23 24 21 20 14 13 15 16 17 17 20 17 17 18 19 19 20 19 26 29 25 25 23 22 26 28 26 29 29
19 21 13 17 24 23 22 21 22 20 19 15 17 15 17 15 12 19 15 15 16 14 16 18 18 21 22 20 18 19 20 22 22 29 29 33 31 26 25 28 29 27 27 21
18 16 20 22 21 17 21 16 17 21 20 17 20 15 16 17 19 15 15 18 16 14 16 19 19 23 23 21 21 22 21 22 24 25 30 31 30 27 24 24 28 27 21 22
22 7 9 18 14 15 17 16 16 14 12 16 18 16 13 14 16 13 12 13 16 14 15 18 21 23 23 22 22 23 24 25 26 28 30 32 31 30 26 26 25 25 23 27
19 22 17 12 12 17 17 14 9 11 11 13 17 13 13 10 5 4 8 7 10 12 14 17 20 19 24 25 24 25 27 27 28 30 30 32 33 33 31 33 29 28 27 24
13 11 28 21 18 11 18 17 8 11 10 10 20 9 10 13 13 15 12 8 3 7 12 18 20 19 24 27 27 26 29 28 30 31 30 32 30 35 30 28 31 31 32 34
4 12 2 12 25 21 17 17 19 22 17 9 9 8 8 11 10 8 7 9 11 14 14 18 19 21 25 28 29 31 28 29 30 31 31 31 32 34 35 31 32 31 35 36
5 9 6 13 12 22 24 15 12 12 16 17 13 17 14 5 9 11 9 6 8 12 14 16 18 20 25 27 28 29 30 30 31 31 31 32 33 31 34 34 37 35 37 39
4 6 2 5 10 13 14 20 16 12 13 11 9 7 10 4 8 5 5 6 6 8 11 17 17 22 25 26 28 29 30 30 31 33 31 31 33 34 33 34 36 37 38 39
4 5 7 11 3 9 13 16 18 12 16 12 14 15 9 2 5 7 5 5 4 3 8 14 17 17 24 27 28 29 30 31 32 33 34 34 33 34 35 34 33 37 37 39
9 2 6 12 10 11 10 11 12 15 16 20 13 10 4 13 8 7 7 3 6 5 4 9 13 17 19 26 28 29 31 32 32 32 32 34 34 35 36 36 35 34 34 35
6 8 10 11 10 10 6 10 9 13 13 14 17 20 20 9 11 5 8 5 6 5 4 7 12 15 17 25 28 30 31 32 32 34 34 32 33 35 35 34 34 33 34 33
6 11 12 15 19 16 16 14 14 18 17 18 17 20 18 18 18 20 15 6 7 9 4 4 9 13 16 21 25 27 30 32 32 32 33 33 32 32 32 31 32 32 33 33
2 7 8 13 15 20 21 20 21 19 19 23 22 25 20 14 13 14 16 16 11 10 9 4 5 10 13 17 24 26 26 30 31 32 31 31 31 31 30 30 31 30 31 32
6 5 3 12 15 11 13 20 21 17 17 20 21 21 21 18 13 14 12 13 16 8 9 9 6 6 9 17 21 25 28 28 31 31 31 30 30 30 29 30 30 30 29 29
9 11 6 5 9 10 10 5 3 7 13 20 25 25 21 19 12 14 14 8 6 9 10 10 5 5 7 11 18 21 24 28 29 30 31 31 31 30 29 29 29 27 27 28
19 13 4 4 8 14 21 10 3 5 15 20 22 21 18 20 18 16 11 5 3 6 8 7 10 13 10 6 14 20 22 25 27 29 30 30 29 29 29 29 27 26 21 23
20 17 11 8 9 6 5 5 6 6 8 17 23 17 3 5 8 2 10 7 6 7 8 9 10 12 12 8 6 16 19 21 22 22 24 25 25 24 23 21 20 20 21 20
14 12 13 12 11 9 3 8 8 3 7 22 22 16 18 5 7 2 4 6 6 7 10 12 11 9 10 8 3 9 15 19 20 18 17 17 16 15 17 19 19 22 25 26
9 10 7 12 10 13 10 2 2 2 6 5 9 14 17 23 6 7 8 8 6 8 10 12 10 12 14 9 1 5 9 11 11 21 19 17 16 18 18 22 23 26 29 30
7 9 3 4 6 4 8 13 10 11 10 11 13 10 11 16 10 7 5 7 8 9 9 10 10 13 18 16 15 16 12 12 18 23 23 23 21 21 21 24 24 23 24 25
4 12 5 3 5 6 9 10 12 12 13 15 16 15 13 15 12 9 7 7 9 9 9 9 10 16 15 17 15 13 16 23 28 27 25 29 26 27 26 23 27 23 18 20
4 3 8 6 13 11 9 11 11 14 14 16 17 17 16 15 13 10 9 9 9 10 13 13 8 17 18 19 18 15 15 25 27 28 26 30 28 29 34 34 29 26 23 20
7 7 4 4 8 7 10 12 15 14 15 14 15 15 14 15 12 12 12 12 13 14 14 15 19 17 17 21 24 19 18 19 27 26 23 24 27 28 31 34 42 40 34 32

GFSCGP_925_spd_090.txt.gz
Wind_Speed
18 15 19 22 21 25 22 24 25 22 25 22 18 14 13 14 15 14 15 15 11 10 14 20 18 18 16 21 19 17 15 16 19 24 24 23 21 25 26 26 34 37 43 40
16 21 21 23 23 23 24 22 27 22 28 22 20 17 16 17 19 16 15 13 15 14 13 16 21 19 17 23 20 20 18 19 23 24 21 23 25 24 31 28 26 33 37 31
20 18 23 21 23 25 23 24 18 23 26 25 22 24 16 19 19 19 19 15 14 14 16 18 18 20 17 23 24 24 20 21 24 24 26 27 25 24 26 26 33 36 40 34
20 20 21 16 19 24 22 18 20 20 20 18 21 16 17 17 17 21 24 18 13 12 13 19 18 18 20 19 26 26 23 23 28 30 29 32 31 27 24 28 28 26 28 26
23 21 21 20 21 15 21 13 14 19 19 22 25 14 13 16 18 17 13 13 12 8 9 19 19 23 23 21 24 27 25 24 29 33 31 30 25 22 26 23 24 27 30 31
22 20 19 20 16 20 15 8 14 17 14 17 22 19 14 16 18 17 11 12 16 16 12 18 21 27 25 25 26 26 26 25 29 31 33 32 29 26 24 24 23 25 29 32
23 24 23 11 12 16 14 12 9 5 6 12 19 16 14 17 20 12 12 8 5 14 13 14 20 18 24 28 28 26 28 27 29 32 33 34 34 32 30 34 29 31 29 28
12 14 22 16 20 16 17 17 9 12 7 5 16 11 14 15 11 6 3 4 4 11 12 14 20 19 23 27 29 28 29 27 30 30 33 35 34 34 32 35 30 33 31 30
9 11 14 20 25 20 17 19 17 17 18 4 9 18 10 13 8 6 7 13 7 6 8 11 18 19 24 28 29 31 28 29 30 32 30 33 34 34 33 34 31 32 30 30
8 10 9 9 6 22 17 15 14 11 16 16 12 11 9 16 13 9 7 5 5 7 13 14 15 19 26 29 29 30 29 30 31 32 32 32 33 35 34 33 35 32 33 33
11 9 13 4 9 12 12 17 13 11 13 10 8 1 5 10 14 9 6 9 6 7 8 14 14 20 27 28 30 31 31 30 31 32 33 30 32 35 38 33 33 37 37 37
9 4 7 15 9 13 17 18 17 8 12 8 11 7 12 3 12 7 6 8 5 4 9 7 14 20 23 27 29 30 32 32 33 34 32 32 32 33 36 38 37 38 37 37
11 3 5 11 9 8 7 9 16 17 13 16 10 10 9 10 12 4 5 2 7 5 4 4 13 16 17 24 26 30 31 32 31 35 34 33 34 35 35 35 37 38 41 40
4 7 9 8 5 8 11 18 14 13 9 11 14 16 17 9 18 17 17 5 4 5 6 2 2 11 16 23 25 27 29 29 32 33 34 34 35 34 34 34 34 36 39 39
5 10 13 18 17 13 17 16 16 14 11 11 12 17 15 13 9 15 12 21 7 5 6 7 5 7 11 17 25 26 27 30 30 30 35 36 35 35 33 33 33 32 33 37
1 5 10 14 16 16 17 17 18 17 16 17 18 18 16 17 19 17 10 11 13 13 5 4 5 5 10 11 21 26 27 30 30 31 31 31 32 34 35 35 35 36 35 34
4 4 5 11 13 14 13 14 17 19 17 15 12 14 18 20 20 18 13 8 7 7 2 7 9 6 3 10 17 22 27 30 32 30 27 29 30 33 33 33 33 36 36 36
8 8 5 5 9 7 9 15 6 6 7 11 16 14 17 28 23 22 4 15 8 8 9 9 9 11 17 17 13 22 24 28 31 30 29 28 29 30 31 31 32 32 32 34
15 11 3 3 6 13 18 14 11 8 2 15 13 16 21 24 21 12 7 7 12 9 8 9 10 9 12 17 21 12 21 24 27 29 29 29 29 27 27 27 29 28 28 28
18 13 8 5 5 5 2 11 12 2 6 12 14 16 21 23 7 9 10 9 8 10 9 10 13 13 15 17 18 16 15 19 21 24 26 27 27 28 27 28 29 18 25 24
14 12 13 9 8 7 6 8 21 4 4 10 10 11 16 12 9 11 17 6 11 11 12 16 15 15 18 19 20 15 17 0 17 14 17 16 18 18 21 21 23 24 26 26
9 9 7 8 8 11 18 3 2 4 7 12 11 11 13 16 15 14 9 13 14 14 16 20 16 17 20 21 18 17 17 16 13 30 22 22 22 23 24 26 24 25 27 28
7 8 5 4 4 7 12 9 11 9 9 12 14 14 10 14 17 12 7 9 13 14 16 19 18 19 22 23 21 15 13 12 15 26 28 26 23 23 21 30 28 29 27 27
6 12 3 4 6 5 8 10 12 13 13 14 15 15 16 16 17 15 14 14 13 14 15 18 18 18 21 23 23 21 17 13 19 25 23 26 33 26 23 28 24 22 26 22
3 4 4 0 10 9 11 11 13 14 14 15 16 17 15 17 17 16 14 13 12 14 18 18 17 15 16 19 24 25 23 18 25 24 24 27 30 28 30 31 28 25 22 23
8 7 4 3 10 7 8 12 15 14 14 13 12 13 14 15 14 12 11 13 14 15 15 17 17 15 14 13 19 23 22 24 24 28 26 24 27 31 33 36 43 42 38 34

GFSCGP_925_spd_093.txt.gz
Wind_Speed
6 5 10 12 11 11 12 13 15 12 10 13 13 16 21 25 10 8 8 9 10 10 11 23 30 35 34 32 30 25 22 18 18 16 18 17 17 20 23 27 28 34 39 43
7 19 14 14 13 15 18 19 20 17 12 13 17 21 20 27 8 8 8 10 11 8 11 15 27 29 30 34 31 26 22 20 23 21 20 18 20 18 23 24 25 34 35 48
15 7 20 17 18 18 18 16 13 13 4 4 10 20 15 24 11 7 9 10 11 16 16 17 18 26 31 32 33 28 22 24 24 23 21 23 21 24 23 26 27 24 30 45
16 13 19 16 21 17 17 14 17 18 2 4 4 12 20 22 24 19 17 16 15 10 17 20 17 17 27 29 32 27 25 25 27 29 27 29 24 19 18 29 26 24 28 40
15 6 7 10 8 9 11 11 14 4 2 4 7 7 7 18 21 19 11 17 20 12 21 21 21 24 29 35 34 30 28 27 29 32 30 27 21 18 20 24 32 33 29 28
14 10 6 7 7 12 2 3 2 3 3 7 11 10 4 12 18 17 17 15 12 12 23 22 23 29 27 31 33 32 29 28 32 32 30 30 27 27 25 25 24 26 26 30
9 18 15 9 7 8 2 4 2 2 4 6 9 11 16 21 22 22 22 22 15 16 21 21 21 18 26 30 31 32 31 26 33 32 32 30 28 30 29 31 27 31 29 31
7 4 14 16 15 8 8 7 4 6 4 3 6 6 5 17 25 25 12 8 10 9 19 23 23 20 27 31 33 31 32 27 32 32 33 33 29 28 27 29 26 28 31 34
4 6 2 7 18 14 7 9 11 8 7 2 4 11 18 16 10 15 11 6 8 11 19 22 20 19 28 32 34 35 34 30 31 33 33 32 30 28 27 31 27 25 27 30
4 2 7 9 8 12 10 5 6 5 4 10 8 13 8 20 15 16 7 5 5 9 17 21 21 21 29 33 34 35 35 33 33 32 33 35 33 30 30 31 30 27 30 30
6 0 5 3 1 6 7 11 4 4 2 3 2 4 6 4 10 17 19 6 8 6 4 12 19 22 31 32 34 34 33 32 32 32 31 32 34 33 32 31 34 31 34 35
3 1 2 3 6 7 4 14 14 7 7 8 9 14 5 7 9 16 19 20 5 5 5 8 18 20 25 29 32 34 33 32 33 32 32 29 32 35 36 35 34 35 35 36
5 4 3 6 0 11 6 2 6 8 8 14 5 6 9 9 12 3 8 15 16 2 5 4 17 17 18 26 28 30 32 32 32 32 32 32 31 33 35 36 35 37 37 37
4 1 2 1 3 4 10 13 7 7 4 7 12 17 14 7 7 10 14 11 8 12 5 8 12 16 16 25 27 28 29 31 31 32 32 33 33 34 33 35 36 35 38 39
1 1 3 8 7 11 12 13 15 8 9 8 11 14 9 7 10 6 7 13 7 9 7 3 11 12 13 18 24 26 29 32 34 33 33 33 34 33 33 35 36 37 37 38
5 3 5 6 8 9 12 14 13 11 11 10 8 8 7 12 13 17 17 15 16 7 12 6 9 6 16 18 23 28 31 34 36 33 34 33 33 33 33 32 34 36 38 38
4 3 4 3 7 8 6 8 11 14 12 7 5 8 15 16 18 19 20 20 8 9 11 12 9 9 8 14 13 27 31 34 35 35 33 36 35 36 36 34 33 32 34 33
3 2 1 3 5 2 5 8 11 6 13 12 11 14 13 14 19 12 18 13 11 12 12 12 12 12 18 17 18 15 20 33 33 31 34 32 37 36 35 35 35 34 34 34
10 4 1 2 2 6 9 5 5 7 8 10 11 13 11 17 17 3 21 20 9 13 13 12 20 24 26 30 26 22 10 24 30 31 32 33 31 32 33 34 34 32 31 29
11 6 4 1 3 3 2 11 11 11 3 9 9 12 14 16 9 5 13 14 18 20 22 20 23 25 27 31 31 21 22 19 8 22 34 30 34 31 29 29 29 29 32 27
9 5 9 5 3 5 7 1 3 3 2 9 10 7 9 8 10 13 6 12 15 18 23 25 24 23 22 27 23 21 20 19 17 20 13 30 33 33 32 31 27 25 26 27
5 6 4 3 2 6 13 6 5 4 8 9 7 9 6 9 17 8 14 17 18 17 21 25 19 20 21 23 21 20 21 20 17 16 25 20 11 19 30 31 25 27 32 33
1 5 4 6 4 3 9 11 8 8 5 6 8 11 12 15 15 13 14 14 14 13 16 14 9 8 18 21 19 18 20 21 22 26 27 28 25 19 14 27 33 27 22 23
3 6 2 2 9 10 11 9 7 8 8 8 9 10 13 14 12 13 13 12 12 16 14 10 13 20 19 20 18 14 16 20 28 30 28 27 29 28 27 23 21 23 25 14
3 5 4 5 13 13 13 10 6 8 8 7 10 14 15 14 13 11 10 12 13 13 15 19 19 17 19 20 19 15 14 20 30 29 28 28 29 29 33 34 28 33 29 26
4 4 4 3 7 9 8 8 12 10 11 9 11 12 15 13 11 9 10 13 14 14 18 18 17 16 18 22 24 18 13 13 32 29 28 29 27 27 29 36 41 46 45 42

GFSCGP_925_spd_096.txt.gz
Wind_Speed
4 4 7 10 11 4 3 5 7 1 5 5 10 20 12 7 11 15 16 16 12 10 6 24 29 32 34 36 37 35 31 27 25 22 18 16 18 20 24 26 33 34 37 43
2 14 7 7 6 7 9 11 17 13 10 12 13 20 11 7 10 10 10 16 13 4 8 15 24 28 33 35 35 35 32 29 26 24 20 17 19 18 23 22 25 34 35 35
11 5 15 11 11 12 12 13 12 17 10 7 4 19 14 13 11 13 18 14 14 10 16 15 16 24 28 32 36 37 33 30 26 23 21 16 17 15 17 23 26 28 33 40
11 12 14 10 15 13 15 16 19 16 7 9 4 18 12 12 18 20 20 17 16 10 16 19 17 17 29 30 33 36 33 29 27 26 24 22 16 13 13 20 21 27 33 36
7 3 14 17 16 13 14 17 15 17 6 4 3 3 8 1 12 20 18 17 17 10 17 22 20 26 29 32 34 35 32 28 28 27 25 26 17 15 22 21 21 22 23 31
8 6 2 4 4 7 5 7 5 2 4 4 6 4 21 3 10 16 17 13 17 7 14 21 21 25 27 28 32 33 29 27 31 29 27 26 23 22 22 23 23 21 23 25
8 19 14 6 7 7 5 2 2 2 1 6 7 7 15 15 15 20 24 21 22 15 11 18 20 18 25 29 29 29 29 27 31 31 29 29 28 27 23 27 25 24 24 27
7 6 13 8 19 8 8 8 5 6 5 7 6 6 5 6 12 21 16 15 20 18 14 21 22 20 26 30 30 30 30 28 31 31 29 30 30 28 24 24 22 21 24 30
5 6 3 4 21 14 7 8 7 4 3 3 4 5 6 5 12 21 21 24 17 18 20 22 19 18 26 30 33 33 32 29 31 31 27 28 30 27 27 28 23 25 23 23
4 4 3 6 5 6 11 7 1 2 6 13 6 6 8 9 16 16 21 16 15 9 17 17 18 19 27 30 30 30 31 32 32 32 29 29 29 28 28 26 26 27 29 27
3 1 5 4 1 7 4 1 1 1 4 5 2 4 6 7 9 19 20 21 15 12 6 14 17 20 26 27 30 31 30 31 31 33 31 29 30 29 26 30 30 30 32 31
1 2 4 7 7 4 3 3 5 4 5 5 3 5 9 8 12 5 16 19 20 17 7 10 12 15 21 25 28 31 30 31 33 32 31 30 30 30 30 28 33 31 33 35
2 1 2 2 4 6 5 4 6 5 4 12 3 4 3 12 6 3 12 19 19 19 12 7 13 15 16 22 26 28 29 29 31 32 30 29 31 31 32 33 31 33 34 37
6 2 3 2 2 3 2 6 7 4 2 4 3 7 8 4 4 8 11 19 17 14 17 1 10 14 14 22 26 28 28 30 31 32 30 30 31 32 31 31 33 35 36 37
4 3 3 1 3 5 6 5 13 4 7 3 4 6 4 7 8 11 6 13 8 19 20 5 7 11 12 16 21 24 26 30 32 32 33 31 30 30 31 32 33 33 35 37
6 3 4 3 5 5 6 6 4 8 8 11 12 5 8 6 3 7 11 12 5 11 16 14 4 3 3 8 15 21 25 28 30 32 33 34 33 31 32 33 34 34 35 35
1 1 3 2 6 6 3 3 7 3 9 5 0 4 7 9 12 12 13 12 12 12 16 17 16 15 13 13 5 15 17 18 23 27 29 32 34 35 34 31 33 34 35 34
3 3 1 2 3 2 3 9 9 13 10 9 8 9 8 8 3 12 15 13 14 13 13 13 12 12 20 21 21 12 20 29 26 26 26 27 31 32 32 34 34 33 33 36
9 4 2 3 0 5 3 5 3 3 8 11 7 9 9 10 1 10 13 14 13 12 11 10 13 15 17 22 22 19 22 3 17 19 21 25 27 30 32 32 33 33 33 32
6 5 4 2 1 3 1 6 8 7 4 14 9 11 10 14 7 4 10 13 13 11 14 15 16 16 19 17 16 19 21 19 15 14 13 14 26 30 31 33 32 32 33 30
3 2 4 2 1 5 1 8 8 3 1 10 9 11 9 7 7 10 15 15 14 14 17 18 20 20 21 25 20 17 17 19 15 13 11 7 10 18 25 27 28 33 33 29
4 4 3 3 3 6 7 1 4 4 3 4 6 9 9 8 9 11 10 13 12 14 20 22 18 20 23 25 17 16 19 14 13 15 18 20 21 12 6 17 18 21 27 26
3 2 4 5 3 5 8 10 6 5 4 4 4 7 7 9 10 10 10 9 13 17 18 19 15 14 25 27 24 20 19 13 15 21 24 24 24 26 26 20 14 14 17 20
1 5 1 2 6 11 9 9 9 8 6 7 7 8 8 8 10 9 10 11 11 15 16 18 18 19 20 20 21 20 17 14 16 22 24 26 30 31 31 29 26 22 15 15
4 5 4 5 6 10 9 9 7 9 8 10 10 11 11 9 10 9 10 10 10 13 17 18 18 19 15 14 18 19 15 16 21 22 20 21 28 33 39 40 31 32 27 17
5 4 1 2 7 4 7 7 10 11 11 10 10 11 11 10 10 9 9 12 13 13 14 16 18 16 15 16 21 19 17 20 21 23 23 21 19 23 29 38 41 43 39 40

GFSCGP_925_spd_102.txt.gz
Wind_Speed
5 5 11 8 9 5 2 5 5 1 3 3 7 14 6 9 8 8 8 9 9 10 10 15 15 13 21 29 32 38 37 40 36 30 27 24 23 22 22 22 24 25 25 28
3 18 7 8 7 6 6 6 5 4 6 5 8 25 9 7 8 9 11 8 10 8 9 7 9 9 23 25 28 30 33 40 37 28 25 18 22 21 23 24 22 21 25 29
7 4 11 12 7 9 6 9 3 8 4 3 5 19 9 7 5 7 7 8 6 9 11 11 7 14 19 23 28 29 34 38 33 28 25 19 17 15 19 21 22 21 27 26
7 7 5 7 8 7 10 8 9 6 2 3 4 8 0 6 6 4 8 7 7 9 15 11 8 9 21 25 23 25 30 33 32 31 28 22 19 13 15 19 22 22 23 22
6 3 8 10 6 8 5 8 8 6 5 1 3 4 5 3 7 9 7 8 8 9 13 14 11 19 18 21 22 26 28 26 30 30 27 23 17 18 16 19 20 22 19 15
5 1 3 7 5 8 5 3 3 2 3 3 8 7 3 4 2 3 3 7 8 10 15 15 17 12 18 21 24 26 28 27 26 27 26 26 23 21 19 18 18 17 18 19
0 10 2 3 3 2 3 5 1 1 1 5 6 5 8 5 4 4 6 8 8 11 14 17 16 7 15 23 27 29 30 27 28 29 28 28 26 22 21 17 17 17 18 17
6 2 10 7 12 8 7 7 4 5 4 3 4 6 5 4 5 4 1 3 5 16 17 19 18 11 18 26 29 31 30 29 30 30 27 29 26 23 22 21 17 17 17 18
3 3 2 3 5 12 5 5 7 2 1 1 4 6 5 4 5 6 7 9 12 17 21 23 23 13 21 25 30 31 31 27 29 29 25 29 27 23 22 20 18 17 14 14
2 1 3 2 4 4 6 5 3 1 3 5 4 3 5 2 5 6 7 10 13 19 25 24 22 6 13 18 22 24 29 29 29 29 23 30 28 25 22 21 21 19 18 17
6 2 6 5 2 2 2 3 4 4 5 3 7 5 5 4 4 5 1 5 10 18 26 23 17 10 14 19 22 25 27 27 28 27 23 27 28 26 23 23 23 23 20 21
2 1 2 6 3 3 3 2 6 3 3 2 2 11 5 5 8 6 4 2 6 13 22 23 18 12 14 19 22 25 26 25 25 26 24 27 29 27 25 25 25 25 24 24
5 2 1 4 3 3 4 2 1 2 3 5 4 5 3 6 5 5 3 4 6 13 21 20 22 8 11 15 18 23 21 20 20 22 22 22 26 27 27 26 25 25 26 26
1 1 2 4 3 5 4 3 2 1 2 3 4 4 6 7 7 10 7 7 4 11 15 16 18 3 5 10 14 16 17 21 20 19 20 20 23 24 25 26 26 26 27 28
2 1 2 4 5 9 5 3 2 1 2 4 3 3 2 5 7 9 10 10 8 10 14 16 16 15 7 8 14 17 21 20 21 20 17 17 24 25 25 26 26 26 26 26
4 3 2 3 4 10 8 8 4 8 7 10 6 4 1 3 5 12 11 13 11 12 13 15 15 16 16 18 3 15 18 19 20 15 15 15 18 21 24 25 26 27 27 27
2 2 2 1 2 7 5 5 2 4 3 2 4 3 7 5 9 12 12 12 11 13 14 15 16 16 17 20 20 11 13 19 21 19 17 18 18 22 26 27 27 26 27 28
5 4 1 3 4 2 4 4 8 10 5 6 4 6 7 3 8 10 11 10 11 13 16 16 13 16 19 23 25 20 2 16 14 14 14 18 22 22 22 25 27 27 27 29
12 2 2 1 1 5 2 2 1 3 0 4 5 6 7 6 9 11 14 13 11 11 11 13 19 21 23 26 21 15 23 23 20 16 10 5 6 17 22 24 25 27 27 27
6 4 3 1 1 3 2 1 5 2 2 0 4 5 5 10 3 4 13 13 13 13 17 16 19 20 22 21 17 22 22 22 20 16 13 10 7 5 7 20 24 24 28 28
2 1 6 2 1 6 3 7 3 2 2 4 5 6 9 5 5 7 11 12 15 15 17 15 16 17 20 20 18 20 21 21 16 15 14 15 14 10 10 8 15 24 25 21
3 3 3 3 3 6 8 4 1 2 6 7 10 8 8 9 9 10 10 11 13 14 18 17 18 19 23 25 20 18 20 15 15 17 19 20 19 17 14 11 6 3 13 13
1 2 2 4 2 5 6 6 6 7 6 6 9 8 7 9 9 10 10 11 11 14 16 19 15 17 19 21 21 19 18 17 18 22 23 23 23 23 23 23 18 19 19 23
3 3 3 4 4 9 8 8 10 11 11 10 10 10 10 9 9 9 9 10 9 12 14 15 16 18 19 21 22 21 20 19 21 22 23 24 27 29 30 29 25 21 18 20
4 5 5 4 5 5 9 8 9 11 10 11 11 12 12 9 10 10 9 10 11 12 14 15 16 15 18 20 22 23 20 18 18 21 23 23 25 28 34 39 28 27 24 20
3 4 3 2 5 4 4 7 10 12 11 11 11 10 12 11 9 9 9 12 13 14 15 15 16 16 17 20 20 19 17 15 15 18 21 20 23 24 25 32 42 47 45 42

GFSCGP_925_spd_105.txt.gz
Wind_Speed
12 10 17 21 17 11 5 12 15 3 2 4 13 18 11 10 13 14 15 13 13 14 14 8 12 18 20 20 19 23 26 28 33 33 29 27 27 27 26 25 24 25 25 27
8 20 15 11 11 14 15 17 14 5 7 7 16 21 15 13 17 19 16 14 14 10 9 11 15 14 14 16 18 21 25 28 33 31 29 20 24 23 25 25 25 26 27 27
11 6 16 11 10 12 14 18 13 13 4 7 8 19 14 5 11 11 11 11 6 6 7 12 13 17 15 16 16 18 23 25 30 27 26 17 21 15 22 23 22 25 27 25
12 10 5 11 17 13 16 11 12 10 5 8 2 8 5 10 7 4 6 3 3 5 7 11 14 14 17 17 16 17 20 25 28 29 28 25 23 18 18 21 20 23 24 24
9 7 14 11 9 15 8 9 12 11 10 6 8 6 2 3 6 1 1 5 3 7 10 12 14 18 23 12 15 18 21 25 28 30 27 25 19 15 13 15 15 22 23 23
5 1 6 8 6 17 7 5 3 3 3 6 10 9 3 7 6 2 2 2 4 7 10 12 17 20 21 10 13 17 22 26 29 29 28 29 22 18 16 15 17 17 23 23
4 4 1 3 6 6 6 7 3 4 5 6 9 9 7 4 1 3 2 5 6 8 10 12 16 17 22 17 16 18 23 26 29 30 31 29 22 18 17 17 17 18 22 22
11 8 15 10 6 8 11 11 5 6 5 1 5 6 2 2 8 4 2 4 7 9 10 13 14 16 22 25 19 21 24 25 28 30 29 25 21 18 16 16 14 16 17 18
4 2 4 4 11 9 5 9 1 2 2 2 4 5 4 6 3 2 2 2 8 12 14 16 16 17 25 27 18 22 23 24 26 26 25 23 21 19 18 16 16 16 15 16
2 1 1 2 6 4 5 8 6 2 4 6 5 6 5 10 6 4 2 6 9 11 16 16 16 18 29 28 18 22 24 24 25 25 21 21 20 19 17 16 17 15 13 14
4 2 1 1 0 6 5 4 2 3 4 3 3 2 3 5 3 2 3 2 7 12 16 18 18 29 32 29 18 23 25 24 25 25 22 22 19 19 17 16 16 16 14 12
3 1 2 3 2 0 3 7 9 4 4 4 6 7 2 4 6 3 3 3 5 11 16 17 18 24 35 14 18 21 22 23 24 24 21 21 17 18 18 17 17 16 17 15
4 1 2 4 2 3 2 1 3 3 1 9 6 2 3 6 9 5 7 7 2 10 16 15 18 21 23 9 14 17 19 20 22 24 22 21 18 18 18 16 17 17 17 18
1 1 2 1 3 2 1 1 1 3 4 4 7 5 3 8 10 9 10 7 5 9 13 15 17 19 23 6 13 16 17 21 22 21 19 18 18 18 18 17 18 18 18 19
4 2 2 7 4 4 4 5 2 3 1 5 2 2 3 6 7 8 10 12 12 13 14 15 14 15 18 18 7 11 15 19 20 19 18 17 17 16 17 18 19 19 19 21
4 1 1 2 5 4 4 6 6 7 4 7 9 7 7 5 8 10 11 12 12 13 15 14 9 10 15 21 20 1 14 15 19 18 17 16 17 16 16 18 19 18 19 19
3 3 2 1 2 6 5 5 8 3 2 2 4 3 7 7 9 11 11 12 13 15 15 16 16 15 19 21 21 15 1 21 18 18 19 18 16 17 17 16 17 18 19 20
4 4 3 2 3 2 5 4 6 8 6 7 3 6 9 3 9 11 13 12 12 13 14 13 13 19 23 24 24 21 15 12 13 13 12 14 16 18 18 18 18 17 18 22
11 2 3 1 3 3 3 3 3 1 1 5 3 6 7 1 9 12 14 12 12 12 11 13 15 17 17 24 28 23 25 22 22 18 19 10 7 5 14 20 21 20 20 20
6 7 3 1 3 1 2 1 5 2 1 4 4 7 5 8 1 4 11 12 12 14 15 16 16 18 26 28 22 17 23 26 24 20 14 10 10 7 6 3 10 24 23 23
2 1 6 5 2 3 5 9 3 2 2 6 8 9 11 6 5 6 9 11 14 13 16 17 18 19 23 24 21 24 25 24 17 13 14 17 17 13 12 7 4 6 15 17
1 2 2 3 3 6 10 2 1 6 8 8 10 10 9 8 9 9 10 11 12 12 16 18 15 17 21 22 19 22 22 17 18 19 21 22 22 20 17 14 13 10 14 21
1 1 3 2 1 4 7 10 10 9 7 6 9 8 8 9 9 10 10 10 10 14 16 18 17 18 22 21 19 19 17 16 20 25 26 26 26 25 24 24 21 21 18 21
1 3 2 3 5 7 10 12 13 12 12 9 10 9 9 9 8 9 9 9 9 14 16 17 17 18 20 24 21 14 14 16 21 24 23 24 28 28 28 27 26 22 20 19
3 5 5 2 3 5 12 9 10 11 10 10 10 10 11 9 10 9 9 10 12 14 16 16 15 16 17 14 15 16 16 15 19 21 22 23 23 27 34 39 30 30 29 22
3 3 3 2 5 4 6 8 9 10 8 8 8 10 11 10 9 9 9 11 13 14 16 16 17 17 18 18 18 17 15 14 16 20 20 19 19 22 26 31 38 45 43 41

GFSCGP_925_spd_108.txt.gz
Wind_Speed
23 16 24 30 24 19 17 12 15 14 7 13 16 19 19 16 14 14 15 16 17 16 15 12 7 9 12 16 17 19 20 23 26 29 29 26 29 26 22 22 20 20 20 20
18 29 23 14 19 18 12 13 20 14 8 11 16 21 19 17 18 19 19 18 18 15 11 7 6 7 10 15 16 15 18 21 26 27 27 23 25 22 21 23 19 20 20 21
20 12 22 17 15 18 19 21 18 18 11 14 19 24 24 23 20 20 16 13 11 8 7 5 4 6 9 11 14 16 18 21 25 27 26 21 20 15 18 22 22 24 21 22
16 7 18 22 21 19 21 20 18 13 9 14 6 10 5 4 12 11 10 9 7 6 4 3 6 8 10 13 13 15 16 20 24 28 29 31 27 22 20 21 19 22 22 24
11 16 13 20 20 21 15 13 12 15 16 15 19 9 12 6 14 11 10 8 6 4 2 3 6 10 12 12 11 11 14 19 22 27 28 30 26 22 19 20 20 21 23 26
6 2 15 17 10 18 8 8 9 8 10 12 18 14 11 11 12 9 7 6 3 2 4 5 7 9 12 13 11 10 14 18 22 25 29 31 28 23 20 20 19 19 23 23
12 11 7 10 15 15 13 15 6 7 6 10 6 12 12 5 5 8 6 5 4 1 4 7 10 10 12 14 14 11 15 18 22 25 26 28 26 23 21 20 18 17 20 20
14 14 14 12 11 12 21 17 6 8 9 10 9 8 5 8 9 6 4 1 1 2 4 6 10 12 14 18 18 14 16 18 21 25 24 24 24 21 17 17 16 17 18 18
13 12 4 13 9 12 15 14 10 6 1 3 8 5 4 8 9 7 7 4 5 7 8 11 15 13 15 23 24 19 16 19 23 25 24 22 23 19 16 15 14 15 15 15
2 7 9 7 8 18 10 13 9 9 6 8 7 10 5 12 11 10 9 6 3 6 11 13 14 16 22 22 26 21 18 22 24 25 24 22 22 19 16 15 15 15 13 14
6 4 8 9 8 14 10 11 9 8 9 4 2 3 4 7 6 6 5 3 5 8 10 12 15 20 25 23 32 18 19 23 25 25 25 22 22 20 17 16 16 16 13 15
8 3 7 8 4 6 14 16 15 8 9 10 10 5 4 3 1 3 5 5 7 7 10 13 15 20 26 23 37 12 16 22 24 25 26 22 20 20 19 18 17 16 15 14
7 1 6 6 6 5 8 10 14 13 8 10 8 3 6 4 2 2 4 7 4 8 13 14 16 18 21 22 28 16 12 17 20 24 24 22 21 21 20 19 18 16 15 14
5 2 3 2 4 2 6 9 10 12 8 9 8 4 9 2 2 5 9 12 11 11 14 15 16 17 21 23 26 34 11 16 21 21 20 20 19 20 20 19 18 17 16 14
5 4 5 6 4 4 5 5 9 12 11 6 4 5 7 4 7 7 8 9 11 13 15 15 16 17 17 24 30 35 10 17 21 20 18 18 17 17 19 18 17 16 16 16
5 2 4 5 5 6 9 11 11 10 7 7 7 7 3 8 7 8 10 11 12 13 15 15 17 17 17 22 27 32 10 17 21 20 17 17 17 16 16 16 16 16 15 16
4 4 3 1 1 3 8 13 13 10 4 4 7 6 5 4 8 9 9 11 12 13 14 16 15 14 21 23 28 28 25 20 19 18 18 17 17 17 15 14 15 16 16 17
5 6 4 2 4 5 5 5 9 7 3 3 5 3 4 7 10 9 12 12 11 14 15 14 13 18 20 24 23 23 19 13 15 11 11 11 15 15 15 15 14 14 15 16
9 5 3 3 4 3 6 4 2 4 5 6 3 3 3 13 9 11 13 12 12 13 12 15 17 18 18 20 26 23 21 24 23 18 16 12 12 9 11 14 14 15 14 15
5 9 6 2 4 2 6 5 13 7 4 4 6 8 9 4 0 4 11 12 13 15 17 19 20 16 13 20 20 15 25 27 24 19 15 14 12 12 9 6 6 11 14 16
3 3 8 7 4 0 8 9 13 5 4 8 8 9 11 7 6 6 9 11 14 14 17 21 19 19 20 21 22 21 24 27 24 23 18 17 16 18 14 10 5 2 10 15
5 4 1 3 3 3 15 1 5 5 8 8 10 9 8 9 8 9 10 10 11 13 17 20 19 21 22 25 24 22 28 28 25 12 19 23 23 18 17 17 14 13 17 22
1 4 4 4 4 6 8 9 9 7 8 8 10 7 7 8 8 8 8 9 10 14 16 17 18 20 25 26 26 26 27 27 24 22 27 27 26 25 22 21 21 21 21 22
2 5 3 4 6 7 8 10 11 10 10 9 9 8 8 8 7 8 8 8 8 14 15 16 17 18 19 20 21 19 19 20 18 21 24 28 31 30 28 27 25 23 21 20
3 6 5 2 5 4 9 8 8 9 9 9 11 10 8 7 8 7 8 9 10 12 13 15 15 16 17 19 20 21 19 14 15 16 19 22 24 29 34 35 28 29 28 22
3 4 4 3 6 4 5 7 8 10 10 10 8 7 9 8 7 7 7 9 10 12 13 15 16 16 17 19 20 20 16 13 12 14 17 19 21 24 26 29 37 42 40 38

GFSCGP_925_spd_111.txt.gz
Wind_Speed
32 23 26 40 32 30 28 17 21 16 19 11 17 21 20 20 16 16 15 13 13 14 14 18 16 4 8 13 14 16 17 19 22 24 26 27 26 25 25 24 21 20 21 21
22 29 40 27 27 30 25 20 23 21 7 10 15 19 18 19 21 20 19 17 19 18 17 16 9 9 10 14 14 17 17 19 23 24 26 24 23 24 23 23 22 22 22 21
31 35 27 26 25 26 27 24 22 19 9 16 20 21 21 21 20 21 18 19 20 19 16 13 8 8 10 13 10 13 17 19 21 23 18 19 20 21 23 26 24 24 23 22
27 26 27 27 28 22 24 20 19 16 12 19 19 18 19 22 11 24 23 22 18 15 7 6 8 9 7 8 7 11 14 17 20 23 23 26 23 22 24 22 24 23 24 23
20 16 23 26 25 20 17 15 14 16 18 18 18 13 17 15 14 13 16 14 12 9 10 9 6 5 6 6 8 10 13 15 19 22 26 26 26 25 22 23 23 24 22 25
15 15 13 19 19 19 10 7 11 12 13 15 21 17 11 15 12 17 12 13 12 10 7 5 3 4 8 6 9 12 13 16 18 21 25 25 27 27 25 23 23 21 20 22
7 19 19 12 18 16 15 15 6 6 8 15 18 17 15 6 15 17 14 12 8 6 3 2 3 6 11 11 11 14 16 16 18 21 24 24 29 30 25 23 21 20 20 20
9 8 10 12 17 14 21 19 6 6 10 12 14 9 13 21 6 10 12 8 7 6 4 3 6 9 13 14 17 19 20 21 19 21 23 25 27 27 24 21 21 20 18 19
11 14 18 15 13 15 22 16 14 5 8 4 8 9 5 6 17 10 10 7 6 1 3 7 8 12 16 19 22 24 22 27 23 21 23 25 26 25 23 22 20 18 16 17
9 6 8 16 14 12 15 14 13 8 5 6 8 11 5 14 10 10 7 5 4 2 6 8 8 13 17 20 25 25 26 33 28 22 24 25 25 25 23 21 22 18 16 17
9 8 7 12 14 20 12 11 12 11 11 5 7 1 12 15 14 11 8 2 2 2 6 6 8 12 17 20 24 25 27 31 24 22 25 25 26 26 23 22 20 18 18 17
7 7 14 19 12 15 23 16 18 9 14 9 9 2 2 11 9 3 2 1 5 9 14 12 13 17 18 22 26 24 26 24 11 20 22 23 26 25 24 21 20 19 19 17
9 3 2 5 6 8 15 17 15 12 11 7 9 7 7 8 9 6 6 13 9 10 12 13 14 15 18 21 25 25 26 30 13 18 20 23 26 25 22 19 20 20 18 17
9 5 5 4 5 5 11 16 18 14 9 10 11 12 16 13 7 15 11 11 10 10 11 11 13 14 18 22 24 26 27 31 13 18 19 20 21 19 22 20 20 21 19 17
7 7 8 3 8 4 4 10 10 12 12 9 5 14 16 5 14 13 10 7 8 11 12 13 14 15 18 23 25 27 24 25 11 18 19 19 22 18 19 19 20 20 18 17
11 5 8 9 8 6 6 7 8 11 10 11 12 9 15 11 13 11 9 9 10 11 12 13 14 16 17 24 26 27 25 26 26 18 18 21 22 20 20 19 18 20 18 18
6 6 8 3 3 3 7 11 11 11 11 8 12 6 4 10 11 9 8 9 10 11 13 14 15 15 21 24 26 25 25 35 20 18 19 21 19 17 17 18 18 18 19 18
8 9 5 5 2 5 4 8 7 10 8 7 2 7 8 12 11 9 8 9 10 11 13 13 13 19 23 25 24 24 30 33 10 10 10 15 19 17 16 15 17 16 16 18
11 5 4 4 5 7 8 8 8 10 4 9 6 7 7 13 10 9 9 10 11 12 12 14 18 20 22 24 24 24 30 28 20 18 15 13 13 14 16 15 15 15 15 14
4 7 5 5 5 2 7 10 12 17 3 7 6 8 8 7 3 3 10 10 11 13 15 16 18 20 22 28 27 24 27 26 21 18 16 18 16 15 13 10 11 10 12 12
1 3 9 8 6 5 14 11 7 5 4 7 8 9 9 5 5 5 8 10 12 14 16 16 15 18 22 27 27 22 24 25 24 15 30 29 23 20 12 11 9 10 17 20
4 4 2 4 5 2 19 5 5 1 6 7 10 9 8 7 6 6 8 10 12 14 17 17 15 17 23 25 24 18 22 22 17 16 34 29 34 23 21 23 20 18 21 27
2 5 3 6 4 7 10 9 9 8 7 8 9 8 6 6 7 7 8 11 12 15 16 16 16 17 19 22 21 19 22 22 23 36 34 32 29 27 25 30 24 25 25 23
4 6 3 6 6 6 8 9 9 9 9 10 10 9 7 7 6 8 8 9 10 15 16 16 16 17 19 21 21 21 20 19 23 30 33 30 33 35 31 33 31 26 21 20
4 8 6 3 4 1 7 9 9 7 8 9 10 10 9 7 8 9 9 9 11 13 15 16 16 17 19 20 21 22 24 19 24 25 21 22 26 34 36 40 32 31 30 22
5 4 4 3 6 3 6 7 8 9 10 10 9 8 10 10 10 9 9 12 13 14 15 16 18 18 18 18 20 22 21 22 21 21 20 23 26 28 29 30 36 43 40 38

GFSCGP_925_spd_117.txt.gz
Wind_Speed
13 13 15 22 23 23 23 19 21 17 15 19 27 25 18 12 16 14 13 15 12 20 17 28 29 35 25 21 22 22 33 36 38 37 33 26 31 33 33 25 24 26 31 32
15 22 24 22 23 25 25 24 23 17 15 18 17 8 17 9 9 21 15 10 9 8 10 19 25 17 20 20 18 20 26 32 33 33 33 27 31 31 35 35 30 28 29 31
16 20 19 20 21 27 27 24 22 17 2 5 8 7 9 5 6 11 20 11 8 10 8 7 7 20 25 21 17 14 15 19 30 30 29 20 27 18 28 33 31 29 28 28
6 12 17 24 29 25 23 23 25 23 18 4 3 4 7 11 9 6 7 2 6 7 9 5 11 7 21 18 16 14 10 7 6 3 28 32 27 20 29 31 34 27 21 29
11 17 22 18 29 24 22 24 24 25 9 6 5 3 6 6 6 12 9 9 7 6 7 8 12 15 17 16 18 16 11 11 11 12 12 23 31 32 28 29 30 30 29 26
20 13 13 12 18 20 26 22 13 3 6 2 8 6 5 5 10 8 13 13 11 6 8 14 16 26 26 30 30 29 25 21 17 19 17 11 25 29 23 23 25 27 30 29
18 20 13 13 14 20 22 14 6 1 2 4 12 7 14 8 11 18 18 13 5 15 14 13 17 13 21 25 28 25 26 25 23 22 24 21 19 28 28 30 29 28 30 29
9 19 12 10 3 8 12 8 5 2 5 4 4 7 7 14 19 17 15 14 12 14 16 17 14 12 19 21 25 25 26 27 27 27 29 28 24 26 31 30 28 31 30 32
8 10 22 11 6 10 9 11 3 0 2 3 5 4 7 13 4 12 20 16 9 17 17 16 14 16 20 22 24 25 26 25 27 31 32 35 30 24 29 31 29 27 30 29
7 8 13 18 12 2 11 6 4 3 1 4 4 4 3 8 14 12 19 18 15 20 19 17 15 19 23 26 26 25 22 21 24 28 29 30 27 29 31 33 28 25 28 31
9 5 5 9 4 5 3 5 4 1 4 1 2 3 7 9 11 18 17 21 13 16 16 16 15 22 24 25 24 21 20 21 24 28 31 33 35 34 31 34 27 26 29 33
6 3 6 6 17 8 13 6 5 3 4 2 6 3 8 18 11 18 19 18 12 14 15 15 14 18 19 18 18 19 21 22 25 29 31 33 34 26 32 31 30 28 31 33
6 4 5 10 9 11 3 11 11 12 2 1 2 4 9 19 19 17 17 16 12 13 14 11 13 12 16 19 23 26 26 27 27 30 31 32 32 20 23 26 27 26 30 34
4 3 3 1 6 6 10 16 15 6 2 3 3 8 13 16 13 13 16 13 11 14 15 14 12 10 17 20 22 25 27 28 30 29 31 30 32 25 23 25 21 24 34 32
6 4 8 13 13 9 13 10 12 9 8 2 5 13 13 11 13 13 11 11 13 13 13 13 13 13 19 22 24 27 29 31 32 31 30 31 32 26 26 22 20 28 35 32
7 3 9 6 11 9 6 8 9 8 12 11 11 10 16 12 11 13 15 13 14 15 16 16 15 15 17 19 23 27 29 30 32 33 31 32 29 25 24 22 21 27 29 31
4 4 5 4 16 6 6 15 9 11 18 4 4 9 12 12 13 13 12 13 15 13 13 13 13 14 19 22 24 26 29 30 29 30 30 29 34 22 21 24 27 24 29 29
5 4 2 4 8 3 6 17 15 17 19 19 15 10 13 12 12 12 10 9 10 10 12 11 13 17 20 22 26 27 27 27 28 28 28 28 30 22 20 24 27 25 29 29
1 1 2 2 4 3 13 18 14 13 10 16 15 7 15 14 15 13 11 11 10 9 10 11 13 17 20 23 27 26 27 27 27 29 29 28 28 24 11 18 23 24 28 25
3 2 2 3 3 4 6 20 18 10 6 12 12 13 7 8 3 4 10 11 9 12 13 15 15 17 19 25 26 24 24 25 27 30 31 27 24 23 16 11 24 19 25 29
4 3 4 3 2 5 13 17 14 4 4 8 9 8 12 9 6 6 10 11 14 14 17 17 16 16 19 22 23 20 21 24 26 29 32 30 25 24 22 13 21 29 31 33
4 3 2 3 4 3 17 8 7 6 7 8 9 7 9 9 9 9 10 11 13 16 18 18 16 16 20 23 21 19 21 25 26 33 34 34 30 29 26 27 24 24 30 33
3 2 2 4 2 3 6 6 7 10 9 11 9 8 8 7 9 9 8 10 12 14 16 16 15 15 19 23 22 19 21 26 27 30 32 33 34 33 31 31 29 26 25 22
3 7 3 3 6 7 9 7 9 10 11 10 11 14 9 9 9 10 9 9 10 12 14 15 15 17 18 22 22 22 25 25 26 28 28 30 32 37 36 37 31 30 25 25
3 5 4 3 5 5 9 7 7 9 11 11 10 10 12 10 11 10 9 10 13 13 13 15 15 16 19 21 23 26 26 23 22 23 24 26 28 30 36 43 34 33 31 29
3 2 2 1 1 4 3 4 6 7 8 10 11 9 10 10 9 13 9 13 13 14 13 14 16 17 20 21 24 25 23 23 21 21 22 22 22 25 26 31 39 49 45 41

GFSCGP_925_spd_123.txt.gz
Wind_Speed
3 2 10 11 12 15 16 18 22 27 23 23 25 27 19 26 20 25 22 19 17 19 18 23 31 31 36 39 44 38 38 41 36 32 32 30 32 36 35 34 31 30 31 30
1 9 15 8 8 13 18 22 23 22 25 19 26 25 24 27 25 24 24 22 14 15 10 12 19 30 31 32 40 44 43 40 41 35 37 27 30 33 36 33 31 33 33 33
6 9 3 8 12 14 20 19 23 24 28 21 17 29 22 27 31 25 23 20 21 14 16 12 12 20 28 28 27 37 42 39 38 31 28 22 24 17 24 28 30 32 32 34
6 5 10 8 12 12 23 16 21 24 15 11 6 20 11 19 21 13 22 17 13 10 7 5 10 9 14 12 14 16 16 17 18 22 23 25 20 14 26 30 31 31 30 33
9 8 6 6 9 11 21 14 15 13 14 12 22 12 10 14 15 10 9 14 6 3 8 12 15 20 23 25 31 33 31 25 18 20 17 10 7 4 1 21 27 31 31 33
13 6 4 7 10 17 17 9 7 10 10 8 24 5 9 9 14 6 5 6 12 15 17 17 20 25 23 27 30 35 36 30 27 26 22 18 15 7 2 3 12 23 30 33
9 4 2 5 7 6 6 3 3 3 2 6 5 7 16 9 13 5 4 18 17 17 16 14 16 16 20 25 24 26 27 27 25 23 21 16 12 6 3 5 8 15 24 29
6 10 2 5 6 6 4 6 3 4 3 6 4 7 6 11 6 10 15 20 19 20 16 16 14 15 20 25 26 25 27 27 25 23 19 15 11 7 5 7 10 14 21 28
6 8 10 17 13 6 1 6 11 5 8 4 3 6 4 18 21 18 17 19 18 19 15 14 15 19 23 25 24 22 22 22 23 20 17 13 12 12 12 12 14 19 21 27
5 11 7 9 5 6 4 6 0 3 5 4 3 3 4 11 17 19 19 18 18 16 15 15 15 20 22 22 21 19 21 18 16 15 16 12 12 14 16 15 17 19 23 26
5 5 10 10 5 6 6 4 4 3 4 4 3 3 6 13 14 17 19 18 16 15 13 13 14 19 19 21 22 23 26 26 27 25 20 19 19 18 19 19 19 20 24 26
5 3 6 13 4 6 2 2 4 3 4 1 3 2 13 16 17 17 17 17 16 15 14 13 15 23 26 24 22 21 24 28 30 30 30 29 29 28 26 25 24 22 23 29
4 3 5 9 4 2 3 6 9 8 3 1 3 3 10 10 15 14 14 15 13 13 14 14 14 12 14 16 17 16 18 18 24 26 25 25 27 27 27 27 28 24 23 26
1 3 5 4 12 13 9 11 12 3 2 2 2 4 7 13 13 12 8 11 14 13 12 12 13 12 18 20 21 23 27 24 24 24 25 27 29 30 29 30 29 26 24 24
2 4 4 11 11 10 12 8 11 12 12 2 7 8 10 9 11 11 10 13 20 15 20 19 17 16 21 25 23 22 19 26 25 26 26 26 28 29 29 28 27 27 25 23
3 3 4 4 7 8 17 20 16 11 12 9 10 9 7 11 13 18 17 16 15 15 15 15 14 14 15 19 20 22 25 26 24 22 21 23 25 27 27 27 27 27 24 24
3 2 3 4 7 5 4 14 13 8 18 8 8 5 5 13 16 14 11 12 12 12 11 11 12 13 16 18 19 20 21 22 21 22 24 25 26 27 28 28 26 25 25 23
3 2 2 4 5 4 3 10 7 10 14 14 9 6 7 12 11 11 10 11 12 12 11 11 11 15 18 20 22 23 21 21 21 21 24 26 28 28 29 27 25 27 26 25
9 1 2 1 3 3 3 8 8 6 8 14 13 10 3 4 2 11 12 12 11 11 12 13 16 17 19 22 21 20 20 21 23 26 27 29 29 30 28 27 28 27 28 27
3 2 2 3 3 2 2 19 15 7 5 12 11 12 12 12 4 5 12 11 11 15 16 16 18 16 19 23 23 20 21 23 26 28 29 29 30 29 27 28 28 27 23 19
4 3 3 3 1 2 12 17 11 2 4 10 8 7 9 7 5 5 9 12 17 16 16 17 15 15 17 19 19 19 22 26 27 29 29 30 31 31 29 28 25 22 15 8
4 3 3 3 3 2 15 7 5 4 5 8 9 7 6 6 6 7 9 11 15 17 20 21 18 18 19 21 21 21 23 26 25 25 29 30 32 32 30 29 28 23 20 21
2 2 1 3 1 4 5 5 5 8 5 5 8 11 5 6 7 8 8 9 13 16 18 21 20 19 22 25 25 23 24 23 27 27 29 30 30 33 33 34 32 24 25 25
2 4 2 2 2 3 5 4 7 7 7 6 7 8 8 8 8 8 7 7 11 15 17 21 20 18 20 22 21 22 22 22 24 26 27 28 27 28 35 37 34 33 27 24
1 3 0 1 2 2 4 6 6 6 6 7 10 11 8 8 8 7 7 8 10 12 16 17 17 16 18 21 21 21 22 21 21 22 26 27 25 27 26 31 39 35 41 38
2 1 1 3 2 2 3 3 4 4 6 6 7 8 12 10 7 8 6 8 9 11 14 15 16 17 20 23 20 25 24 20 20 19 20 22 22 24 25 25 25 38 42 42

GFSCGP_925_spd_126.txt.gz
Wind_Speed
2 0 6 9 10 10 8 11 15 22 21 24 21 24 23 29 20 24 20 21 25 24 24 23 30 38 37 35 38 40 40 42 34 32 32 28 32 35 38 37 36 33 33 30
2 8 9 6 7 10 12 11 22 22 23 18 25 29 26 24 29 23 23 23 25 26 23 19 26 29 34 39 38 39 41 40 41 36 35 26 30 29 29 35 36 31 32 31
5 6 4 4 4 10 16 10 19 19 23 25 23 28 31 20 22 29 27 29 27 27 25 18 15 20 30 29 37 37 39 38 41 36 29 22 20 16 22 29 33 34 33 32
6 4 3 2 6 8 12 6 14 17 12 11 6 15 29 22 23 26 20 23 25 27 24 20 11 7 6 9 14 17 21 24 29 31 31 30 23 18 21 25 26 33 35 34
8 4 4 5 7 5 10 9 12 14 14 10 19 6 17 16 23 21 20 22 24 23 20 9 12 15 19 22 23 20 22 20 20 25 29 28 24 23 18 18 18 10 19 29
10 3 4 6 6 11 14 10 11 4 2 5 9 6 17 6 9 11 11 10 8 15 18 17 18 24 23 27 29 28 30 26 23 23 21 21 17 15 17 17 12 17 14 26
8 4 3 4 4 3 3 4 4 5 2 7 7 10 12 21 21 15 3 15 17 17 18 18 18 16 27 25 25 26 28 28 28 27 22 18 14 11 12 12 19 20 27 30
5 7 2 3 5 7 9 5 2 5 5 17 17 6 7 14 20 18 17 18 20 19 19 19 19 16 24 23 24 25 25 27 26 21 19 16 13 10 8 6 6 14 24 27
4 6 6 13 15 4 1 4 5 5 9 6 5 5 1 14 18 17 18 20 18 18 17 18 18 21 23 22 25 24 21 22 24 23 19 20 15 11 8 4 4 10 18 21
4 7 6 6 3 4 2 5 2 1 4 5 3 5 12 10 14 16 17 17 16 16 17 16 15 19 18 18 20 22 21 21 19 20 21 19 16 13 12 11 12 14 18 19
1 1 9 9 1 5 4 3 3 4 4 4 5 3 13 14 13 14 16 15 15 16 14 14 13 16 16 19 22 22 22 21 21 25 23 20 20 19 17 16 17 18 21 22
2 3 6 12 14 3 1 4 3 3 4 4 3 4 11 14 15 14 14 14 15 16 14 15 13 17 16 24 24 17 23 27 26 28 26 26 22 21 19 19 19 20 23 24
3 2 5 9 4 4 6 6 7 8 4 2 4 3 9 14 15 14 13 14 13 14 16 14 12 14 26 32 31 31 31 30 31 28 23 20 21 22 21 22 23 22 23 25
1 3 6 5 8 5 13 11 12 4 3 6 4 5 12 14 15 16 16 14 13 14 14 15 16 16 23 27 27 27 26 25 24 21 21 23 26 26 24 23 23 25 24 26
2 4 3 9 13 5 13 18 18 10 12 4 7 8 10 11 11 10 11 14 14 16 15 16 15 14 22 22 22 21 17 17 20 22 25 27 26 25 25 24 24 26 26 26
1 3 2 5 6 5 9 14 16 15 14 5 7 8 7 5 9 16 17 15 16 12 15 16 16 18 21 23 22 20 18 23 23 20 23 24 25 28 28 28 28 28 27 26
1 2 2 4 5 7 3 9 8 8 16 7 9 4 6 10 16 16 15 16 16 16 15 16 17 18 18 20 19 22 22 24 25 28 26 26 29 30 30 30 29 28 29 28
2 1 2 4 4 2 2 10 7 6 12 12 10 5 3 7 10 13 14 12 13 14 16 15 16 17 19 20 23 22 23 24 27 26 26 28 29 31 32 30 29 29 28 28
8 2 3 2 3 2 3 7 6 5 8 11 11 13 10 5 0 12 13 11 12 14 15 15 17 18 20 23 23 22 23 23 24 26 26 28 29 29 30 30 31 28 28 28
4 2 3 3 3 1 2 13 12 5 2 13 11 11 11 12 6 4 10 11 13 17 17 19 20 19 21 24 23 21 23 24 26 27 27 26 28 29 29 31 30 27 26 25
3 2 3 4 2 3 9 14 10 1 4 9 9 8 6 5 4 2 7 11 16 16 19 23 20 18 20 23 24 22 22 25 28 28 27 27 31 31 31 32 30 27 27 23
2 3 2 3 2 2 13 3 4 4 3 7 8 11 7 7 7 8 10 11 15 18 19 20 17 17 21 23 22 22 24 26 28 26 27 27 30 29 32 32 35 31 29 24
1 1 2 1 1 4 5 6 5 6 5 6 9 10 8 8 9 9 9 10 11 14 16 19 17 15 20 23 24 22 26 28 25 27 27 28 26 27 29 33 33 33 31 27
1 3 1 2 3 4 5 5 7 6 7 8 7 7 8 8 9 8 8 9 14 16 17 21 20 19 20 23 23 23 23 23 22 21 23 24 22 23 27 30 32 32 36 30
0 2 1 1 3 5 5 5 4 4 5 5 8 10 9 8 9 6 8 12 13 15 18 19 20 21 22 24 24 27 26 26 25 22 24 27 25 26 26 25 28 31 38 38
1 2 1 2 1 1 3 5 5 3 5 6 7 7 11 10 7 8 8 10 12 14 17 19 20 21 24 24 23 26 24 23 20 18 19 21 22 23 24 26 25 26 30 34

GFSCGP_925_spd_129.txt.gz
Wind_Speed
2 1 6 7 7 7 7 13 17 23 18 17 22 26 30 34 24 28 27 27 26 27 31 35 31 32 33 33 36 37 36 37 36 34 32 29 30 26 26 26 26 29 32 34
1 5 5 4 6 6 7 13 18 24 13 14 22 24 34 31 30 27 29 29 28 28 28 29 31 33 33 32 33 36 39 39 39 36 35 29 30 27 26 25 26 28 28 32
4 2 3 2 8 7 9 11 17 16 26 21 12 17 19 24 19 22 24 27 28 29 28 27 25 29 34 27 34 37 39 40 41 37 31 24 17 17 21 26 26 29 29 30
6 1 2 2 8 5 10 12 16 13 14 10 12 9 24 21 24 21 23 22 25 28 30 26 27 21 26 24 28 33 33 36 36 36 32 34 31 23 26 25 25 23 25 24
3 1 2 4 8 6 8 6 14 18 16 13 4 5 12 25 26 26 24 24 21 25 25 24 22 23 5 6 14 22 21 22 25 32 31 30 25 20 18 20 20 24 24 23
9 4 4 5 6 10 11 10 18 6 2 5 7 3 20 15 22 23 23 16 18 21 4 11 14 15 17 18 20 21 25 20 21 22 21 23 21 15 14 16 24 22 24 25
6 3 3 4 4 3 1 11 5 2 3 6 7 12 8 19 19 21 18 17 18 19 18 18 18 16 21 20 26 25 28 26 25 24 20 19 16 15 12 9 13 18 17 21
5 2 1 1 4 7 8 4 3 5 5 13 13 4 5 21 16 19 17 15 18 19 18 20 20 18 23 22 33 29 31 28 26 25 20 18 15 12 8 7 8 9 11 11
2 5 1 8 7 2 1 4 3 4 9 5 4 3 4 25 22 18 19 20 20 20 19 19 19 23 24 28 33 31 27 25 24 20 20 18 12 10 5 1 3 6 8 11
0 5 2 5 4 5 2 5 2 3 5 7 5 4 11 21 22 22 19 20 20 19 19 18 19 23 26 30 30 27 29 23 21 18 18 13 13 9 5 5 4 4 8 12
0 2 6 5 1 7 5 4 4 3 4 4 6 4 10 14 15 17 18 19 20 19 18 17 16 24 26 26 27 27 24 20 24 19 18 17 9 10 12 7 9 10 12 13
1 2 5 7 11 2 5 8 4 4 3 5 7 3 9 12 13 14 15 17 16 13 14 14 17 23 25 24 24 23 22 24 22 18 15 14 16 16 15 16 15 14 16 17
2 2 5 3 5 4 6 14 10 8 4 4 4 3 7 11 14 15 15 15 14 16 16 15 15 17 22 21 20 18 18 22 23 21 19 17 14 14 14 15 15 14 15 17
3 3 5 4 5 3 4 16 14 9 3 4 7 5 12 15 15 15 16 14 13 14 16 14 14 14 21 19 20 23 29 38 35 31 27 21 23 21 17 15 16 16 17 20
1 3 4 9 13 2 4 12 15 11 11 6 3 6 10 11 12 12 12 15 17 19 19 18 16 14 23 32 36 32 31 28 20 16 18 22 25 23 21 22 22 22 21 21
1 2 2 4 5 9 3 13 12 10 11 6 5 6 5 9 11 18 18 17 19 18 18 20 20 24 27 31 30 29 27 25 23 24 22 28 26 22 21 19 19 20 21 22
2 0 3 2 5 3 4 8 7 8 14 8 8 6 4 9 14 16 17 18 18 17 18 20 20 23 27 29 28 29 30 30 29 31 27 24 23 24 25 25 25 25 25 25
2 2 1 4 6 2 4 6 3 7 10 10 9 12 7 6 9 14 15 15 17 18 18 17 21 23 24 24 24 23 23 25 26 26 25 27 28 28 28 28 27 25 24 25
7 1 1 2 3 4 4 6 6 4 7 13 12 12 14 3 3 12 13 13 13 13 16 17 18 19 19 23 22 20 24 26 27 23 24 26 27 25 26 26 27 26 26 26
5 2 0 2 2 1 2 13 8 5 2 10 12 11 11 10 6 6 11 13 15 17 19 20 18 18 20 24 24 25 25 24 27 26 25 24 25 25 28 29 29 27 26 24
1 2 2 1 2 4 7 13 8 3 4 8 10 10 8 6 5 6 8 11 14 15 17 18 16 19 20 23 23 22 23 26 26 28 24 23 25 25 28 28 28 29 29 28
1 0 0 1 1 2 10 3 3 3 4 8 8 11 7 7 8 8 9 11 15 16 17 18 16 18 21 23 24 21 23 23 24 24 25 26 27 27 27 29 30 30 31 29
2 1 1 0 1 6 6 7 4 4 3 6 7 7 6 7 7 8 8 10 14 16 16 16 16 16 19 20 23 22 25 24 23 22 26 27 26 26 26 28 30 30 30 28
3 1 2 3 4 5 6 6 5 4 3 5 7 7 7 6 8 8 9 11 12 13 15 15 16 18 20 21 22 23 24 24 21 21 22 23 23 25 26 23 25 25 29 29
1 3 3 3 6 7 5 5 4 3 4 4 8 8 8 7 8 8 8 11 13 13 14 15 16 17 20 21 21 22 23 22 21 19 20 21 20 21 22 20 20 22 23 28
2 3 3 2 4 2 5 5 4 1 5 6 5 6 10 10 8 7 9 10 12 14 16 17 18 18 19 20 22 23 24 22 21 20 20 20 18 20 19 21 20 19 23 27

GFSCGP_925_spd_132.txt.gz
Wind_Speed
0 6 6 7 5 8 9 13 18 14 16 14 12 27 34 29 21 23 23 23 25 26 24 30 41 36 35 38 37 34 33 36 36 36 36 33 31 26 27 27 27 27 27 31
5 5 5 3 4 7 11 14 18 13 2 18 17 29 31 23 14 13 18 23 26 26 26 24 30 40 35 37 38 37 37 37 39 38 39 38 35 32 30 26 26 27 26 27
6 4 4 4 7 9 13 13 16 21 18 20 11 18 10 17 14 27 25 27 27 29 30 25 25 31 37 36 39 38 39 39 40 41 37 33 29 26 26 28 29 28 26 25
5 1 3 7 10 7 12 5 10 18 17 7 12 9 14 17 23 26 26 23 25 29 30 29 30 28 35 36 37 37 38 39 40 40 38 39 35 30 32 32 28 27 28 27
3 3 4 5 2 3 6 9 15 18 18 16 7 7 9 21 26 30 30 28 24 25 28 30 22 24 31 31 36 34 35 37 39 39 39 37 33 30 28 25 25 27 26 27
9 5 5 3 6 8 12 15 17 3 3 5 5 4 8 14 17 25 25 27 28 24 24 23 30 25 10 5 17 24 29 31 36 38 37 34 32 26 23 22 23 24 24 29
2 5 3 4 9 4 4 10 4 4 5 6 2 10 11 21 21 17 19 20 24 21 19 19 18 18 21 21 14 14 15 17 15 22 20 22 26 22 21 19 23 24 24 27
2 5 4 2 5 6 7 4 4 6 8 15 17 3 6 21 20 20 21 20 22 21 18 17 18 19 21 26 23 23 20 24 27 25 22 20 18 24 20 15 16 17 20 19
2 2 3 7 5 5 2 3 3 6 15 7 4 9 11 25 23 22 20 22 20 21 20 20 19 23 25 25 27 23 23 26 27 25 23 20 19 21 14 11 11 7 8 9
1 4 3 3 3 3 6 7 3 3 5 8 8 7 11 23 22 22 19 19 19 20 21 19 14 22 26 28 26 25 28 30 28 28 22 18 19 18 15 10 7 4 2 3
2 3 3 3 1 5 3 3 4 5 6 5 7 5 7 14 15 18 18 16 17 18 18 18 17 24 28 28 28 28 27 29 29 20 19 26 21 17 13 12 8 5 4 3
3 2 3 4 3 1 6 7 7 4 2 9 8 5 12 11 13 14 16 15 15 15 16 16 20 25 27 29 31 33 32 29 28 24 24 22 18 16 16 13 11 10 9 8
4 2 3 6 6 9 3 10 8 7 6 3 4 4 8 10 12 15 15 14 14 16 18 18 20 23 28 31 31 33 31 31 27 27 24 20 18 16 15 16 16 13 13 14
2 1 3 6 4 3 6 10 9 5 4 4 4 3 10 12 14 13 16 16 14 15 17 17 17 20 28 30 31 32 34 33 31 28 23 20 23 27 26 23 22 19 17 18
0 2 4 10 10 4 2 7 12 12 13 7 4 4 8 11 12 10 10 14 16 18 18 17 16 17 25 29 28 29 30 29 25 19 24 24 22 21 20 18 19 18 17 18
3 1 6 7 6 11 7 8 12 9 11 11 4 6 3 6 9 14 16 14 17 17 18 17 17 22 24 26 27 25 30 25 24 29 30 25 24 21 21 21 21 21 20 20
3 2 5 3 2 10 4 5 6 10 11 6 9 8 10 6 11 14 16 16 16 17 18 18 18 22 24 25 25 28 28 24 24 26 18 23 26 26 29 27 24 23 22 20
2 4 3 3 4 3 5 2 5 10 9 9 6 9 10 1 5 13 15 16 17 18 18 17 21 22 22 22 23 19 17 19 21 19 21 24 24 24 24 24 24 23 22 22
7 3 3 3 1 6 8 3 3 3 5 9 9 10 12 2 8 8 13 13 13 14 18 20 21 23 25 27 23 22 24 24 23 24 23 24 24 23 24 23 23 25 26 25
7 5 5 3 3 3 6 8 2 4 4 8 9 9 11 11 5 8 12 13 15 16 17 19 19 19 21 25 23 24 25 24 24 23 24 26 25 24 25 26 26 26 26 25
4 4 5 2 3 3 4 7 2 5 4 6 8 8 9 7 5 7 10 12 16 17 18 18 17 19 21 22 23 22 23 26 26 24 22 22 22 22 23 24 24 27 27 24
4 2 2 2 4 3 8 2 3 3 2 5 5 7 6 5 6 8 10 11 15 18 20 20 19 19 19 22 23 23 24 25 25 23 23 23 25 23 22 22 25 25 26 25
3 3 1 4 3 4 7 8 5 2 2 4 5 6 5 5 6 7 8 11 14 17 17 19 19 20 21 22 21 21 22 23 22 20 21 22 22 22 23 22 24 24 26 27
3 1 1 5 5 5 6 6 4 4 4 4 5 5 6 6 7 7 8 10 12 15 17 19 20 21 23 25 24 23 24 24 22 21 23 24 23 25 25 23 24 24 27 28
2 7 4 3 7 7 5 5 4 5 5 6 6 6 6 6 7 8 7 10 11 13 15 16 18 19 21 22 23 23 23 23 22 19 21 23 21 22 22 22 21 23 24 27
4 4 4 1 8 3 8 6 3 4 4 4 3 4 7 8 7 8 9 10 11 12 13 14 16 17 19 20 21 24 23 22 20 18 20 20 20 20 21 21 20 17 19 22